<?xml version="1.0" encoding="UTF-8" standalone="no" ?>
<gpx xmlns="http://www.topografix.com/GPX/1/1" xmlns:xsi="http://www.w3.org/2001/XMLSchema-instance" xsi:schemaLocation="http://www.topografix.com/GPX/1/1 http://www.topografix.com/GPX/1/1/gpx.xsd" version="1.1" creator="VisuGPX - https://www.visugpx.com">
  <metadata>
    <name>Ascou, Ariège, Ballade en forêt communale</name>
    <desc><![CDATA[19/01/2014]]></desc>
  </metadata>
  <trk>
    <name><![CDATA[Ascou, Forêt Communale]]></name>
    <trkseg>
      <trkpt lat="42.72977" lon="1.91812">
        <ele>1292.1999511719</ele>
        <time>2014-01-18T09:57:14.000Z</time>
      </trkpt>
      <trkpt lat="42.72981" lon="1.91816">
        <ele>1292.5999755859</ele>
        <time>2014-01-18T09:57:20.000Z</time>
      </trkpt>
      <trkpt lat="42.72985" lon="1.9182">
        <ele>1292.5999755859</ele>
        <time>2014-01-18T09:57:26.000Z</time>
      </trkpt>
      <trkpt lat="42.7299" lon="1.91824">
        <ele>1292.4000244141</ele>
        <time>2014-01-18T09:57:34.000Z</time>
      </trkpt>
      <trkpt lat="42.72995" lon="1.91829">
        <ele>1292.1999511719</ele>
        <time>2014-01-18T09:57:39.000Z</time>
      </trkpt>
      <trkpt lat="42.73002" lon="1.9184">
        <ele>1292.8000488281</ele>
        <time>2014-01-18T09:57:45.000Z</time>
      </trkpt>
      <trkpt lat="42.73007" lon="1.91852">
        <ele>1294.8000488281</ele>
        <time>2014-01-18T09:57:52.000Z</time>
      </trkpt>
      <trkpt lat="42.73007" lon="1.91856">
        <ele>1294.8000488281</ele>
        <time>2014-01-18T09:57:55.000Z</time>
      </trkpt>
      <trkpt lat="42.73011" lon="1.91869">
        <ele>1296.1999511719</ele>
        <time>2014-01-18T09:58:03.000Z</time>
      </trkpt>
      <trkpt lat="42.73013" lon="1.9188">
        <ele>1296.8000488281</ele>
        <time>2014-01-18T09:58:10.000Z</time>
      </trkpt>
      <trkpt lat="42.73017" lon="1.91891">
        <ele>1297.8000488281</ele>
        <time>2014-01-18T09:58:17.000Z</time>
      </trkpt>
      <trkpt lat="42.73021" lon="1.91901">
        <ele>1298.5999755859</ele>
        <time>2014-01-18T09:58:25.000Z</time>
      </trkpt>
      <trkpt lat="42.73023" lon="1.91902">
        <ele>1299</ele>
        <time>2014-01-18T09:58:27.000Z</time>
      </trkpt>
      <trkpt lat="42.73034" lon="1.91915">
        <ele>1301</ele>
        <time>2014-01-18T09:58:42.000Z</time>
      </trkpt>
      <trkpt lat="42.73035" lon="1.91916">
        <ele>1301.1999511719</ele>
        <time>2014-01-18T09:58:43.000Z</time>
      </trkpt>
      <trkpt lat="42.73041" lon="1.91921">
        <ele>1302.4000244141</ele>
        <time>2014-01-18T09:58:50.000Z</time>
      </trkpt>
      <trkpt lat="42.73043" lon="1.91922">
        <ele>1302.8000488281</ele>
        <time>2014-01-18T09:58:52.000Z</time>
      </trkpt>
      <trkpt lat="42.73044" lon="1.91928">
        <ele>1303.1999511719</ele>
        <time>2014-01-18T09:58:58.000Z</time>
      </trkpt>
      <trkpt lat="42.73048" lon="1.91933">
        <ele>1303.5999755859</ele>
        <time>2014-01-18T09:59:05.000Z</time>
      </trkpt>
      <trkpt lat="42.7305" lon="1.91934">
        <ele>1304</ele>
        <time>2014-01-18T09:59:09.000Z</time>
      </trkpt>
      <trkpt lat="42.73057" lon="1.91944">
        <ele>1304.4000244141</ele>
        <time>2014-01-18T09:59:17.000Z</time>
      </trkpt>
      <trkpt lat="42.7306" lon="1.91952">
        <ele>1304.4000244141</ele>
        <time>2014-01-18T09:59:25.000Z</time>
      </trkpt>
      <trkpt lat="42.73065" lon="1.91964">
        <ele>1303.8000488281</ele>
        <time>2014-01-18T09:59:32.000Z</time>
      </trkpt>
      <trkpt lat="42.7307" lon="1.91973">
        <ele>1303</ele>
        <time>2014-01-18T09:59:38.000Z</time>
      </trkpt>
      <trkpt lat="42.73078" lon="1.91986">
        <ele>1301.4000244141</ele>
        <time>2014-01-18T09:59:47.000Z</time>
      </trkpt>
      <trkpt lat="42.7308" lon="1.9199">
        <ele>1300.8000488281</ele>
        <time>2014-01-18T09:59:51.000Z</time>
      </trkpt>
      <trkpt lat="42.73082" lon="1.91998">
        <ele>1299.4000244141</ele>
        <time>2014-01-18T09:59:57.000Z</time>
      </trkpt>
      <trkpt lat="42.73085" lon="1.92009">
        <ele>1300.1999511719</ele>
        <time>2014-01-18T10:00:04.000Z</time>
      </trkpt>
      <trkpt lat="42.73088" lon="1.92018">
        <ele>1301.8000488281</ele>
        <time>2014-01-18T10:00:11.000Z</time>
      </trkpt>
      <trkpt lat="42.7309" lon="1.92028">
        <ele>1303</ele>
        <time>2014-01-18T10:00:18.000Z</time>
      </trkpt>
      <trkpt lat="42.73091" lon="1.9203">
        <ele>1303.4000244141</ele>
        <time>2014-01-18T10:00:20.000Z</time>
      </trkpt>
      <trkpt lat="42.73093" lon="1.92036">
        <ele>1304.1999511719</ele>
        <time>2014-01-18T10:00:24.000Z</time>
      </trkpt>
      <trkpt lat="42.73095" lon="1.92043">
        <ele>1305.1999511719</ele>
        <time>2014-01-18T10:00:30.000Z</time>
      </trkpt>
      <trkpt lat="42.73098" lon="1.92053">
        <ele>1306.4000244141</ele>
        <time>2014-01-18T10:00:37.000Z</time>
      </trkpt>
      <trkpt lat="42.73102" lon="1.92063">
        <ele>1307.4000244141</ele>
        <time>2014-01-18T10:00:44.000Z</time>
      </trkpt>
      <trkpt lat="42.73106" lon="1.92075">
        <ele>1308.8000488281</ele>
        <time>2014-01-18T10:00:52.000Z</time>
      </trkpt>
      <trkpt lat="42.73113" lon="1.92086">
        <ele>1310.8000488281</ele>
        <time>2014-01-18T10:01:01.000Z</time>
      </trkpt>
      <trkpt lat="42.73118" lon="1.92094">
        <ele>1312.4000244141</ele>
        <time>2014-01-18T10:01:07.000Z</time>
      </trkpt>
      <trkpt lat="42.73118" lon="1.92094">
        <ele>1312.5999755859</ele>
        <time>2014-01-18T10:01:08.000Z</time>
      </trkpt>
      <trkpt lat="42.73118" lon="1.92095">
        <ele>1312.5999755859</ele>
        <time>2014-01-18T10:01:09.000Z</time>
      </trkpt>
      <trkpt lat="42.73122" lon="1.92102">
        <ele>1314</ele>
        <time>2014-01-18T10:01:15.000Z</time>
      </trkpt>
      <trkpt lat="42.73126" lon="1.92112">
        <ele>1315.1999511719</ele>
        <time>2014-01-18T10:01:22.000Z</time>
      </trkpt>
      <trkpt lat="42.73128" lon="1.92114">
        <ele>1315.5999755859</ele>
        <time>2014-01-18T10:01:28.000Z</time>
      </trkpt>
      <trkpt lat="42.73135" lon="1.92117">
        <ele>1316.5999755859</ele>
        <time>2014-01-18T10:02:13.000Z</time>
      </trkpt>
      <trkpt lat="42.73139" lon="1.92124">
        <ele>1317.1999511719</ele>
        <time>2014-01-18T10:02:19.000Z</time>
      </trkpt>
      <trkpt lat="42.73146" lon="1.92131">
        <ele>1317.8000488281</ele>
        <time>2014-01-18T10:02:27.000Z</time>
      </trkpt>
      <trkpt lat="42.73151" lon="1.92137">
        <ele>1318</ele>
        <time>2014-01-18T10:02:33.000Z</time>
      </trkpt>
      <trkpt lat="42.73155" lon="1.92142">
        <ele>1318</ele>
        <time>2014-01-18T10:02:38.000Z</time>
      </trkpt>
      <trkpt lat="42.73159" lon="1.92147">
        <ele>1317.5999755859</ele>
        <time>2014-01-18T10:02:43.000Z</time>
      </trkpt>
      <trkpt lat="42.73159" lon="1.92148">
        <ele>1317.5999755859</ele>
        <time>2014-01-18T10:02:44.000Z</time>
      </trkpt>
      <trkpt lat="42.73161" lon="1.9215">
        <ele>1317.5999755859</ele>
        <time>2014-01-18T10:02:47.000Z</time>
      </trkpt>
      <trkpt lat="42.73162" lon="1.92153">
        <ele>1317.4000244141</ele>
        <time>2014-01-18T10:02:49.000Z</time>
      </trkpt>
      <trkpt lat="42.73164" lon="1.92156">
        <ele>1317</ele>
        <time>2014-01-18T10:02:52.000Z</time>
      </trkpt>
      <trkpt lat="42.73164" lon="1.92159">
        <ele>1316.8000488281</ele>
        <time>2014-01-18T10:02:54.000Z</time>
      </trkpt>
      <trkpt lat="42.73167" lon="1.92166">
        <ele>1316.4000244141</ele>
        <time>2014-01-18T10:03:00.000Z</time>
      </trkpt>
      <trkpt lat="42.73172" lon="1.92177">
        <ele>1318.5999755859</ele>
        <time>2014-01-18T10:03:08.000Z</time>
      </trkpt>
      <trkpt lat="42.73173" lon="1.9218">
        <ele>1319.1999511719</ele>
        <time>2014-01-18T10:03:10.000Z</time>
      </trkpt>
      <trkpt lat="42.73175" lon="1.92184">
        <ele>1320.1999511719</ele>
        <time>2014-01-18T10:03:13.000Z</time>
      </trkpt>
      <trkpt lat="42.73176" lon="1.92192">
        <ele>1320.8000488281</ele>
        <time>2014-01-18T10:03:18.000Z</time>
      </trkpt>
      <trkpt lat="42.73177" lon="1.92195">
        <ele>1321.4000244141</ele>
        <time>2014-01-18T10:03:23.000Z</time>
      </trkpt>
      <trkpt lat="42.7318" lon="1.92201">
        <ele>1322.4000244141</ele>
        <time>2014-01-18T10:03:28.000Z</time>
      </trkpt>
      <trkpt lat="42.73182" lon="1.92205">
        <ele>1323.1999511719</ele>
        <time>2014-01-18T10:03:32.000Z</time>
      </trkpt>
      <trkpt lat="42.73183" lon="1.92207">
        <ele>1323.4000244141</ele>
        <time>2014-01-18T10:03:34.000Z</time>
      </trkpt>
      <trkpt lat="42.73188" lon="1.92218">
        <ele>1324.8000488281</ele>
        <time>2014-01-18T10:03:42.000Z</time>
      </trkpt>
      <trkpt lat="42.73189" lon="1.92222">
        <ele>1325</ele>
        <time>2014-01-18T10:03:45.000Z</time>
      </trkpt>
      <trkpt lat="42.73192" lon="1.92228">
        <ele>1325.8000488281</ele>
        <time>2014-01-18T10:03:50.000Z</time>
      </trkpt>
      <trkpt lat="42.73193" lon="1.9223">
        <ele>1326</ele>
        <time>2014-01-18T10:03:52.000Z</time>
      </trkpt>
      <trkpt lat="42.73196" lon="1.92234">
        <ele>1326.5999755859</ele>
        <time>2014-01-18T10:03:56.000Z</time>
      </trkpt>
      <trkpt lat="42.73198" lon="1.92236">
        <ele>1327</ele>
        <time>2014-01-18T10:03:59.000Z</time>
      </trkpt>
      <trkpt lat="42.73201" lon="1.92247">
        <ele>1327</ele>
        <time>2014-01-18T10:04:06.000Z</time>
      </trkpt>
      <trkpt lat="42.73206" lon="1.9226">
        <ele>1328.8000488281</ele>
        <time>2014-01-18T10:04:15.000Z</time>
      </trkpt>
      <trkpt lat="42.73207" lon="1.92262">
        <ele>1329</ele>
        <time>2014-01-18T10:04:16.000Z</time>
      </trkpt>
      <trkpt lat="42.73213" lon="1.92272">
        <ele>1330.5999755859</ele>
        <time>2014-01-18T10:04:23.000Z</time>
      </trkpt>
      <trkpt lat="42.73219" lon="1.92281">
        <ele>1331.4000244141</ele>
        <time>2014-01-18T10:04:28.000Z</time>
      </trkpt>
      <trkpt lat="42.73226" lon="1.92291">
        <ele>1331.8000488281</ele>
        <time>2014-01-18T10:04:34.000Z</time>
      </trkpt>
      <trkpt lat="42.7323" lon="1.92297">
        <ele>1331.5999755859</ele>
        <time>2014-01-18T10:04:37.000Z</time>
      </trkpt>
      <trkpt lat="42.73239" lon="1.9231">
        <ele>1330.5999755859</ele>
        <time>2014-01-18T10:04:44.000Z</time>
      </trkpt>
      <trkpt lat="42.7325" lon="1.92323">
        <ele>1328.4000244141</ele>
        <time>2014-01-18T10:04:53.000Z</time>
      </trkpt>
      <trkpt lat="42.73262" lon="1.92329">
        <ele>1330.8000488281</ele>
        <time>2014-01-18T10:05:02.000Z</time>
      </trkpt>
      <trkpt lat="42.73273" lon="1.92333">
        <ele>1333</ele>
        <time>2014-01-18T10:05:10.000Z</time>
      </trkpt>
      <trkpt lat="42.73282" lon="1.92338">
        <ele>1335.5999755859</ele>
        <time>2014-01-18T10:05:17.000Z</time>
      </trkpt>
      <trkpt lat="42.73287" lon="1.92342">
        <ele>1336.8000488281</ele>
        <time>2014-01-18T10:05:21.000Z</time>
      </trkpt>
      <trkpt lat="42.73289" lon="1.92342">
        <ele>1337.1999511719</ele>
        <time>2014-01-18T10:05:23.000Z</time>
      </trkpt>
      <trkpt lat="42.73295" lon="1.92345">
        <ele>1338.8000488281</ele>
        <time>2014-01-18T10:05:30.000Z</time>
      </trkpt>
      <trkpt lat="42.73299" lon="1.92347">
        <ele>1339.4000244141</ele>
        <time>2014-01-18T10:05:34.000Z</time>
      </trkpt>
      <trkpt lat="42.73303" lon="1.92351">
        <ele>1340.1999511719</ele>
        <time>2014-01-18T10:05:39.000Z</time>
      </trkpt>
      <trkpt lat="42.73304" lon="1.92351">
        <ele>1340.1999511719</ele>
        <time>2014-01-18T10:05:40.000Z</time>
      </trkpt>
      <trkpt lat="42.7331" lon="1.92356">
        <ele>1341</ele>
        <time>2014-01-18T10:05:46.000Z</time>
      </trkpt>
      <trkpt lat="42.73315" lon="1.92363">
        <ele>1341.1999511719</ele>
        <time>2014-01-18T10:05:52.000Z</time>
      </trkpt>
      <trkpt lat="42.73321" lon="1.92371">
        <ele>1341</ele>
        <time>2014-01-18T10:05:58.000Z</time>
      </trkpt>
      <trkpt lat="42.73331" lon="1.92382">
        <ele>1339.8000488281</ele>
        <time>2014-01-18T10:06:08.000Z</time>
      </trkpt>
      <trkpt lat="42.73338" lon="1.92389">
        <ele>1339.8000488281</ele>
        <time>2014-01-18T10:06:14.000Z</time>
      </trkpt>
      <trkpt lat="42.73343" lon="1.92398">
        <ele>1339.4000244141</ele>
        <time>2014-01-18T10:06:20.000Z</time>
      </trkpt>
      <trkpt lat="42.73346" lon="1.92411">
        <ele>1337.5999755859</ele>
        <time>2014-01-18T10:06:29.000Z</time>
      </trkpt>
      <trkpt lat="42.73349" lon="1.92421">
        <ele>1337.8000488281</ele>
        <time>2014-01-18T10:06:36.000Z</time>
      </trkpt>
      <trkpt lat="42.73351" lon="1.92424">
        <ele>1338.5999755859</ele>
        <time>2014-01-18T10:06:39.000Z</time>
      </trkpt>
      <trkpt lat="42.73354" lon="1.92432">
        <ele>1340.5999755859</ele>
        <time>2014-01-18T10:06:46.000Z</time>
      </trkpt>
      <trkpt lat="42.73357" lon="1.92443">
        <ele>1343</ele>
        <time>2014-01-18T10:06:53.000Z</time>
      </trkpt>
      <trkpt lat="42.73359" lon="1.92458">
        <ele>1345.5999755859</ele>
        <time>2014-01-18T10:07:03.000Z</time>
      </trkpt>
      <trkpt lat="42.73363" lon="1.9247">
        <ele>1347.5999755859</ele>
        <time>2014-01-18T10:07:11.000Z</time>
      </trkpt>
      <trkpt lat="42.73364" lon="1.92481">
        <ele>1349.4000244141</ele>
        <time>2014-01-18T10:07:18.000Z</time>
      </trkpt>
      <trkpt lat="42.73366" lon="1.92492">
        <ele>1350.8000488281</ele>
        <time>2014-01-18T10:07:25.000Z</time>
      </trkpt>
      <trkpt lat="42.73368" lon="1.925">
        <ele>1352</ele>
        <time>2014-01-18T10:07:31.000Z</time>
      </trkpt>
      <trkpt lat="42.73371" lon="1.92508">
        <ele>1353.4000244141</ele>
        <time>2014-01-18T10:07:37.000Z</time>
      </trkpt>
      <trkpt lat="42.73374" lon="1.92518">
        <ele>1355.1999511719</ele>
        <time>2014-01-18T10:07:44.000Z</time>
      </trkpt>
      <trkpt lat="42.73375" lon="1.92522">
        <ele>1356</ele>
        <time>2014-01-18T10:07:47.000Z</time>
      </trkpt>
      <trkpt lat="42.73377" lon="1.92528">
        <ele>1357</ele>
        <time>2014-01-18T10:07:52.000Z</time>
      </trkpt>
      <trkpt lat="42.73379" lon="1.92532">
        <ele>1357.5999755859</ele>
        <time>2014-01-18T10:07:54.000Z</time>
      </trkpt>
      <trkpt lat="42.7338" lon="1.92539">
        <ele>1358.5999755859</ele>
        <time>2014-01-18T10:07:59.000Z</time>
      </trkpt>
      <trkpt lat="42.73383" lon="1.92548">
        <ele>1360</ele>
        <time>2014-01-18T10:08:06.000Z</time>
      </trkpt>
      <trkpt lat="42.73386" lon="1.92556">
        <ele>1361</ele>
        <time>2014-01-18T10:08:13.000Z</time>
      </trkpt>
      <trkpt lat="42.7339" lon="1.92563">
        <ele>1361.5999755859</ele>
        <time>2014-01-18T10:08:19.000Z</time>
      </trkpt>
      <trkpt lat="42.73393" lon="1.92571">
        <ele>1362.4000244141</ele>
        <time>2014-01-18T10:08:25.000Z</time>
      </trkpt>
      <trkpt lat="42.73396" lon="1.92577">
        <ele>1362.8000488281</ele>
        <time>2014-01-18T10:08:31.000Z</time>
      </trkpt>
      <trkpt lat="42.734" lon="1.92586">
        <ele>1363.4000244141</ele>
        <time>2014-01-18T10:08:39.000Z</time>
      </trkpt>
      <trkpt lat="42.73406" lon="1.92594">
        <ele>1364.4000244141</ele>
        <time>2014-01-18T10:08:47.000Z</time>
      </trkpt>
      <trkpt lat="42.73408" lon="1.92595">
        <ele>1364.4000244141</ele>
        <time>2014-01-18T10:08:49.000Z</time>
      </trkpt>
      <trkpt lat="42.7341" lon="1.92599">
        <ele>1365</ele>
        <time>2014-01-18T10:08:53.000Z</time>
      </trkpt>
      <trkpt lat="42.73415" lon="1.92605">
        <ele>1365.5999755859</ele>
        <time>2014-01-18T10:09:00.000Z</time>
      </trkpt>
      <trkpt lat="42.73418" lon="1.92609">
        <ele>1366.1999511719</ele>
        <time>2014-01-18T10:09:04.000Z</time>
      </trkpt>
      <trkpt lat="42.73421" lon="1.9261">
        <ele>1367</ele>
        <time>2014-01-18T10:09:07.000Z</time>
      </trkpt>
      <trkpt lat="42.73426" lon="1.92614">
        <ele>1368.4000244141</ele>
        <time>2014-01-18T10:09:14.000Z</time>
      </trkpt>
      <trkpt lat="42.73426" lon="1.92615">
        <ele>1368.5999755859</ele>
        <time>2014-01-18T10:09:15.000Z</time>
      </trkpt>
      <trkpt lat="42.73432" lon="1.92617">
        <ele>1369.8000488281</ele>
        <time>2014-01-18T10:09:21.000Z</time>
      </trkpt>
      <trkpt lat="42.7344" lon="1.92618">
        <ele>1370.8000488281</ele>
        <time>2014-01-18T10:09:30.000Z</time>
      </trkpt>
      <trkpt lat="42.73445" lon="1.92616">
        <ele>1371</ele>
        <time>2014-01-18T10:09:35.000Z</time>
      </trkpt>
      <trkpt lat="42.73448" lon="1.92615">
        <ele>1371.1999511719</ele>
        <time>2014-01-18T10:09:38.000Z</time>
      </trkpt>
      <trkpt lat="42.73451" lon="1.92613">
        <ele>1371.1999511719</ele>
        <time>2014-01-18T10:09:43.000Z</time>
      </trkpt>
      <trkpt lat="42.73456" lon="1.92612">
        <ele>1371.4000244141</ele>
        <time>2014-01-18T10:09:48.000Z</time>
      </trkpt>
      <trkpt lat="42.73459" lon="1.92611">
        <ele>1371.5999755859</ele>
        <time>2014-01-18T10:09:52.000Z</time>
      </trkpt>
      <trkpt lat="42.73467" lon="1.92608">
        <ele>1372.4000244141</ele>
        <time>2014-01-18T10:09:59.000Z</time>
      </trkpt>
      <trkpt lat="42.73474" lon="1.92608">
        <ele>1373.1999511719</ele>
        <time>2014-01-18T10:10:05.000Z</time>
      </trkpt>
      <trkpt lat="42.7348" lon="1.9261">
        <ele>1374.1999511719</ele>
        <time>2014-01-18T10:10:11.000Z</time>
      </trkpt>
      <trkpt lat="42.73485" lon="1.92613">
        <ele>1375</ele>
        <time>2014-01-18T10:10:16.000Z</time>
      </trkpt>
      <trkpt lat="42.73491" lon="1.92616">
        <ele>1375.5999755859</ele>
        <time>2014-01-18T10:10:21.000Z</time>
      </trkpt>
      <trkpt lat="42.735" lon="1.92623">
        <ele>1376.5999755859</ele>
        <time>2014-01-18T10:10:32.000Z</time>
      </trkpt>
      <trkpt lat="42.73504" lon="1.92626">
        <ele>1377.8000488281</ele>
        <time>2014-01-18T10:10:37.000Z</time>
      </trkpt>
      <trkpt lat="42.73509" lon="1.92628">
        <ele>1379</ele>
        <time>2014-01-18T10:10:41.000Z</time>
      </trkpt>
      <trkpt lat="42.73516" lon="1.92633">
        <ele>1380.8000488281</ele>
        <time>2014-01-18T10:10:48.000Z</time>
      </trkpt>
      <trkpt lat="42.73517" lon="1.92634">
        <ele>1381.1999511719</ele>
        <time>2014-01-18T10:10:50.000Z</time>
      </trkpt>
      <trkpt lat="42.73521" lon="1.92639">
        <ele>1382</ele>
        <time>2014-01-18T10:10:55.000Z</time>
      </trkpt>
      <trkpt lat="42.73523" lon="1.9264">
        <ele>1382.1999511719</ele>
        <time>2014-01-18T10:10:57.000Z</time>
      </trkpt>
      <trkpt lat="42.73524" lon="1.92646">
        <ele>1382</ele>
        <time>2014-01-18T10:11:03.000Z</time>
      </trkpt>
      <trkpt lat="42.73523" lon="1.92648">
        <ele>1382</ele>
        <time>2014-01-18T10:11:04.000Z</time>
      </trkpt>
      <trkpt lat="42.73517" lon="1.92649">
        <ele>1380.4000244141</ele>
        <time>2014-01-18T10:11:12.000Z</time>
      </trkpt>
      <trkpt lat="42.73514" lon="1.92647">
        <ele>1379.5999755859</ele>
        <time>2014-01-18T10:11:16.000Z</time>
      </trkpt>
      <trkpt lat="42.7351" lon="1.92645">
        <ele>1378.8000488281</ele>
        <time>2014-01-18T10:11:20.000Z</time>
      </trkpt>
      <trkpt lat="42.73505" lon="1.92643">
        <ele>1377.5999755859</ele>
        <time>2014-01-18T10:11:25.000Z</time>
      </trkpt>
      <trkpt lat="42.73505" lon="1.92642">
        <ele>1377.5999755859</ele>
        <time>2014-01-18T10:11:28.000Z</time>
      </trkpt>
      <trkpt lat="42.73501" lon="1.92642">
        <ele>1376.5999755859</ele>
        <time>2014-01-18T10:11:44.000Z</time>
      </trkpt>
      <trkpt lat="42.73497" lon="1.92642">
        <ele>1376.1999511719</ele>
        <time>2014-01-18T10:11:50.000Z</time>
      </trkpt>
      <trkpt lat="42.73491" lon="1.92645">
        <ele>1376.1999511719</ele>
        <time>2014-01-18T10:11:57.000Z</time>
      </trkpt>
      <trkpt lat="42.73488" lon="1.92648">
        <ele>1376.4000244141</ele>
        <time>2014-01-18T10:12:01.000Z</time>
      </trkpt>
      <trkpt lat="42.73485" lon="1.9265">
        <ele>1376.4000244141</ele>
        <time>2014-01-18T10:12:08.000Z</time>
      </trkpt>
      <trkpt lat="42.73485" lon="1.9265">
        <ele>1376.4000244141</ele>
        <time>2014-01-18T10:12:13.000Z</time>
      </trkpt>
      <trkpt lat="42.73493" lon="1.92647">
        <ele>1376.1999511719</ele>
        <time>2014-01-18T10:12:22.000Z</time>
      </trkpt>
      <trkpt lat="42.73498" lon="1.92648">
        <ele>1376.1999511719</ele>
        <time>2014-01-18T10:12:28.000Z</time>
      </trkpt>
      <trkpt lat="42.73502" lon="1.92648">
        <ele>1376.5999755859</ele>
        <time>2014-01-18T10:12:35.000Z</time>
      </trkpt>
      <trkpt lat="42.73497" lon="1.92646">
        <ele>1376.1999511719</ele>
        <time>2014-01-18T10:12:50.000Z</time>
      </trkpt>
      <trkpt lat="42.73493" lon="1.92646">
        <ele>1376.1999511719</ele>
        <time>2014-01-18T10:12:54.000Z</time>
      </trkpt>
      <trkpt lat="42.73489" lon="1.92648">
        <ele>1376.4000244141</ele>
        <time>2014-01-18T10:12:58.000Z</time>
      </trkpt>
      <trkpt lat="42.73484" lon="1.92651">
        <ele>1376.4000244141</ele>
        <time>2014-01-18T10:13:04.000Z</time>
      </trkpt>
      <trkpt lat="42.73482" lon="1.92653">
        <ele>1376.5999755859</ele>
        <time>2014-01-18T10:13:08.000Z</time>
      </trkpt>
      <trkpt lat="42.73478" lon="1.92658">
        <ele>1377</ele>
        <time>2014-01-18T10:13:15.000Z</time>
      </trkpt>
      <trkpt lat="42.73476" lon="1.9266">
        <ele>1377.1999511719</ele>
        <time>2014-01-18T10:13:22.000Z</time>
      </trkpt>
      <trkpt lat="42.73472" lon="1.92663">
        <ele>1377.8000488281</ele>
        <time>2014-01-18T10:13:30.000Z</time>
      </trkpt>
      <trkpt lat="42.73466" lon="1.92665">
        <ele>1378.4000244141</ele>
        <time>2014-01-18T10:13:38.000Z</time>
      </trkpt>
      <trkpt lat="42.73465" lon="1.92666">
        <ele>1378.4000244141</ele>
        <time>2014-01-18T10:13:44.000Z</time>
      </trkpt>
      <trkpt lat="42.73465" lon="1.92666">
        <ele>1378.5999755859</ele>
        <time>2014-01-18T10:13:47.000Z</time>
      </trkpt>
      <trkpt lat="42.73465" lon="1.92671">
        <ele>1380</ele>
        <time>2014-01-18T10:13:51.000Z</time>
      </trkpt>
      <trkpt lat="42.73459" lon="1.9267">
        <ele>1380</ele>
        <time>2014-01-18T10:14:08.000Z</time>
      </trkpt>
      <trkpt lat="42.73455" lon="1.92671">
        <ele>1380.8000488281</ele>
        <time>2014-01-18T10:14:15.000Z</time>
      </trkpt>
      <trkpt lat="42.73451" lon="1.92671">
        <ele>1381.4000244141</ele>
        <time>2014-01-18T10:14:26.000Z</time>
      </trkpt>
      <trkpt lat="42.73447" lon="1.92672">
        <ele>1382</ele>
        <time>2014-01-18T10:14:32.000Z</time>
      </trkpt>
      <trkpt lat="42.73442" lon="1.92672">
        <ele>1382.4000244141</ele>
        <time>2014-01-18T10:14:39.000Z</time>
      </trkpt>
      <trkpt lat="42.73445" lon="1.92672">
        <ele>1382</ele>
        <time>2014-01-18T10:14:49.000Z</time>
      </trkpt>
      <trkpt lat="42.73452" lon="1.92668">
        <ele>1380</ele>
        <time>2014-01-18T10:14:56.000Z</time>
      </trkpt>
      <trkpt lat="42.73453" lon="1.92667">
        <ele>1379.5999755859</ele>
        <time>2014-01-18T10:14:57.000Z</time>
      </trkpt>
      <trkpt lat="42.73454" lon="1.92666">
        <ele>1379.1999511719</ele>
        <time>2014-01-18T10:15:00.000Z</time>
      </trkpt>
      <trkpt lat="42.73456" lon="1.92666">
        <ele>1379</ele>
        <time>2014-01-18T10:15:02.000Z</time>
      </trkpt>
      <trkpt lat="42.73457" lon="1.92666">
        <ele>1379</ele>
        <time>2014-01-18T10:15:09.000Z</time>
      </trkpt>
      <trkpt lat="42.73453" lon="1.9266">
        <ele>1378.4000244141</ele>
        <time>2014-01-18T10:17:12.000Z</time>
      </trkpt>
      <trkpt lat="42.73446" lon="1.92663">
        <ele>1379.1999511719</ele>
        <time>2014-01-18T10:17:18.000Z</time>
      </trkpt>
      <trkpt lat="42.73441" lon="1.92664">
        <ele>1379.5999755859</ele>
        <time>2014-01-18T10:17:23.000Z</time>
      </trkpt>
      <trkpt lat="42.73434" lon="1.92665">
        <ele>1380.4000244141</ele>
        <time>2014-01-18T10:17:31.000Z</time>
      </trkpt>
      <trkpt lat="42.73433" lon="1.92666">
        <ele>1380.5999755859</ele>
        <time>2014-01-18T10:17:33.000Z</time>
      </trkpt>
      <trkpt lat="42.73426" lon="1.92666">
        <ele>1381.1999511719</ele>
        <time>2014-01-18T10:17:41.000Z</time>
      </trkpt>
      <trkpt lat="42.73419" lon="1.92667">
        <ele>1381.8000488281</ele>
        <time>2014-01-18T10:17:48.000Z</time>
      </trkpt>
      <trkpt lat="42.73412" lon="1.92668">
        <ele>1384</ele>
        <time>2014-01-18T10:17:56.000Z</time>
      </trkpt>
      <trkpt lat="42.73407" lon="1.92667">
        <ele>1385.1999511719</ele>
        <time>2014-01-18T10:18:01.000Z</time>
      </trkpt>
      <trkpt lat="42.73403" lon="1.92666">
        <ele>1386.1999511719</ele>
        <time>2014-01-18T10:18:06.000Z</time>
      </trkpt>
      <trkpt lat="42.73397" lon="1.92665">
        <ele>1387.5999755859</ele>
        <time>2014-01-18T10:18:13.000Z</time>
      </trkpt>
      <trkpt lat="42.73397" lon="1.92665">
        <ele>1387.5999755859</ele>
        <time>2014-01-18T10:18:14.000Z</time>
      </trkpt>
      <trkpt lat="42.73392" lon="1.92662">
        <ele>1388.1999511719</ele>
        <time>2014-01-18T10:18:21.000Z</time>
      </trkpt>
      <trkpt lat="42.73388" lon="1.92658">
        <ele>1388.5999755859</ele>
        <time>2014-01-18T10:18:29.000Z</time>
      </trkpt>
      <trkpt lat="42.73383" lon="1.92655">
        <ele>1389</ele>
        <time>2014-01-18T10:18:35.000Z</time>
      </trkpt>
      <trkpt lat="42.7338" lon="1.92654">
        <ele>1389.4000244141</ele>
        <time>2014-01-18T10:18:38.000Z</time>
      </trkpt>
      <trkpt lat="42.73376" lon="1.92651">
        <ele>1389.5999755859</ele>
        <time>2014-01-18T10:18:43.000Z</time>
      </trkpt>
      <trkpt lat="42.7337" lon="1.92648">
        <ele>1390.5999755859</ele>
        <time>2014-01-18T10:18:51.000Z</time>
      </trkpt>
      <trkpt lat="42.73363" lon="1.92645">
        <ele>1391.4000244141</ele>
        <time>2014-01-18T10:18:58.000Z</time>
      </trkpt>
      <trkpt lat="42.73356" lon="1.92642">
        <ele>1392.4000244141</ele>
        <time>2014-01-18T10:19:06.000Z</time>
      </trkpt>
      <trkpt lat="42.73352" lon="1.92638">
        <ele>1392.4000244141</ele>
        <time>2014-01-18T10:19:12.000Z</time>
      </trkpt>
      <trkpt lat="42.7335" lon="1.92634">
        <ele>1391.8000488281</ele>
        <time>2014-01-18T10:19:17.000Z</time>
      </trkpt>
      <trkpt lat="42.73345" lon="1.92624">
        <ele>1389.5999755859</ele>
        <time>2014-01-18T10:19:26.000Z</time>
      </trkpt>
      <trkpt lat="42.73341" lon="1.92614">
        <ele>1387.1999511719</ele>
        <time>2014-01-18T10:19:35.000Z</time>
      </trkpt>
      <trkpt lat="42.7334" lon="1.92611">
        <ele>1386.1999511719</ele>
        <time>2014-01-18T10:19:42.000Z</time>
      </trkpt>
      <trkpt lat="42.7334" lon="1.9261">
        <ele>1385.8000488281</ele>
        <time>2014-01-18T10:21:51.000Z</time>
      </trkpt>
      <trkpt lat="42.73342" lon="1.92605">
        <ele>1383.4000244141</ele>
        <time>2014-01-18T10:23:46.000Z</time>
      </trkpt>
      <trkpt lat="42.73342" lon="1.926">
        <ele>1381.8000488281</ele>
        <time>2014-01-18T10:23:51.000Z</time>
      </trkpt>
      <trkpt lat="42.73338" lon="1.92614">
        <ele>1387.5999755859</ele>
        <time>2014-01-18T10:25:54.000Z</time>
      </trkpt>
      <trkpt lat="42.73335" lon="1.92622">
        <ele>1391.4000244141</ele>
        <time>2014-01-18T10:26:22.000Z</time>
      </trkpt>
      <trkpt lat="42.73334" lon="1.92623">
        <ele>1392</ele>
        <time>2014-01-18T10:26:25.000Z</time>
      </trkpt>
      <trkpt lat="42.73332" lon="1.9262">
        <ele>1392</ele>
        <time>2014-01-18T10:26:33.000Z</time>
      </trkpt>
      <trkpt lat="42.73338" lon="1.92614">
        <ele>1387.8000488281</ele>
        <time>2014-01-18T10:27:13.000Z</time>
      </trkpt>
      <trkpt lat="42.73335" lon="1.92614">
        <ele>1388.5999755859</ele>
        <time>2014-01-18T10:27:19.000Z</time>
      </trkpt>
      <trkpt lat="42.73338" lon="1.92609">
        <ele>1386.1999511719</ele>
        <time>2014-01-18T10:27:40.000Z</time>
      </trkpt>
      <trkpt lat="42.73337" lon="1.92604">
        <ele>1384.4000244141</ele>
        <time>2014-01-18T10:28:49.000Z</time>
      </trkpt>
      <trkpt lat="42.73337" lon="1.92605">
        <ele>1385</ele>
        <time>2014-01-18T10:29:02.000Z</time>
      </trkpt>
      <trkpt lat="42.73337" lon="1.92604">
        <ele>1384.4000244141</ele>
        <time>2014-01-18T10:29:08.000Z</time>
      </trkpt>
      <trkpt lat="42.73335" lon="1.92606">
        <ele>1385.5999755859</ele>
        <time>2014-01-18T10:29:27.000Z</time>
      </trkpt>
      <trkpt lat="42.73332" lon="1.92603">
        <ele>1385.5999755859</ele>
        <time>2014-01-18T10:29:35.000Z</time>
      </trkpt>
      <trkpt lat="42.7333" lon="1.926">
        <ele>1385.5999755859</ele>
        <time>2014-01-18T10:29:41.000Z</time>
      </trkpt>
      <trkpt lat="42.73327" lon="1.92597">
        <ele>1385.5999755859</ele>
        <time>2014-01-18T10:29:53.000Z</time>
      </trkpt>
      <trkpt lat="42.73325" lon="1.92595">
        <ele>1386</ele>
        <time>2014-01-18T10:29:59.000Z</time>
      </trkpt>
      <trkpt lat="42.73322" lon="1.92592">
        <ele>1386.1999511719</ele>
        <time>2014-01-18T10:30:02.000Z</time>
      </trkpt>
      <trkpt lat="42.73318" lon="1.92588">
        <ele>1386.4000244141</ele>
        <time>2014-01-18T10:30:08.000Z</time>
      </trkpt>
      <trkpt lat="42.73314" lon="1.92583">
        <ele>1386.4000244141</ele>
        <time>2014-01-18T10:30:17.000Z</time>
      </trkpt>
      <trkpt lat="42.73311" lon="1.9258">
        <ele>1386.8000488281</ele>
        <time>2014-01-18T10:30:22.000Z</time>
      </trkpt>
      <trkpt lat="42.7331" lon="1.92579">
        <ele>1386.8000488281</ele>
        <time>2014-01-18T10:30:30.000Z</time>
      </trkpt>
      <trkpt lat="42.7331" lon="1.92577">
        <ele>1386.5999755859</ele>
        <time>2014-01-18T10:30:37.000Z</time>
      </trkpt>
      <trkpt lat="42.7331" lon="1.92573">
        <ele>1385.1999511719</ele>
        <time>2014-01-18T10:31:46.000Z</time>
      </trkpt>
      <trkpt lat="42.73306" lon="1.92569">
        <ele>1385.5999755859</ele>
        <time>2014-01-18T10:32:16.000Z</time>
      </trkpt>
      <trkpt lat="42.73301" lon="1.92564">
        <ele>1386</ele>
        <time>2014-01-18T10:32:24.000Z</time>
      </trkpt>
      <trkpt lat="42.73295" lon="1.92558">
        <ele>1386.4000244141</ele>
        <time>2014-01-18T10:32:31.000Z</time>
      </trkpt>
      <trkpt lat="42.73292" lon="1.92555">
        <ele>1386.5999755859</ele>
        <time>2014-01-18T10:32:39.000Z</time>
      </trkpt>
      <trkpt lat="42.73292" lon="1.92555">
        <ele>1387</ele>
        <time>2014-01-18T10:32:44.000Z</time>
      </trkpt>
      <trkpt lat="42.73285" lon="1.92552">
        <ele>1388.4000244141</ele>
        <time>2014-01-18T10:32:51.000Z</time>
      </trkpt>
      <trkpt lat="42.73277" lon="1.92547">
        <ele>1389.8000488281</ele>
        <time>2014-01-18T10:32:59.000Z</time>
      </trkpt>
      <trkpt lat="42.73275" lon="1.92546">
        <ele>1390.4000244141</ele>
        <time>2014-01-18T10:33:01.000Z</time>
      </trkpt>
      <trkpt lat="42.73269" lon="1.92543">
        <ele>1391.4000244141</ele>
        <time>2014-01-18T10:33:07.000Z</time>
      </trkpt>
      <trkpt lat="42.73261" lon="1.92539">
        <ele>1393.1999511719</ele>
        <time>2014-01-18T10:33:15.000Z</time>
      </trkpt>
      <trkpt lat="42.7326" lon="1.92539">
        <ele>1393.5999755859</ele>
        <time>2014-01-18T10:33:17.000Z</time>
      </trkpt>
      <trkpt lat="42.73254" lon="1.92537">
        <ele>1395</ele>
        <time>2014-01-18T10:33:23.000Z</time>
      </trkpt>
      <trkpt lat="42.73247" lon="1.92534">
        <ele>1396.4000244141</ele>
        <time>2014-01-18T10:33:30.000Z</time>
      </trkpt>
      <trkpt lat="42.73243" lon="1.92534">
        <ele>1397.4000244141</ele>
        <time>2014-01-18T10:33:34.000Z</time>
      </trkpt>
      <trkpt lat="42.73239" lon="1.92532">
        <ele>1397.8000488281</ele>
        <time>2014-01-18T10:33:39.000Z</time>
      </trkpt>
      <trkpt lat="42.73233" lon="1.92529">
        <ele>1398.1999511719</ele>
        <time>2014-01-18T10:33:46.000Z</time>
      </trkpt>
      <trkpt lat="42.73228" lon="1.92526">
        <ele>1398.1999511719</ele>
        <time>2014-01-18T10:33:56.000Z</time>
      </trkpt>
      <trkpt lat="42.73222" lon="1.92524">
        <ele>1398.8000488281</ele>
        <time>2014-01-18T10:34:02.000Z</time>
      </trkpt>
      <trkpt lat="42.73216" lon="1.9252">
        <ele>1398.5999755859</ele>
        <time>2014-01-18T10:34:07.000Z</time>
      </trkpt>
      <trkpt lat="42.73208" lon="1.92515">
        <ele>1399</ele>
        <time>2014-01-18T10:34:14.000Z</time>
      </trkpt>
      <trkpt lat="42.73201" lon="1.92512">
        <ele>1399.1999511719</ele>
        <time>2014-01-18T10:34:21.000Z</time>
      </trkpt>
      <trkpt lat="42.73194" lon="1.92508">
        <ele>1399.1999511719</ele>
        <time>2014-01-18T10:34:28.000Z</time>
      </trkpt>
      <trkpt lat="42.73187" lon="1.92506">
        <ele>1399.8000488281</ele>
        <time>2014-01-18T10:34:34.000Z</time>
      </trkpt>
      <trkpt lat="42.73179" lon="1.92505">
        <ele>1401.5999755859</ele>
        <time>2014-01-18T10:34:42.000Z</time>
      </trkpt>
      <trkpt lat="42.73173" lon="1.92507">
        <ele>1404</ele>
        <time>2014-01-18T10:34:49.000Z</time>
      </trkpt>
      <trkpt lat="42.73167" lon="1.9251">
        <ele>1406.8000488281</ele>
        <time>2014-01-18T10:34:56.000Z</time>
      </trkpt>
      <trkpt lat="42.73162" lon="1.92512">
        <ele>1409.5999755859</ele>
        <time>2014-01-18T10:35:02.000Z</time>
      </trkpt>
      <trkpt lat="42.73155" lon="1.92514">
        <ele>1412.8000488281</ele>
        <time>2014-01-18T10:35:09.000Z</time>
      </trkpt>
      <trkpt lat="42.73154" lon="1.92514">
        <ele>1413</ele>
        <time>2014-01-18T10:35:10.000Z</time>
      </trkpt>
      <trkpt lat="42.73151" lon="1.92513">
        <ele>1413.8000488281</ele>
        <time>2014-01-18T10:35:13.000Z</time>
      </trkpt>
      <trkpt lat="42.73143" lon="1.92511">
        <ele>1415.4000244141</ele>
        <time>2014-01-18T10:35:20.000Z</time>
      </trkpt>
      <trkpt lat="42.73142" lon="1.92511">
        <ele>1415.4000244141</ele>
        <time>2014-01-18T10:35:21.000Z</time>
      </trkpt>
      <trkpt lat="42.73138" lon="1.92509">
        <ele>1416.1999511719</ele>
        <time>2014-01-18T10:35:25.000Z</time>
      </trkpt>
      <trkpt lat="42.73132" lon="1.92505">
        <ele>1416.4000244141</ele>
        <time>2014-01-18T10:35:32.000Z</time>
      </trkpt>
      <trkpt lat="42.73131" lon="1.92504">
        <ele>1416.4000244141</ele>
        <time>2014-01-18T10:35:34.000Z</time>
      </trkpt>
      <trkpt lat="42.73128" lon="1.92504">
        <ele>1417</ele>
        <time>2014-01-18T10:35:40.000Z</time>
      </trkpt>
      <trkpt lat="42.73126" lon="1.92501">
        <ele>1416.5999755859</ele>
        <time>2014-01-18T10:35:46.000Z</time>
      </trkpt>
      <trkpt lat="42.73122" lon="1.92499">
        <ele>1417.4000244141</ele>
        <time>2014-01-18T10:35:52.000Z</time>
      </trkpt>
      <trkpt lat="42.73117" lon="1.92498">
        <ele>1418.1999511719</ele>
        <time>2014-01-18T10:35:57.000Z</time>
      </trkpt>
      <trkpt lat="42.73112" lon="1.92493">
        <ele>1418.4000244141</ele>
        <time>2014-01-18T10:36:04.000Z</time>
      </trkpt>
      <trkpt lat="42.73109" lon="1.92491">
        <ele>1418.8000488281</ele>
        <time>2014-01-18T10:36:07.000Z</time>
      </trkpt>
      <trkpt lat="42.73098" lon="1.92486">
        <ele>1421</ele>
        <time>2014-01-18T10:36:21.000Z</time>
      </trkpt>
      <trkpt lat="42.73094" lon="1.9248">
        <ele>1420.5999755859</ele>
        <time>2014-01-18T10:36:28.000Z</time>
      </trkpt>
      <trkpt lat="42.73092" lon="1.92477">
        <ele>1420</ele>
        <time>2014-01-18T10:36:34.000Z</time>
      </trkpt>
      <trkpt lat="42.73092" lon="1.92468">
        <ele>1417.1999511719</ele>
        <time>2014-01-18T10:37:07.000Z</time>
      </trkpt>
      <trkpt lat="42.73092" lon="1.92466">
        <ele>1416.5999755859</ele>
        <time>2014-01-18T10:37:08.000Z</time>
      </trkpt>
      <trkpt lat="42.7309" lon="1.92457">
        <ele>1413.8000488281</ele>
        <time>2014-01-18T10:37:14.000Z</time>
      </trkpt>
      <trkpt lat="42.73088" lon="1.92449">
        <ele>1412.1999511719</ele>
        <time>2014-01-18T10:37:19.000Z</time>
      </trkpt>
      <trkpt lat="42.73083" lon="1.9244">
        <ele>1411</ele>
        <time>2014-01-18T10:37:26.000Z</time>
      </trkpt>
      <trkpt lat="42.73077" lon="1.92437">
        <ele>1412.4000244141</ele>
        <time>2014-01-18T10:37:30.000Z</time>
      </trkpt>
      <trkpt lat="42.73071" lon="1.9243">
        <ele>1412.4000244141</ele>
        <time>2014-01-18T10:37:37.000Z</time>
      </trkpt>
      <trkpt lat="42.73066" lon="1.92425">
        <ele>1413</ele>
        <time>2014-01-18T10:37:43.000Z</time>
      </trkpt>
      <trkpt lat="42.73059" lon="1.92421">
        <ele>1414.1999511719</ele>
        <time>2014-01-18T10:37:50.000Z</time>
      </trkpt>
      <trkpt lat="42.73054" lon="1.92415">
        <ele>1414.5999755859</ele>
        <time>2014-01-18T10:37:56.000Z</time>
      </trkpt>
      <trkpt lat="42.73046" lon="1.92409">
        <ele>1415.5999755859</ele>
        <time>2014-01-18T10:38:04.000Z</time>
      </trkpt>
      <trkpt lat="42.73043" lon="1.92407">
        <ele>1416.4000244141</ele>
        <time>2014-01-18T10:38:07.000Z</time>
      </trkpt>
      <trkpt lat="42.7304" lon="1.92406">
        <ele>1417.1999511719</ele>
        <time>2014-01-18T10:38:10.000Z</time>
      </trkpt>
      <trkpt lat="42.73037" lon="1.92402">
        <ele>1417</ele>
        <time>2014-01-18T10:38:14.000Z</time>
      </trkpt>
      <trkpt lat="42.73028" lon="1.92393">
        <ele>1417.5999755859</ele>
        <time>2014-01-18T10:38:24.000Z</time>
      </trkpt>
      <trkpt lat="42.7302" lon="1.92386">
        <ele>1417.8000488281</ele>
        <time>2014-01-18T10:38:32.000Z</time>
      </trkpt>
      <trkpt lat="42.73012" lon="1.92377">
        <ele>1418</ele>
        <time>2014-01-18T10:38:41.000Z</time>
      </trkpt>
      <trkpt lat="42.73003" lon="1.9237">
        <ele>1419</ele>
        <time>2014-01-18T10:38:50.000Z</time>
      </trkpt>
      <trkpt lat="42.72996" lon="1.92366">
        <ele>1419.8000488281</ele>
        <time>2014-01-18T10:38:57.000Z</time>
      </trkpt>
      <trkpt lat="42.72987" lon="1.92364">
        <ele>1420.4000244141</ele>
        <time>2014-01-18T10:39:05.000Z</time>
      </trkpt>
      <trkpt lat="42.72984" lon="1.92364">
        <ele>1421.4000244141</ele>
        <time>2014-01-18T10:39:11.000Z</time>
      </trkpt>
      <trkpt lat="42.72979" lon="1.92363">
        <ele>1422</ele>
        <time>2014-01-18T10:39:17.000Z</time>
      </trkpt>
      <trkpt lat="42.72973" lon="1.92362">
        <ele>1422.8000488281</ele>
        <time>2014-01-18T10:39:23.000Z</time>
      </trkpt>
      <trkpt lat="42.72973" lon="1.92362">
        <ele>1422.8000488281</ele>
        <time>2014-01-18T10:39:24.000Z</time>
      </trkpt>
      <trkpt lat="42.72968" lon="1.92363">
        <ele>1424</ele>
        <time>2014-01-18T10:39:29.000Z</time>
      </trkpt>
      <trkpt lat="42.72963" lon="1.92361">
        <ele>1424.4000244141</ele>
        <time>2014-01-18T10:39:34.000Z</time>
      </trkpt>
      <trkpt lat="42.72957" lon="1.9236">
        <ele>1425.1999511719</ele>
        <time>2014-01-18T10:39:40.000Z</time>
      </trkpt>
      <trkpt lat="42.72954" lon="1.9236">
        <ele>1426</ele>
        <time>2014-01-18T10:39:43.000Z</time>
      </trkpt>
      <trkpt lat="42.72947" lon="1.92363">
        <ele>1428.1999511719</ele>
        <time>2014-01-18T10:39:50.000Z</time>
      </trkpt>
      <trkpt lat="42.72945" lon="1.92363">
        <ele>1428.8000488281</ele>
        <time>2014-01-18T10:39:52.000Z</time>
      </trkpt>
      <trkpt lat="42.72938" lon="1.92364">
        <ele>1430.5999755859</ele>
        <time>2014-01-18T10:39:59.000Z</time>
      </trkpt>
      <trkpt lat="42.72934" lon="1.92365">
        <ele>1431.8000488281</ele>
        <time>2014-01-18T10:40:04.000Z</time>
      </trkpt>
      <trkpt lat="42.7293" lon="1.92366">
        <ele>1432.8000488281</ele>
        <time>2014-01-18T10:40:08.000Z</time>
      </trkpt>
      <trkpt lat="42.72923" lon="1.92367">
        <ele>1434.8000488281</ele>
        <time>2014-01-18T10:40:15.000Z</time>
      </trkpt>
      <trkpt lat="42.72921" lon="1.92366">
        <ele>1435</ele>
        <time>2014-01-18T10:40:17.000Z</time>
      </trkpt>
      <trkpt lat="42.72915" lon="1.92364">
        <ele>1435.5999755859</ele>
        <time>2014-01-18T10:40:24.000Z</time>
      </trkpt>
      <trkpt lat="42.7291" lon="1.9236">
        <ele>1435.8000488281</ele>
        <time>2014-01-18T10:40:29.000Z</time>
      </trkpt>
      <trkpt lat="42.72908" lon="1.92359">
        <ele>1436</ele>
        <time>2014-01-18T10:40:31.000Z</time>
      </trkpt>
      <trkpt lat="42.72903" lon="1.92356">
        <ele>1436.5999755859</ele>
        <time>2014-01-18T10:40:36.000Z</time>
      </trkpt>
      <trkpt lat="42.72896" lon="1.92352">
        <ele>1437.4000244141</ele>
        <time>2014-01-18T10:40:44.000Z</time>
      </trkpt>
      <trkpt lat="42.72891" lon="1.92348">
        <ele>1437.4000244141</ele>
        <time>2014-01-18T10:40:50.000Z</time>
      </trkpt>
      <trkpt lat="42.7289" lon="1.92346">
        <ele>1437.1999511719</ele>
        <time>2014-01-18T10:40:53.000Z</time>
      </trkpt>
      <trkpt lat="42.72883" lon="1.9234">
        <ele>1437.4000244141</ele>
        <time>2014-01-18T10:41:00.000Z</time>
      </trkpt>
      <trkpt lat="42.72877" lon="1.92336">
        <ele>1438</ele>
        <time>2014-01-18T10:41:06.000Z</time>
      </trkpt>
      <trkpt lat="42.72872" lon="1.92333">
        <ele>1438.5999755859</ele>
        <time>2014-01-18T10:41:12.000Z</time>
      </trkpt>
      <trkpt lat="42.72869" lon="1.92331">
        <ele>1438.8000488281</ele>
        <time>2014-01-18T10:41:15.000Z</time>
      </trkpt>
      <trkpt lat="42.72863" lon="1.92327">
        <ele>1439.4000244141</ele>
        <time>2014-01-18T10:41:22.000Z</time>
      </trkpt>
      <trkpt lat="42.7286" lon="1.92325">
        <ele>1439.4000244141</ele>
        <time>2014-01-18T10:41:28.000Z</time>
      </trkpt>
      <trkpt lat="42.72861" lon="1.92326">
        <ele>1439.5999755859</ele>
        <time>2014-01-18T10:41:39.000Z</time>
      </trkpt>
      <trkpt lat="42.72857" lon="1.92322">
        <ele>1439.4000244141</ele>
        <time>2014-01-18T10:42:21.000Z</time>
      </trkpt>
      <trkpt lat="42.72852" lon="1.9232">
        <ele>1440.1999511719</ele>
        <time>2014-01-18T10:42:27.000Z</time>
      </trkpt>
      <trkpt lat="42.72847" lon="1.92318">
        <ele>1441.1999511719</ele>
        <time>2014-01-18T10:42:32.000Z</time>
      </trkpt>
      <trkpt lat="42.72847" lon="1.92317">
        <ele>1440.4000244141</ele>
        <time>2014-01-18T10:42:42.000Z</time>
      </trkpt>
      <trkpt lat="42.72844" lon="1.92311">
        <ele>1439</ele>
        <time>2014-01-18T10:43:16.000Z</time>
      </trkpt>
      <trkpt lat="42.72843" lon="1.92311">
        <ele>1439.4000244141</ele>
        <time>2014-01-18T10:43:17.000Z</time>
      </trkpt>
      <trkpt lat="42.72839" lon="1.9231">
        <ele>1440.1999511719</ele>
        <time>2014-01-18T10:43:23.000Z</time>
      </trkpt>
      <trkpt lat="42.72839" lon="1.92309">
        <ele>1439.4000244141</ele>
        <time>2014-01-18T10:44:08.000Z</time>
      </trkpt>
      <trkpt lat="42.72839" lon="1.92309">
        <ele>1439.8000488281</ele>
        <time>2014-01-18T10:44:42.000Z</time>
      </trkpt>
      <trkpt lat="42.72835" lon="1.92309">
        <ele>1441.1999511719</ele>
        <time>2014-01-18T10:45:42.000Z</time>
      </trkpt>
      <trkpt lat="42.7283" lon="1.92308">
        <ele>1442</ele>
        <time>2014-01-18T10:45:48.000Z</time>
      </trkpt>
      <trkpt lat="42.72829" lon="1.92308">
        <ele>1442.1999511719</ele>
        <time>2014-01-18T10:45:55.000Z</time>
      </trkpt>
      <trkpt lat="42.72826" lon="1.92307">
        <ele>1442.5999755859</ele>
        <time>2014-01-18T10:46:09.000Z</time>
      </trkpt>
      <trkpt lat="42.72824" lon="1.92308">
        <ele>1443.5999755859</ele>
        <time>2014-01-18T10:46:13.000Z</time>
      </trkpt>
      <trkpt lat="42.72813" lon="1.92306">
        <ele>1445.5999755859</ele>
        <time>2014-01-18T10:46:25.000Z</time>
      </trkpt>
      <trkpt lat="42.72806" lon="1.92305">
        <ele>1446.8000488281</ele>
        <time>2014-01-18T10:46:32.000Z</time>
      </trkpt>
      <trkpt lat="42.72801" lon="1.92304">
        <ele>1447.5999755859</ele>
        <time>2014-01-18T10:46:37.000Z</time>
      </trkpt>
      <trkpt lat="42.72793" lon="1.923">
        <ele>1448</ele>
        <time>2014-01-18T10:46:44.000Z</time>
      </trkpt>
      <trkpt lat="42.72786" lon="1.92298">
        <ele>1448.8000488281</ele>
        <time>2014-01-18T10:46:51.000Z</time>
      </trkpt>
      <trkpt lat="42.72783" lon="1.92297">
        <ele>1449</ele>
        <time>2014-01-18T10:46:54.000Z</time>
      </trkpt>
      <trkpt lat="42.72775" lon="1.92293">
        <ele>1449.8000488281</ele>
        <time>2014-01-18T10:47:03.000Z</time>
      </trkpt>
      <trkpt lat="42.72769" lon="1.92291">
        <ele>1450.1999511719</ele>
        <time>2014-01-18T10:47:09.000Z</time>
      </trkpt>
      <trkpt lat="42.72764" lon="1.92287">
        <ele>1449.8000488281</ele>
        <time>2014-01-18T10:47:15.000Z</time>
      </trkpt>
      <trkpt lat="42.72758" lon="1.92283">
        <ele>1450</ele>
        <time>2014-01-18T10:47:21.000Z</time>
      </trkpt>
      <trkpt lat="42.72753" lon="1.92281">
        <ele>1450</ele>
        <time>2014-01-18T10:47:26.000Z</time>
      </trkpt>
      <trkpt lat="42.7275" lon="1.9228">
        <ele>1450.4000244141</ele>
        <time>2014-01-18T10:47:29.000Z</time>
      </trkpt>
      <trkpt lat="42.72743" lon="1.92278">
        <ele>1450.4000244141</ele>
        <time>2014-01-18T10:47:37.000Z</time>
      </trkpt>
      <trkpt lat="42.72739" lon="1.92276">
        <ele>1450.4000244141</ele>
        <time>2014-01-18T10:47:42.000Z</time>
      </trkpt>
      <trkpt lat="42.72734" lon="1.92272">
        <ele>1449.5999755859</ele>
        <time>2014-01-18T10:47:48.000Z</time>
      </trkpt>
      <trkpt lat="42.72733" lon="1.92272">
        <ele>1449.4000244141</ele>
        <time>2014-01-18T10:47:49.000Z</time>
      </trkpt>
      <trkpt lat="42.72727" lon="1.92266">
        <ele>1447.8000488281</ele>
        <time>2014-01-18T10:47:56.000Z</time>
      </trkpt>
      <trkpt lat="42.72727" lon="1.92266">
        <ele>1447.8000488281</ele>
        <time>2014-01-18T10:47:57.000Z</time>
      </trkpt>
      <trkpt lat="42.72721" lon="1.92262">
        <ele>1446.8000488281</ele>
        <time>2014-01-18T10:48:05.000Z</time>
      </trkpt>
      <trkpt lat="42.72716" lon="1.92258">
        <ele>1446</ele>
        <time>2014-01-18T10:48:11.000Z</time>
      </trkpt>
      <trkpt lat="42.72716" lon="1.92257">
        <ele>1446</ele>
        <time>2014-01-18T10:48:12.000Z</time>
      </trkpt>
      <trkpt lat="42.72711" lon="1.92256">
        <ele>1445.8000488281</ele>
        <time>2014-01-18T10:48:19.000Z</time>
      </trkpt>
      <trkpt lat="42.72709" lon="1.92255">
        <ele>1446</ele>
        <time>2014-01-18T10:48:24.000Z</time>
      </trkpt>
      <trkpt lat="42.72705" lon="1.92255">
        <ele>1446.1999511719</ele>
        <time>2014-01-18T10:48:39.000Z</time>
      </trkpt>
      <trkpt lat="42.727" lon="1.92255">
        <ele>1447</ele>
        <time>2014-01-18T10:48:44.000Z</time>
      </trkpt>
      <trkpt lat="42.72696" lon="1.92256">
        <ele>1448</ele>
        <time>2014-01-18T10:48:49.000Z</time>
      </trkpt>
      <trkpt lat="42.72691" lon="1.92257">
        <ele>1449.1999511719</ele>
        <time>2014-01-18T10:48:56.000Z</time>
      </trkpt>
      <trkpt lat="42.72686" lon="1.92259">
        <ele>1450.4000244141</ele>
        <time>2014-01-18T10:49:02.000Z</time>
      </trkpt>
      <trkpt lat="42.7268" lon="1.92262">
        <ele>1452.5999755859</ele>
        <time>2014-01-18T10:49:10.000Z</time>
      </trkpt>
      <trkpt lat="42.72673" lon="1.92264">
        <ele>1454.1999511719</ele>
        <time>2014-01-18T10:49:19.000Z</time>
      </trkpt>
      <trkpt lat="42.72669" lon="1.92265">
        <ele>1455</ele>
        <time>2014-01-18T10:49:23.000Z</time>
      </trkpt>
      <trkpt lat="42.72667" lon="1.92264">
        <ele>1455</ele>
        <time>2014-01-18T10:49:25.000Z</time>
      </trkpt>
      <trkpt lat="42.72659" lon="1.92267">
        <ele>1456</ele>
        <time>2014-01-18T10:49:34.000Z</time>
      </trkpt>
      <trkpt lat="42.72651" lon="1.92269">
        <ele>1456.8000488281</ele>
        <time>2014-01-18T10:49:42.000Z</time>
      </trkpt>
      <trkpt lat="42.72645" lon="1.9227">
        <ele>1456.8000488281</ele>
        <time>2014-01-18T10:49:48.000Z</time>
      </trkpt>
      <trkpt lat="42.7264" lon="1.9227">
        <ele>1456.5999755859</ele>
        <time>2014-01-18T10:49:54.000Z</time>
      </trkpt>
      <trkpt lat="42.72638" lon="1.9227">
        <ele>1456.5999755859</ele>
        <time>2014-01-18T10:49:57.000Z</time>
      </trkpt>
      <trkpt lat="42.72631" lon="1.92273">
        <ele>1457.8000488281</ele>
        <time>2014-01-18T10:50:05.000Z</time>
      </trkpt>
      <trkpt lat="42.7263" lon="1.92274">
        <ele>1458</ele>
        <time>2014-01-18T10:50:06.000Z</time>
      </trkpt>
      <trkpt lat="42.72627" lon="1.92276">
        <ele>1458.5999755859</ele>
        <time>2014-01-18T10:50:10.000Z</time>
      </trkpt>
      <trkpt lat="42.72622" lon="1.92276">
        <ele>1458.5999755859</ele>
        <time>2014-01-18T10:50:15.000Z</time>
      </trkpt>
      <trkpt lat="42.72617" lon="1.92276">
        <ele>1458.4000244141</ele>
        <time>2014-01-18T10:50:21.000Z</time>
      </trkpt>
      <trkpt lat="42.7261" lon="1.92277">
        <ele>1458.5999755859</ele>
        <time>2014-01-18T10:50:29.000Z</time>
      </trkpt>
      <trkpt lat="42.72609" lon="1.92277">
        <ele>1458.5999755859</ele>
        <time>2014-01-18T10:50:30.000Z</time>
      </trkpt>
      <trkpt lat="42.72604" lon="1.92278">
        <ele>1459</ele>
        <time>2014-01-18T10:50:36.000Z</time>
      </trkpt>
      <trkpt lat="42.72603" lon="1.92279">
        <ele>1459.1999511719</ele>
        <time>2014-01-18T10:50:37.000Z</time>
      </trkpt>
      <trkpt lat="42.72599" lon="1.92282">
        <ele>1460</ele>
        <time>2014-01-18T10:50:43.000Z</time>
      </trkpt>
      <trkpt lat="42.72591" lon="1.92284">
        <ele>1460.4000244141</ele>
        <time>2014-01-18T10:50:52.000Z</time>
      </trkpt>
      <trkpt lat="42.72584" lon="1.92285">
        <ele>1460.8000488281</ele>
        <time>2014-01-18T10:50:59.000Z</time>
      </trkpt>
      <trkpt lat="42.72576" lon="1.92286">
        <ele>1462.4000244141</ele>
        <time>2014-01-18T10:51:07.000Z</time>
      </trkpt>
      <trkpt lat="42.7257" lon="1.92289">
        <ele>1464.4000244141</ele>
        <time>2014-01-18T10:51:14.000Z</time>
      </trkpt>
      <trkpt lat="42.7257" lon="1.9229">
        <ele>1464.5999755859</ele>
        <time>2014-01-18T10:51:15.000Z</time>
      </trkpt>
      <trkpt lat="42.72568" lon="1.92297">
        <ele>1467</ele>
        <time>2014-01-18T10:51:22.000Z</time>
      </trkpt>
      <trkpt lat="42.72572" lon="1.92299">
        <ele>1467.1999511719</ele>
        <time>2014-01-18T10:51:30.000Z</time>
      </trkpt>
      <trkpt lat="42.72572" lon="1.92298">
        <ele>1466.8000488281</ele>
        <time>2014-01-18T10:51:56.000Z</time>
      </trkpt>
      <trkpt lat="42.7257" lon="1.92297">
        <ele>1466.8000488281</ele>
        <time>2014-01-18T10:52:20.000Z</time>
      </trkpt>
      <trkpt lat="42.72571" lon="1.92297">
        <ele>1466.5999755859</ele>
        <time>2014-01-18T10:52:44.000Z</time>
      </trkpt>
      <trkpt lat="42.72571" lon="1.92297">
        <ele>1466.5999755859</ele>
        <time>2014-01-18T10:52:52.000Z</time>
      </trkpt>
      <trkpt lat="42.72572" lon="1.92296">
        <ele>1466.1999511719</ele>
        <time>2014-01-18T10:53:07.000Z</time>
      </trkpt>
      <trkpt lat="42.72574" lon="1.92296">
        <ele>1465.8000488281</ele>
        <time>2014-01-18T10:53:17.000Z</time>
      </trkpt>
      <trkpt lat="42.72574" lon="1.92295">
        <ele>1465.8000488281</ele>
        <time>2014-01-18T10:53:27.000Z</time>
      </trkpt>
      <trkpt lat="42.72573" lon="1.92296">
        <ele>1466</ele>
        <time>2014-01-18T10:53:36.000Z</time>
      </trkpt>
      <trkpt lat="42.72572" lon="1.92297">
        <ele>1466.5999755859</ele>
        <time>2014-01-18T10:54:12.000Z</time>
      </trkpt>
      <trkpt lat="42.72579" lon="1.92298">
        <ele>1465.5999755859</ele>
        <time>2014-01-18T10:55:05.000Z</time>
      </trkpt>
      <trkpt lat="42.72582" lon="1.92297">
        <ele>1465</ele>
        <time>2014-01-18T10:55:09.000Z</time>
      </trkpt>
      <trkpt lat="42.72588" lon="1.92296">
        <ele>1464.5999755859</ele>
        <time>2014-01-18T10:55:15.000Z</time>
      </trkpt>
      <trkpt lat="42.72592" lon="1.92295">
        <ele>1464.1999511719</ele>
        <time>2014-01-18T10:55:21.000Z</time>
      </trkpt>
      <trkpt lat="42.72599" lon="1.92295">
        <ele>1464.5999755859</ele>
        <time>2014-01-18T10:55:30.000Z</time>
      </trkpt>
      <trkpt lat="42.726" lon="1.92296">
        <ele>1464.8000488281</ele>
        <time>2014-01-18T10:55:36.000Z</time>
      </trkpt>
      <trkpt lat="42.72603" lon="1.92296">
        <ele>1465</ele>
        <time>2014-01-18T10:55:41.000Z</time>
      </trkpt>
      <trkpt lat="42.72606" lon="1.92297">
        <ele>1465.4000244141</ele>
        <time>2014-01-18T10:55:47.000Z</time>
      </trkpt>
      <trkpt lat="42.7261" lon="1.92297">
        <ele>1465.4000244141</ele>
        <time>2014-01-18T10:55:59.000Z</time>
      </trkpt>
      <trkpt lat="42.72611" lon="1.92297">
        <ele>1465.4000244141</ele>
        <time>2014-01-18T10:56:00.000Z</time>
      </trkpt>
      <trkpt lat="42.72615" lon="1.92297">
        <ele>1465.8000488281</ele>
        <time>2014-01-18T10:56:05.000Z</time>
      </trkpt>
      <trkpt lat="42.72623" lon="1.92297">
        <ele>1465.8000488281</ele>
        <time>2014-01-18T10:56:12.000Z</time>
      </trkpt>
      <trkpt lat="42.72629" lon="1.92296">
        <ele>1465.5999755859</ele>
        <time>2014-01-18T10:56:19.000Z</time>
      </trkpt>
      <trkpt lat="42.72632" lon="1.92297">
        <ele>1466</ele>
        <time>2014-01-18T10:56:22.000Z</time>
      </trkpt>
      <trkpt lat="42.72642" lon="1.92295">
        <ele>1465.5999755859</ele>
        <time>2014-01-18T10:56:32.000Z</time>
      </trkpt>
      <trkpt lat="42.72653" lon="1.92294">
        <ele>1465.5999755859</ele>
        <time>2014-01-18T10:56:42.000Z</time>
      </trkpt>
      <trkpt lat="42.72659" lon="1.92293">
        <ele>1465.4000244141</ele>
        <time>2014-01-18T10:56:49.000Z</time>
      </trkpt>
      <trkpt lat="42.72663" lon="1.92293">
        <ele>1465.4000244141</ele>
        <time>2014-01-18T10:56:54.000Z</time>
      </trkpt>
      <trkpt lat="42.7267" lon="1.92292">
        <ele>1464.5999755859</ele>
        <time>2014-01-18T10:57:01.000Z</time>
      </trkpt>
      <trkpt lat="42.72674" lon="1.92291">
        <ele>1464</ele>
        <time>2014-01-18T10:57:05.000Z</time>
      </trkpt>
      <trkpt lat="42.72681" lon="1.92293">
        <ele>1463.8000488281</ele>
        <time>2014-01-18T10:57:11.000Z</time>
      </trkpt>
      <trkpt lat="42.72685" lon="1.92291">
        <ele>1462.8000488281</ele>
        <time>2014-01-18T10:57:15.000Z</time>
      </trkpt>
      <trkpt lat="42.72693" lon="1.92294">
        <ele>1462.8000488281</ele>
        <time>2014-01-18T10:57:24.000Z</time>
      </trkpt>
      <trkpt lat="42.72698" lon="1.92298">
        <ele>1463.8000488281</ele>
        <time>2014-01-18T10:57:30.000Z</time>
      </trkpt>
      <trkpt lat="42.72699" lon="1.92299">
        <ele>1464</ele>
        <time>2014-01-18T10:57:31.000Z</time>
      </trkpt>
      <trkpt lat="42.72702" lon="1.923">
        <ele>1464.1999511719</ele>
        <time>2014-01-18T10:57:37.000Z</time>
      </trkpt>
      <trkpt lat="42.72706" lon="1.92305">
        <ele>1465.4000244141</ele>
        <time>2014-01-18T10:57:45.000Z</time>
      </trkpt>
      <trkpt lat="42.72711" lon="1.92311">
        <ele>1467.4000244141</ele>
        <time>2014-01-18T10:57:52.000Z</time>
      </trkpt>
      <trkpt lat="42.72712" lon="1.92311">
        <ele>1467.5999755859</ele>
        <time>2014-01-18T10:57:54.000Z</time>
      </trkpt>
      <trkpt lat="42.72714" lon="1.92315">
        <ele>1469</ele>
        <time>2014-01-18T10:57:59.000Z</time>
      </trkpt>
      <trkpt lat="42.72714" lon="1.92316">
        <ele>1469.1999511719</ele>
        <time>2014-01-18T10:58:00.000Z</time>
      </trkpt>
      <trkpt lat="42.72718" lon="1.92318">
        <ele>1469.5999755859</ele>
        <time>2014-01-18T10:58:05.000Z</time>
      </trkpt>
      <trkpt lat="42.72722" lon="1.92323">
        <ele>1471.4000244141</ele>
        <time>2014-01-18T10:58:11.000Z</time>
      </trkpt>
      <trkpt lat="42.72726" lon="1.92328">
        <ele>1473</ele>
        <time>2014-01-18T10:58:17.000Z</time>
      </trkpt>
      <trkpt lat="42.72727" lon="1.92329">
        <ele>1473.1999511719</ele>
        <time>2014-01-18T10:58:18.000Z</time>
      </trkpt>
      <trkpt lat="42.72731" lon="1.92334">
        <ele>1474.8000488281</ele>
        <time>2014-01-18T10:58:25.000Z</time>
      </trkpt>
      <trkpt lat="42.72735" lon="1.92339">
        <ele>1476.4000244141</ele>
        <time>2014-01-18T10:58:31.000Z</time>
      </trkpt>
      <trkpt lat="42.72739" lon="1.92344">
        <ele>1478</ele>
        <time>2014-01-18T10:58:37.000Z</time>
      </trkpt>
      <trkpt lat="42.72741" lon="1.92347">
        <ele>1479</ele>
        <time>2014-01-18T10:58:41.000Z</time>
      </trkpt>
      <trkpt lat="42.72746" lon="1.92352">
        <ele>1480.8000488281</ele>
        <time>2014-01-18T10:58:47.000Z</time>
      </trkpt>
      <trkpt lat="42.72751" lon="1.92357">
        <ele>1482.1999511719</ele>
        <time>2014-01-18T10:58:55.000Z</time>
      </trkpt>
      <trkpt lat="42.72755" lon="1.92361">
        <ele>1482.8000488281</ele>
        <time>2014-01-18T10:59:00.000Z</time>
      </trkpt>
      <trkpt lat="42.72758" lon="1.92364">
        <ele>1483.1999511719</ele>
        <time>2014-01-18T10:59:05.000Z</time>
      </trkpt>
      <trkpt lat="42.72762" lon="1.92368">
        <ele>1483.8000488281</ele>
        <time>2014-01-18T10:59:11.000Z</time>
      </trkpt>
      <trkpt lat="42.72765" lon="1.9237">
        <ele>1484.1999511719</ele>
        <time>2014-01-18T10:59:15.000Z</time>
      </trkpt>
      <trkpt lat="42.72768" lon="1.92372">
        <ele>1484.4000244141</ele>
        <time>2014-01-18T10:59:21.000Z</time>
      </trkpt>
      <trkpt lat="42.72771" lon="1.92374">
        <ele>1484.1999511719</ele>
        <time>2014-01-18T10:59:37.000Z</time>
      </trkpt>
      <trkpt lat="42.72774" lon="1.92376">
        <ele>1484.5999755859</ele>
        <time>2014-01-18T10:59:41.000Z</time>
      </trkpt>
      <trkpt lat="42.7278" lon="1.92382">
        <ele>1485.4000244141</ele>
        <time>2014-01-18T10:59:47.000Z</time>
      </trkpt>
      <trkpt lat="42.72783" lon="1.92384">
        <ele>1485.5999755859</ele>
        <time>2014-01-18T10:59:51.000Z</time>
      </trkpt>
      <trkpt lat="42.72786" lon="1.92387">
        <ele>1486.1999511719</ele>
        <time>2014-01-18T10:59:56.000Z</time>
      </trkpt>
      <trkpt lat="42.72791" lon="1.92392">
        <ele>1487</ele>
        <time>2014-01-18T11:00:02.000Z</time>
      </trkpt>
      <trkpt lat="42.72796" lon="1.92396">
        <ele>1487.5999755859</ele>
        <time>2014-01-18T11:00:09.000Z</time>
      </trkpt>
      <trkpt lat="42.72802" lon="1.92401">
        <ele>1488.4000244141</ele>
        <time>2014-01-18T11:00:15.000Z</time>
      </trkpt>
      <trkpt lat="42.72809" lon="1.92404">
        <ele>1487.8000488281</ele>
        <time>2014-01-18T11:00:24.000Z</time>
      </trkpt>
      <trkpt lat="42.72814" lon="1.92405">
        <ele>1487.1999511719</ele>
        <time>2014-01-18T11:00:29.000Z</time>
      </trkpt>
      <trkpt lat="42.72821" lon="1.92407">
        <ele>1486.5999755859</ele>
        <time>2014-01-18T11:00:36.000Z</time>
      </trkpt>
      <trkpt lat="42.72826" lon="1.92411">
        <ele>1487.1999511719</ele>
        <time>2014-01-18T11:00:42.000Z</time>
      </trkpt>
      <trkpt lat="42.7283" lon="1.92414">
        <ele>1487.5999755859</ele>
        <time>2014-01-18T11:00:47.000Z</time>
      </trkpt>
      <trkpt lat="42.72834" lon="1.92417">
        <ele>1488.1999511719</ele>
        <time>2014-01-18T11:00:51.000Z</time>
      </trkpt>
      <trkpt lat="42.72838" lon="1.9242">
        <ele>1487.8000488281</ele>
        <time>2014-01-18T11:00:57.000Z</time>
      </trkpt>
      <trkpt lat="42.72841" lon="1.92424">
        <ele>1488.1999511719</ele>
        <time>2014-01-18T11:01:02.000Z</time>
      </trkpt>
      <trkpt lat="42.72843" lon="1.92427">
        <ele>1488.8000488281</ele>
        <time>2014-01-18T11:01:07.000Z</time>
      </trkpt>
      <trkpt lat="42.72847" lon="1.92432">
        <ele>1489.1999511719</ele>
        <time>2014-01-18T11:01:19.000Z</time>
      </trkpt>
      <trkpt lat="42.72851" lon="1.92439">
        <ele>1490.8000488281</ele>
        <time>2014-01-18T11:01:26.000Z</time>
      </trkpt>
      <trkpt lat="42.72853" lon="1.92441">
        <ele>1491</ele>
        <time>2014-01-18T11:01:27.000Z</time>
      </trkpt>
      <trkpt lat="42.72856" lon="1.92446">
        <ele>1492.1999511719</ele>
        <time>2014-01-18T11:01:33.000Z</time>
      </trkpt>
      <trkpt lat="42.72857" lon="1.92446">
        <ele>1491.8000488281</ele>
        <time>2014-01-18T11:01:35.000Z</time>
      </trkpt>
      <trkpt lat="42.72862" lon="1.92451">
        <ele>1491.8000488281</ele>
        <time>2014-01-18T11:01:41.000Z</time>
      </trkpt>
      <trkpt lat="42.72862" lon="1.92451">
        <ele>1492</ele>
        <time>2014-01-18T11:01:42.000Z</time>
      </trkpt>
      <trkpt lat="42.72867" lon="1.92456">
        <ele>1492.1999511719</ele>
        <time>2014-01-18T11:01:48.000Z</time>
      </trkpt>
      <trkpt lat="42.72868" lon="1.92457">
        <ele>1492.1999511719</ele>
        <time>2014-01-18T11:01:49.000Z</time>
      </trkpt>
      <trkpt lat="42.72871" lon="1.92459">
        <ele>1492.1999511719</ele>
        <time>2014-01-18T11:01:52.000Z</time>
      </trkpt>
      <trkpt lat="42.72876" lon="1.92466">
        <ele>1493.4000244141</ele>
        <time>2014-01-18T11:01:59.000Z</time>
      </trkpt>
      <trkpt lat="42.72876" lon="1.92467">
        <ele>1493.5999755859</ele>
        <time>2014-01-18T11:02:00.000Z</time>
      </trkpt>
      <trkpt lat="42.72877" lon="1.92469">
        <ele>1494.1999511719</ele>
        <time>2014-01-18T11:02:02.000Z</time>
      </trkpt>
      <trkpt lat="42.72883" lon="1.92477">
        <ele>1495.1999511719</ele>
        <time>2014-01-18T11:02:10.000Z</time>
      </trkpt>
      <trkpt lat="42.72887" lon="1.92483">
        <ele>1496.1999511719</ele>
        <time>2014-01-18T11:02:16.000Z</time>
      </trkpt>
      <trkpt lat="42.72891" lon="1.92489">
        <ele>1497.4000244141</ele>
        <time>2014-01-18T11:02:22.000Z</time>
      </trkpt>
      <trkpt lat="42.72893" lon="1.92493">
        <ele>1498.1999511719</ele>
        <time>2014-01-18T11:02:26.000Z</time>
      </trkpt>
      <trkpt lat="42.72899" lon="1.92501">
        <ele>1499.5999755859</ele>
        <time>2014-01-18T11:02:34.000Z</time>
      </trkpt>
      <trkpt lat="42.72903" lon="1.92507">
        <ele>1500.8000488281</ele>
        <time>2014-01-18T11:02:40.000Z</time>
      </trkpt>
      <trkpt lat="42.72907" lon="1.92513">
        <ele>1501.8000488281</ele>
        <time>2014-01-18T11:02:46.000Z</time>
      </trkpt>
      <trkpt lat="42.72913" lon="1.92518">
        <ele>1502.1999511719</ele>
        <time>2014-01-18T11:02:53.000Z</time>
      </trkpt>
      <trkpt lat="42.72919" lon="1.92523">
        <ele>1502</ele>
        <time>2014-01-18T11:02:59.000Z</time>
      </trkpt>
      <trkpt lat="42.72925" lon="1.92525">
        <ele>1501.4000244141</ele>
        <time>2014-01-18T11:03:05.000Z</time>
      </trkpt>
      <trkpt lat="42.72928" lon="1.92525">
        <ele>1500.4000244141</ele>
        <time>2014-01-18T11:03:10.000Z</time>
      </trkpt>
      <trkpt lat="42.72933" lon="1.92526">
        <ele>1499.1999511719</ele>
        <time>2014-01-18T11:03:16.000Z</time>
      </trkpt>
      <trkpt lat="42.72938" lon="1.92529">
        <ele>1498.5999755859</ele>
        <time>2014-01-18T11:03:23.000Z</time>
      </trkpt>
      <trkpt lat="42.72941" lon="1.9253">
        <ele>1498.4000244141</ele>
        <time>2014-01-18T11:03:27.000Z</time>
      </trkpt>
      <trkpt lat="42.72944" lon="1.9253">
        <ele>1497.1999511719</ele>
        <time>2014-01-18T11:03:59.000Z</time>
      </trkpt>
      <trkpt lat="42.72949" lon="1.92532">
        <ele>1496.8000488281</ele>
        <time>2014-01-18T11:04:04.000Z</time>
      </trkpt>
      <trkpt lat="42.72953" lon="1.92535">
        <ele>1496.8000488281</ele>
        <time>2014-01-18T11:04:09.000Z</time>
      </trkpt>
      <trkpt lat="42.72957" lon="1.92539">
        <ele>1497</ele>
        <time>2014-01-18T11:04:15.000Z</time>
      </trkpt>
      <trkpt lat="42.72961" lon="1.92543">
        <ele>1497.1999511719</ele>
        <time>2014-01-18T11:04:20.000Z</time>
      </trkpt>
      <trkpt lat="42.72962" lon="1.92545">
        <ele>1497.4000244141</ele>
        <time>2014-01-18T11:04:21.000Z</time>
      </trkpt>
      <trkpt lat="42.72965" lon="1.92549">
        <ele>1497.8000488281</ele>
        <time>2014-01-18T11:04:26.000Z</time>
      </trkpt>
      <trkpt lat="42.72971" lon="1.92557">
        <ele>1498.8000488281</ele>
        <time>2014-01-18T11:04:33.000Z</time>
      </trkpt>
      <trkpt lat="42.72974" lon="1.92564">
        <ele>1500.1999511719</ele>
        <time>2014-01-18T11:04:39.000Z</time>
      </trkpt>
      <trkpt lat="42.72978" lon="1.9257">
        <ele>1501.4000244141</ele>
        <time>2014-01-18T11:04:46.000Z</time>
      </trkpt>
      <trkpt lat="42.72979" lon="1.92573">
        <ele>1501.8000488281</ele>
        <time>2014-01-18T11:04:50.000Z</time>
      </trkpt>
      <trkpt lat="42.72983" lon="1.92578">
        <ele>1502.4000244141</ele>
        <time>2014-01-18T11:04:59.000Z</time>
      </trkpt>
      <trkpt lat="42.72985" lon="1.92581">
        <ele>1502.5999755859</ele>
        <time>2014-01-18T11:05:02.000Z</time>
      </trkpt>
      <trkpt lat="42.72989" lon="1.92588">
        <ele>1504</ele>
        <time>2014-01-18T11:05:08.000Z</time>
      </trkpt>
      <trkpt lat="42.72993" lon="1.92595">
        <ele>1504.8000488281</ele>
        <time>2014-01-18T11:05:14.000Z</time>
      </trkpt>
      <trkpt lat="42.72996" lon="1.92601">
        <ele>1506.5999755859</ele>
        <time>2014-01-18T11:05:19.000Z</time>
      </trkpt>
      <trkpt lat="42.72999" lon="1.92606">
        <ele>1507.1999511719</ele>
        <time>2014-01-18T11:05:25.000Z</time>
      </trkpt>
      <trkpt lat="42.73001" lon="1.92613">
        <ele>1509.1999511719</ele>
        <time>2014-01-18T11:05:31.000Z</time>
      </trkpt>
      <trkpt lat="42.73003" lon="1.92619">
        <ele>1510.5999755859</ele>
        <time>2014-01-18T11:05:37.000Z</time>
      </trkpt>
      <trkpt lat="42.73003" lon="1.9262">
        <ele>1510.8000488281</ele>
        <time>2014-01-18T11:05:38.000Z</time>
      </trkpt>
      <trkpt lat="42.73005" lon="1.92627">
        <ele>1512.5999755859</ele>
        <time>2014-01-18T11:05:44.000Z</time>
      </trkpt>
      <trkpt lat="42.73008" lon="1.92633">
        <ele>1514</ele>
        <time>2014-01-18T11:05:50.000Z</time>
      </trkpt>
      <trkpt lat="42.73011" lon="1.9264">
        <ele>1515</ele>
        <time>2014-01-18T11:05:57.000Z</time>
      </trkpt>
      <trkpt lat="42.73015" lon="1.92644">
        <ele>1514.8000488281</ele>
        <time>2014-01-18T11:06:03.000Z</time>
      </trkpt>
      <trkpt lat="42.7302" lon="1.92647">
        <ele>1514.4000244141</ele>
        <time>2014-01-18T11:06:09.000Z</time>
      </trkpt>
      <trkpt lat="42.73024" lon="1.9265">
        <ele>1513.5999755859</ele>
        <time>2014-01-18T11:06:16.000Z</time>
      </trkpt>
      <trkpt lat="42.73028" lon="1.92653">
        <ele>1513.4000244141</ele>
        <time>2014-01-18T11:06:21.000Z</time>
      </trkpt>
      <trkpt lat="42.73029" lon="1.92654">
        <ele>1513.1999511719</ele>
        <time>2014-01-18T11:06:22.000Z</time>
      </trkpt>
      <trkpt lat="42.73032" lon="1.92658">
        <ele>1513.5999755859</ele>
        <time>2014-01-18T11:06:27.000Z</time>
      </trkpt>
      <trkpt lat="42.73033" lon="1.92659">
        <ele>1513.5999755859</ele>
        <time>2014-01-18T11:06:29.000Z</time>
      </trkpt>
      <trkpt lat="42.73037" lon="1.92665">
        <ele>1514</ele>
        <time>2014-01-18T11:06:35.000Z</time>
      </trkpt>
      <trkpt lat="42.73041" lon="1.92669">
        <ele>1514.4000244141</ele>
        <time>2014-01-18T11:06:40.000Z</time>
      </trkpt>
      <trkpt lat="42.73045" lon="1.92675">
        <ele>1514.8000488281</ele>
        <time>2014-01-18T11:06:47.000Z</time>
      </trkpt>
      <trkpt lat="42.73046" lon="1.92676">
        <ele>1515</ele>
        <time>2014-01-18T11:06:48.000Z</time>
      </trkpt>
      <trkpt lat="42.73048" lon="1.92679">
        <ele>1515.4000244141</ele>
        <time>2014-01-18T11:06:51.000Z</time>
      </trkpt>
      <trkpt lat="42.73049" lon="1.92681">
        <ele>1515.5999755859</ele>
        <time>2014-01-18T11:06:53.000Z</time>
      </trkpt>
      <trkpt lat="42.73053" lon="1.92688">
        <ele>1516.8000488281</ele>
        <time>2014-01-18T11:06:59.000Z</time>
      </trkpt>
      <trkpt lat="42.73056" lon="1.92694">
        <ele>1518</ele>
        <time>2014-01-18T11:07:06.000Z</time>
      </trkpt>
      <trkpt lat="42.73059" lon="1.92699">
        <ele>1518.1999511719</ele>
        <time>2014-01-18T11:07:12.000Z</time>
      </trkpt>
      <trkpt lat="42.73062" lon="1.92702">
        <ele>1518.4000244141</ele>
        <time>2014-01-18T11:07:16.000Z</time>
      </trkpt>
      <trkpt lat="42.73066" lon="1.92708">
        <ele>1519</ele>
        <time>2014-01-18T11:07:23.000Z</time>
      </trkpt>
      <trkpt lat="42.73067" lon="1.92709">
        <ele>1519</ele>
        <time>2014-01-18T11:07:24.000Z</time>
      </trkpt>
      <trkpt lat="42.73069" lon="1.92711">
        <ele>1518.8000488281</ele>
        <time>2014-01-18T11:07:27.000Z</time>
      </trkpt>
      <trkpt lat="42.73072" lon="1.92716">
        <ele>1519.1999511719</ele>
        <time>2014-01-18T11:07:33.000Z</time>
      </trkpt>
      <trkpt lat="42.73073" lon="1.92717">
        <ele>1519.8000488281</ele>
        <time>2014-01-18T11:07:35.000Z</time>
      </trkpt>
      <trkpt lat="42.73077" lon="1.92721">
        <ele>1519.8000488281</ele>
        <time>2014-01-18T11:07:41.000Z</time>
      </trkpt>
      <trkpt lat="42.73077" lon="1.92723">
        <ele>1520.1999511719</ele>
        <time>2014-01-18T11:07:43.000Z</time>
      </trkpt>
      <trkpt lat="42.73082" lon="1.92731">
        <ele>1521</ele>
        <time>2014-01-18T11:07:50.000Z</time>
      </trkpt>
      <trkpt lat="42.73083" lon="1.92733">
        <ele>1521.5999755859</ele>
        <time>2014-01-18T11:07:52.000Z</time>
      </trkpt>
      <trkpt lat="42.73086" lon="1.9274">
        <ele>1523.8000488281</ele>
        <time>2014-01-18T11:07:57.000Z</time>
      </trkpt>
      <trkpt lat="42.73088" lon="1.92746">
        <ele>1526</ele>
        <time>2014-01-18T11:08:04.000Z</time>
      </trkpt>
      <trkpt lat="42.73091" lon="1.92752">
        <ele>1528.1999511719</ele>
        <time>2014-01-18T11:08:10.000Z</time>
      </trkpt>
      <trkpt lat="42.73096" lon="1.92759">
        <ele>1531</ele>
        <time>2014-01-18T11:08:19.000Z</time>
      </trkpt>
      <trkpt lat="42.731" lon="1.92763">
        <ele>1532.4000244141</ele>
        <time>2014-01-18T11:08:26.000Z</time>
      </trkpt>
      <trkpt lat="42.73106" lon="1.92763">
        <ele>1532</ele>
        <time>2014-01-18T11:08:32.000Z</time>
      </trkpt>
      <trkpt lat="42.73109" lon="1.92761">
        <ele>1530.5999755859</ele>
        <time>2014-01-18T11:08:37.000Z</time>
      </trkpt>
      <trkpt lat="42.73113" lon="1.92756">
        <ele>1528.1999511719</ele>
        <time>2014-01-18T11:08:43.000Z</time>
      </trkpt>
      <trkpt lat="42.73113" lon="1.92755">
        <ele>1527.8000488281</ele>
        <time>2014-01-18T11:08:44.000Z</time>
      </trkpt>
      <trkpt lat="42.73118" lon="1.92751">
        <ele>1525.4000244141</ele>
        <time>2014-01-18T11:08:51.000Z</time>
      </trkpt>
      <trkpt lat="42.73124" lon="1.92747">
        <ele>1523.1999511719</ele>
        <time>2014-01-18T11:08:57.000Z</time>
      </trkpt>
      <trkpt lat="42.73128" lon="1.92743">
        <ele>1521.1999511719</ele>
        <time>2014-01-18T11:09:06.000Z</time>
      </trkpt>
      <trkpt lat="42.73133" lon="1.9274">
        <ele>1519.4000244141</ele>
        <time>2014-01-18T11:09:12.000Z</time>
      </trkpt>
      <trkpt lat="42.73136" lon="1.92737">
        <ele>1518</ele>
        <time>2014-01-18T11:09:18.000Z</time>
      </trkpt>
      <trkpt lat="42.7314" lon="1.92737">
        <ele>1517.5999755859</ele>
        <time>2014-01-18T11:09:22.000Z</time>
      </trkpt>
      <trkpt lat="42.73143" lon="1.92738">
        <ele>1517.5999755859</ele>
        <time>2014-01-18T11:09:26.000Z</time>
      </trkpt>
      <trkpt lat="42.73143" lon="1.92738">
        <ele>1517.8000488281</ele>
        <time>2014-01-18T11:09:37.000Z</time>
      </trkpt>
      <trkpt lat="42.73146" lon="1.92739">
        <ele>1517.5999755859</ele>
        <time>2014-01-18T11:09:45.000Z</time>
      </trkpt>
      <trkpt lat="42.73148" lon="1.92739">
        <ele>1517.5999755859</ele>
        <time>2014-01-18T11:09:54.000Z</time>
      </trkpt>
      <trkpt lat="42.73153" lon="1.9274">
        <ele>1517.4000244141</ele>
        <time>2014-01-18T11:09:59.000Z</time>
      </trkpt>
      <trkpt lat="42.73157" lon="1.92741">
        <ele>1517.5999755859</ele>
        <time>2014-01-18T11:10:03.000Z</time>
      </trkpt>
      <trkpt lat="42.73163" lon="1.92745">
        <ele>1519</ele>
        <time>2014-01-18T11:10:11.000Z</time>
      </trkpt>
      <trkpt lat="42.73164" lon="1.92746">
        <ele>1519.1999511719</ele>
        <time>2014-01-18T11:10:12.000Z</time>
      </trkpt>
      <trkpt lat="42.73171" lon="1.9275">
        <ele>1519</ele>
        <time>2014-01-18T11:10:19.000Z</time>
      </trkpt>
      <trkpt lat="42.73176" lon="1.92754">
        <ele>1519</ele>
        <time>2014-01-18T11:10:25.000Z</time>
      </trkpt>
      <trkpt lat="42.73179" lon="1.92757">
        <ele>1519.4000244141</ele>
        <time>2014-01-18T11:10:28.000Z</time>
      </trkpt>
      <trkpt lat="42.73181" lon="1.92761">
        <ele>1520</ele>
        <time>2014-01-18T11:10:32.000Z</time>
      </trkpt>
      <trkpt lat="42.73184" lon="1.92764">
        <ele>1520.4000244141</ele>
        <time>2014-01-18T11:10:37.000Z</time>
      </trkpt>
      <trkpt lat="42.73186" lon="1.92767">
        <ele>1520.5999755859</ele>
        <time>2014-01-18T11:10:41.000Z</time>
      </trkpt>
      <trkpt lat="42.7319" lon="1.92773">
        <ele>1521.4000244141</ele>
        <time>2014-01-18T11:10:49.000Z</time>
      </trkpt>
      <trkpt lat="42.73191" lon="1.92774">
        <ele>1521.5999755859</ele>
        <time>2014-01-18T11:10:50.000Z</time>
      </trkpt>
      <trkpt lat="42.73195" lon="1.9278">
        <ele>1522.4000244141</ele>
        <time>2014-01-18T11:10:56.000Z</time>
      </trkpt>
      <trkpt lat="42.73198" lon="1.92784">
        <ele>1523</ele>
        <time>2014-01-18T11:11:02.000Z</time>
      </trkpt>
      <trkpt lat="42.73199" lon="1.92785">
        <ele>1523.1999511719</ele>
        <time>2014-01-18T11:11:03.000Z</time>
      </trkpt>
      <trkpt lat="42.732" lon="1.92786">
        <ele>1523.1999511719</ele>
        <time>2014-01-18T11:11:04.000Z</time>
      </trkpt>
      <trkpt lat="42.73203" lon="1.92791">
        <ele>1524.1999511719</ele>
        <time>2014-01-18T11:11:10.000Z</time>
      </trkpt>
      <trkpt lat="42.73206" lon="1.92796">
        <ele>1525.1999511719</ele>
        <time>2014-01-18T11:11:16.000Z</time>
      </trkpt>
      <trkpt lat="42.73207" lon="1.92798">
        <ele>1525.5999755859</ele>
        <time>2014-01-18T11:11:17.000Z</time>
      </trkpt>
      <trkpt lat="42.7321" lon="1.92804">
        <ele>1526.5999755859</ele>
        <time>2014-01-18T11:11:24.000Z</time>
      </trkpt>
      <trkpt lat="42.73214" lon="1.92809">
        <ele>1527.5999755859</ele>
        <time>2014-01-18T11:11:31.000Z</time>
      </trkpt>
      <trkpt lat="42.73218" lon="1.92814">
        <ele>1528</ele>
        <time>2014-01-18T11:11:38.000Z</time>
      </trkpt>
      <trkpt lat="42.73221" lon="1.92818">
        <ele>1528.5999755859</ele>
        <time>2014-01-18T11:11:43.000Z</time>
      </trkpt>
      <trkpt lat="42.73223" lon="1.92823">
        <ele>1529.8000488281</ele>
        <time>2014-01-18T11:11:50.000Z</time>
      </trkpt>
      <trkpt lat="42.73227" lon="1.92829">
        <ele>1531.1999511719</ele>
        <time>2014-01-18T11:11:56.000Z</time>
      </trkpt>
      <trkpt lat="42.73227" lon="1.92831">
        <ele>1531.5999755859</ele>
        <time>2014-01-18T11:11:57.000Z</time>
      </trkpt>
      <trkpt lat="42.73231" lon="1.92839">
        <ele>1533.5999755859</ele>
        <time>2014-01-18T11:12:05.000Z</time>
      </trkpt>
      <trkpt lat="42.73232" lon="1.92841">
        <ele>1534</ele>
        <time>2014-01-18T11:12:08.000Z</time>
      </trkpt>
      <trkpt lat="42.73234" lon="1.92843">
        <ele>1534.1999511719</ele>
        <time>2014-01-18T11:12:10.000Z</time>
      </trkpt>
      <trkpt lat="42.73239" lon="1.92849">
        <ele>1534.5999755859</ele>
        <time>2014-01-18T11:12:17.000Z</time>
      </trkpt>
      <trkpt lat="42.73243" lon="1.92857">
        <ele>1536</ele>
        <time>2014-01-18T11:12:26.000Z</time>
      </trkpt>
      <trkpt lat="42.73247" lon="1.92862">
        <ele>1536.5999755859</ele>
        <time>2014-01-18T11:12:32.000Z</time>
      </trkpt>
      <trkpt lat="42.7325" lon="1.92867">
        <ele>1537.4000244141</ele>
        <time>2014-01-18T11:12:38.000Z</time>
      </trkpt>
      <trkpt lat="42.73252" lon="1.92871">
        <ele>1538.4000244141</ele>
        <time>2014-01-18T11:12:44.000Z</time>
      </trkpt>
      <trkpt lat="42.73254" lon="1.92875">
        <ele>1538.5999755859</ele>
        <time>2014-01-18T11:12:53.000Z</time>
      </trkpt>
      <trkpt lat="42.73258" lon="1.9288">
        <ele>1538.4000244141</ele>
        <time>2014-01-18T11:12:59.000Z</time>
      </trkpt>
      <trkpt lat="42.73263" lon="1.92883">
        <ele>1537.5999755859</ele>
        <time>2014-01-18T11:13:06.000Z</time>
      </trkpt>
      <trkpt lat="42.73263" lon="1.92884">
        <ele>1537.8000488281</ele>
        <time>2014-01-18T11:13:15.000Z</time>
      </trkpt>
      <trkpt lat="42.73265" lon="1.9289">
        <ele>1539.1999511719</ele>
        <time>2014-01-18T11:13:44.000Z</time>
      </trkpt>
      <trkpt lat="42.73267" lon="1.92894">
        <ele>1540.1999511719</ele>
        <time>2014-01-18T11:13:49.000Z</time>
      </trkpt>
      <trkpt lat="42.73267" lon="1.92896">
        <ele>1540.8000488281</ele>
        <time>2014-01-18T11:13:54.000Z</time>
      </trkpt>
      <trkpt lat="42.7327" lon="1.92901">
        <ele>1541.5999755859</ele>
        <time>2014-01-18T11:13:59.000Z</time>
      </trkpt>
      <trkpt lat="42.73271" lon="1.92905">
        <ele>1542.1999511719</ele>
        <time>2014-01-18T11:14:03.000Z</time>
      </trkpt>
      <trkpt lat="42.73273" lon="1.9291">
        <ele>1543.4000244141</ele>
        <time>2014-01-18T11:14:07.000Z</time>
      </trkpt>
      <trkpt lat="42.73275" lon="1.92917">
        <ele>1545.4000244141</ele>
        <time>2014-01-18T11:14:14.000Z</time>
      </trkpt>
      <trkpt lat="42.73279" lon="1.92924">
        <ele>1545.8000488281</ele>
        <time>2014-01-18T11:14:21.000Z</time>
      </trkpt>
      <trkpt lat="42.73281" lon="1.92927">
        <ele>1545.8000488281</ele>
        <time>2014-01-18T11:14:24.000Z</time>
      </trkpt>
      <trkpt lat="42.73287" lon="1.92933">
        <ele>1545.1999511719</ele>
        <time>2014-01-18T11:14:32.000Z</time>
      </trkpt>
      <trkpt lat="42.73291" lon="1.92936">
        <ele>1544.8000488281</ele>
        <time>2014-01-18T11:14:37.000Z</time>
      </trkpt>
      <trkpt lat="42.73292" lon="1.92938">
        <ele>1544.5999755859</ele>
        <time>2014-01-18T11:14:39.000Z</time>
      </trkpt>
      <trkpt lat="42.73296" lon="1.92941">
        <ele>1544</ele>
        <time>2014-01-18T11:14:45.000Z</time>
      </trkpt>
      <trkpt lat="42.73299" lon="1.92944">
        <ele>1543.4000244141</ele>
        <time>2014-01-18T11:14:50.000Z</time>
      </trkpt>
      <trkpt lat="42.73302" lon="1.92948">
        <ele>1543.1999511719</ele>
        <time>2014-01-18T11:14:56.000Z</time>
      </trkpt>
      <trkpt lat="42.73306" lon="1.92953">
        <ele>1543.1999511719</ele>
        <time>2014-01-18T11:15:03.000Z</time>
      </trkpt>
      <trkpt lat="42.73309" lon="1.92955">
        <ele>1542.5999755859</ele>
        <time>2014-01-18T11:15:07.000Z</time>
      </trkpt>
      <trkpt lat="42.73313" lon="1.92961">
        <ele>1542.5999755859</ele>
        <time>2014-01-18T11:15:27.000Z</time>
      </trkpt>
      <trkpt lat="42.73321" lon="1.92974">
        <ele>1543</ele>
        <time>2014-01-18T11:15:41.000Z</time>
      </trkpt>
      <trkpt lat="42.73321" lon="1.92975">
        <ele>1543</ele>
        <time>2014-01-18T11:15:42.000Z</time>
      </trkpt>
      <trkpt lat="42.73327" lon="1.92983">
        <ele>1542.8000488281</ele>
        <time>2014-01-18T11:15:51.000Z</time>
      </trkpt>
      <trkpt lat="42.7333" lon="1.92988">
        <ele>1542.8000488281</ele>
        <time>2014-01-18T11:15:57.000Z</time>
      </trkpt>
      <trkpt lat="42.73332" lon="1.92992">
        <ele>1543</ele>
        <time>2014-01-18T11:16:03.000Z</time>
      </trkpt>
      <trkpt lat="42.73333" lon="1.92994">
        <ele>1543.4000244141</ele>
        <time>2014-01-18T11:16:08.000Z</time>
      </trkpt>
      <trkpt lat="42.73336" lon="1.92999">
        <ele>1543.5999755859</ele>
        <time>2014-01-18T11:16:17.000Z</time>
      </trkpt>
      <trkpt lat="42.73338" lon="1.93004">
        <ele>1543.8000488281</ele>
        <time>2014-01-18T11:16:22.000Z</time>
      </trkpt>
      <trkpt lat="42.73339" lon="1.93007">
        <ele>1544.4000244141</ele>
        <time>2014-01-18T11:16:24.000Z</time>
      </trkpt>
      <trkpt lat="42.7334" lon="1.93011">
        <ele>1544.8000488281</ele>
        <time>2014-01-18T11:16:27.000Z</time>
      </trkpt>
      <trkpt lat="42.73341" lon="1.93015">
        <ele>1545.1999511719</ele>
        <time>2014-01-18T11:16:32.000Z</time>
      </trkpt>
      <trkpt lat="42.73342" lon="1.93019">
        <ele>1546.1999511719</ele>
        <time>2014-01-18T11:16:39.000Z</time>
      </trkpt>
      <trkpt lat="42.73342" lon="1.93021">
        <ele>1546.8000488281</ele>
        <time>2014-01-18T11:16:46.000Z</time>
      </trkpt>
      <trkpt lat="42.73342" lon="1.93026">
        <ele>1548.1999511719</ele>
        <time>2014-01-18T11:16:50.000Z</time>
      </trkpt>
      <trkpt lat="42.73342" lon="1.93027">
        <ele>1548.1999511719</ele>
        <time>2014-01-18T11:16:51.000Z</time>
      </trkpt>
      <trkpt lat="42.73343" lon="1.93032">
        <ele>1549.1999511719</ele>
        <time>2014-01-18T11:16:56.000Z</time>
      </trkpt>
      <trkpt lat="42.73343" lon="1.93033">
        <ele>1549.1999511719</ele>
        <time>2014-01-18T11:16:57.000Z</time>
      </trkpt>
      <trkpt lat="42.73346" lon="1.9304">
        <ele>1550.1999511719</ele>
        <time>2014-01-18T11:17:03.000Z</time>
      </trkpt>
      <trkpt lat="42.73347" lon="1.93045">
        <ele>1551.4000244141</ele>
        <time>2014-01-18T11:17:09.000Z</time>
      </trkpt>
      <trkpt lat="42.73348" lon="1.93052">
        <ele>1552.5999755859</ele>
        <time>2014-01-18T11:17:16.000Z</time>
      </trkpt>
      <trkpt lat="42.73349" lon="1.93057">
        <ele>1553.8000488281</ele>
        <time>2014-01-18T11:17:22.000Z</time>
      </trkpt>
      <trkpt lat="42.7335" lon="1.93064">
        <ele>1555</ele>
        <time>2014-01-18T11:17:28.000Z</time>
      </trkpt>
      <trkpt lat="42.73352" lon="1.93069">
        <ele>1556</ele>
        <time>2014-01-18T11:17:34.000Z</time>
      </trkpt>
      <trkpt lat="42.73352" lon="1.93071">
        <ele>1556.4000244141</ele>
        <time>2014-01-18T11:17:35.000Z</time>
      </trkpt>
      <trkpt lat="42.73353" lon="1.93078">
        <ele>1557.8000488281</ele>
        <time>2014-01-18T11:17:42.000Z</time>
      </trkpt>
      <trkpt lat="42.73355" lon="1.93084">
        <ele>1558.8000488281</ele>
        <time>2014-01-18T11:17:48.000Z</time>
      </trkpt>
      <trkpt lat="42.73356" lon="1.9309">
        <ele>1560.1999511719</ele>
        <time>2014-01-18T11:17:53.000Z</time>
      </trkpt>
      <trkpt lat="42.73358" lon="1.93096">
        <ele>1561.8000488281</ele>
        <time>2014-01-18T11:18:00.000Z</time>
      </trkpt>
      <trkpt lat="42.73359" lon="1.93103">
        <ele>1563.4000244141</ele>
        <time>2014-01-18T11:18:06.000Z</time>
      </trkpt>
      <trkpt lat="42.73358" lon="1.93104">
        <ele>1563.8000488281</ele>
        <time>2014-01-18T11:18:07.000Z</time>
      </trkpt>
      <trkpt lat="42.73358" lon="1.93106">
        <ele>1564.5999755859</ele>
        <time>2014-01-18T11:18:12.000Z</time>
      </trkpt>
      <trkpt lat="42.73359" lon="1.93112">
        <ele>1566.1999511719</ele>
        <time>2014-01-18T11:18:17.000Z</time>
      </trkpt>
      <trkpt lat="42.73359" lon="1.93117">
        <ele>1567.5999755859</ele>
        <time>2014-01-18T11:18:22.000Z</time>
      </trkpt>
      <trkpt lat="42.73359" lon="1.93118">
        <ele>1568</ele>
        <time>2014-01-18T11:18:23.000Z</time>
      </trkpt>
      <trkpt lat="42.73362" lon="1.93125">
        <ele>1569.1999511719</ele>
        <time>2014-01-18T11:18:31.000Z</time>
      </trkpt>
      <trkpt lat="42.73364" lon="1.93129">
        <ele>1569.8000488281</ele>
        <time>2014-01-18T11:18:35.000Z</time>
      </trkpt>
      <trkpt lat="42.73368" lon="1.93135">
        <ele>1570.8000488281</ele>
        <time>2014-01-18T11:18:44.000Z</time>
      </trkpt>
      <trkpt lat="42.73373" lon="1.93138">
        <ele>1570.5999755859</ele>
        <time>2014-01-18T11:18:51.000Z</time>
      </trkpt>
      <trkpt lat="42.73376" lon="1.9314">
        <ele>1570.1999511719</ele>
        <time>2014-01-18T11:18:57.000Z</time>
      </trkpt>
      <trkpt lat="42.73382" lon="1.93139">
        <ele>1568.8000488281</ele>
        <time>2014-01-18T11:19:05.000Z</time>
      </trkpt>
      <trkpt lat="42.73386" lon="1.93138">
        <ele>1567.4000244141</ele>
        <time>2014-01-18T11:19:11.000Z</time>
      </trkpt>
      <trkpt lat="42.73389" lon="1.93138">
        <ele>1566.4000244141</ele>
        <time>2014-01-18T11:19:15.000Z</time>
      </trkpt>
      <trkpt lat="42.73395" lon="1.93137">
        <ele>1564.5999755859</ele>
        <time>2014-01-18T11:19:23.000Z</time>
      </trkpt>
      <trkpt lat="42.73401" lon="1.93138">
        <ele>1563.1999511719</ele>
        <time>2014-01-18T11:19:30.000Z</time>
      </trkpt>
      <trkpt lat="42.73403" lon="1.93137">
        <ele>1562.4000244141</ele>
        <time>2014-01-18T11:19:33.000Z</time>
      </trkpt>
      <trkpt lat="42.73409" lon="1.93137">
        <ele>1560.5999755859</ele>
        <time>2014-01-18T11:19:40.000Z</time>
      </trkpt>
      <trkpt lat="42.73411" lon="1.93136">
        <ele>1560.1999511719</ele>
        <time>2014-01-18T11:19:42.000Z</time>
      </trkpt>
      <trkpt lat="42.73416" lon="1.93137">
        <ele>1558.8000488281</ele>
        <time>2014-01-18T11:19:50.000Z</time>
      </trkpt>
      <trkpt lat="42.7342" lon="1.93136">
        <ele>1558.4000244141</ele>
        <time>2014-01-18T11:19:56.000Z</time>
      </trkpt>
      <trkpt lat="42.73424" lon="1.93135">
        <ele>1557.8000488281</ele>
        <time>2014-01-18T11:20:03.000Z</time>
      </trkpt>
      <trkpt lat="42.73429" lon="1.93137">
        <ele>1558.5999755859</ele>
        <time>2014-01-18T11:20:09.000Z</time>
      </trkpt>
      <trkpt lat="42.73434" lon="1.93136">
        <ele>1558</ele>
        <time>2014-01-18T11:20:14.000Z</time>
      </trkpt>
      <trkpt lat="42.73441" lon="1.93139">
        <ele>1559.1999511719</ele>
        <time>2014-01-18T11:20:22.000Z</time>
      </trkpt>
      <trkpt lat="42.73444" lon="1.93142">
        <ele>1560.8000488281</ele>
        <time>2014-01-18T11:20:27.000Z</time>
      </trkpt>
      <trkpt lat="42.73449" lon="1.93146">
        <ele>1562.4000244141</ele>
        <time>2014-01-18T11:20:34.000Z</time>
      </trkpt>
      <trkpt lat="42.73455" lon="1.93148">
        <ele>1563.1999511719</ele>
        <time>2014-01-18T11:20:41.000Z</time>
      </trkpt>
      <trkpt lat="42.73456" lon="1.93149">
        <ele>1563.1999511719</ele>
        <time>2014-01-18T11:20:42.000Z</time>
      </trkpt>
      <trkpt lat="42.73461" lon="1.93149">
        <ele>1563.5999755859</ele>
        <time>2014-01-18T11:20:48.000Z</time>
      </trkpt>
      <trkpt lat="42.73463" lon="1.93149">
        <ele>1563.4000244141</ele>
        <time>2014-01-18T11:20:52.000Z</time>
      </trkpt>
      <trkpt lat="42.73467" lon="1.93151">
        <ele>1564</ele>
        <time>2014-01-18T11:20:57.000Z</time>
      </trkpt>
      <trkpt lat="42.73471" lon="1.93152">
        <ele>1564.5999755859</ele>
        <time>2014-01-18T11:21:03.000Z</time>
      </trkpt>
      <trkpt lat="42.73475" lon="1.93154">
        <ele>1565.4000244141</ele>
        <time>2014-01-18T11:21:09.000Z</time>
      </trkpt>
      <trkpt lat="42.73479" lon="1.93155">
        <ele>1565.8000488281</ele>
        <time>2014-01-18T11:21:14.000Z</time>
      </trkpt>
      <trkpt lat="42.73484" lon="1.93157">
        <ele>1566.4000244141</ele>
        <time>2014-01-18T11:21:20.000Z</time>
      </trkpt>
      <trkpt lat="42.73486" lon="1.93158">
        <ele>1566.5999755859</ele>
        <time>2014-01-18T11:21:26.000Z</time>
      </trkpt>
      <trkpt lat="42.7349" lon="1.93158">
        <ele>1566.4000244141</ele>
        <time>2014-01-18T11:21:55.000Z</time>
      </trkpt>
      <trkpt lat="42.73493" lon="1.93158">
        <ele>1566.5999755859</ele>
        <time>2014-01-18T11:22:01.000Z</time>
      </trkpt>
      <trkpt lat="42.73495" lon="1.93158">
        <ele>1566.4000244141</ele>
        <time>2014-01-18T11:22:05.000Z</time>
      </trkpt>
      <trkpt lat="42.735" lon="1.9316">
        <ele>1567</ele>
        <time>2014-01-18T11:22:11.000Z</time>
      </trkpt>
      <trkpt lat="42.73502" lon="1.9316">
        <ele>1566.8000488281</ele>
        <time>2014-01-18T11:22:16.000Z</time>
      </trkpt>
      <trkpt lat="42.73504" lon="1.9316">
        <ele>1566</ele>
        <time>2014-01-18T11:22:25.000Z</time>
      </trkpt>
      <trkpt lat="42.73506" lon="1.9316">
        <ele>1565.5999755859</ele>
        <time>2014-01-18T11:22:30.000Z</time>
      </trkpt>
      <trkpt lat="42.73504" lon="1.93159">
        <ele>1565.5999755859</ele>
        <time>2014-01-18T11:22:35.000Z</time>
      </trkpt>
      <trkpt lat="42.73506" lon="1.93159">
        <ele>1565.4000244141</ele>
        <time>2014-01-18T11:22:39.000Z</time>
      </trkpt>
      <trkpt lat="42.73508" lon="1.93162">
        <ele>1565.5999755859</ele>
        <time>2014-01-18T11:22:51.000Z</time>
      </trkpt>
      <trkpt lat="42.73513" lon="1.93164">
        <ele>1564.8000488281</ele>
        <time>2014-01-18T11:22:57.000Z</time>
      </trkpt>
      <trkpt lat="42.73519" lon="1.93165">
        <ele>1563.5999755859</ele>
        <time>2014-01-18T11:23:04.000Z</time>
      </trkpt>
      <trkpt lat="42.7352" lon="1.93166">
        <ele>1563.5999755859</ele>
        <time>2014-01-18T11:23:05.000Z</time>
      </trkpt>
      <trkpt lat="42.73525" lon="1.93166">
        <ele>1562</ele>
        <time>2014-01-18T11:23:10.000Z</time>
      </trkpt>
      <trkpt lat="42.73527" lon="1.93166">
        <ele>1561.8000488281</ele>
        <time>2014-01-18T11:23:12.000Z</time>
      </trkpt>
      <trkpt lat="42.73535" lon="1.93173">
        <ele>1562.1999511719</ele>
        <time>2014-01-18T11:23:23.000Z</time>
      </trkpt>
      <trkpt lat="42.73538" lon="1.93176">
        <ele>1563</ele>
        <time>2014-01-18T11:23:27.000Z</time>
      </trkpt>
      <trkpt lat="42.7354" lon="1.93178">
        <ele>1563.1999511719</ele>
        <time>2014-01-18T11:23:32.000Z</time>
      </trkpt>
      <trkpt lat="42.73543" lon="1.93182">
        <ele>1564</ele>
        <time>2014-01-18T11:23:39.000Z</time>
      </trkpt>
      <trkpt lat="42.73544" lon="1.93182">
        <ele>1564</ele>
        <time>2014-01-18T11:23:47.000Z</time>
      </trkpt>
      <trkpt lat="42.73547" lon="1.93186">
        <ele>1564.5999755859</ele>
        <time>2014-01-18T11:24:06.000Z</time>
      </trkpt>
      <trkpt lat="42.73547" lon="1.93188">
        <ele>1565.5999755859</ele>
        <time>2014-01-18T11:24:11.000Z</time>
      </trkpt>
      <trkpt lat="42.73547" lon="1.93191">
        <ele>1567</ele>
        <time>2014-01-18T11:24:45.000Z</time>
      </trkpt>
      <trkpt lat="42.73543" lon="1.93195">
        <ele>1569.8000488281</ele>
        <time>2014-01-18T11:24:52.000Z</time>
      </trkpt>
      <trkpt lat="42.73542" lon="1.93197">
        <ele>1571.1999511719</ele>
        <time>2014-01-18T11:24:56.000Z</time>
      </trkpt>
      <trkpt lat="42.73539" lon="1.93199">
        <ele>1572.5999755859</ele>
        <time>2014-01-18T11:25:01.000Z</time>
      </trkpt>
      <trkpt lat="42.73537" lon="1.93201">
        <ele>1574.4000244141</ele>
        <time>2014-01-18T11:25:06.000Z</time>
      </trkpt>
      <trkpt lat="42.73535" lon="1.93203">
        <ele>1576</ele>
        <time>2014-01-18T11:25:11.000Z</time>
      </trkpt>
      <trkpt lat="42.73532" lon="1.93205">
        <ele>1577.1999511719</ele>
        <time>2014-01-18T11:25:16.000Z</time>
      </trkpt>
      <trkpt lat="42.73529" lon="1.93204">
        <ele>1577.8000488281</ele>
        <time>2014-01-18T11:25:50.000Z</time>
      </trkpt>
      <trkpt lat="42.73527" lon="1.93207">
        <ele>1579.4000244141</ele>
        <time>2014-01-18T11:25:57.000Z</time>
      </trkpt>
      <trkpt lat="42.73525" lon="1.932">
        <ele>1577.4000244141</ele>
        <time>2014-01-18T11:27:03.000Z</time>
      </trkpt>
      <trkpt lat="42.73524" lon="1.93201">
        <ele>1577.8000488281</ele>
        <time>2014-01-18T11:27:09.000Z</time>
      </trkpt>
      <trkpt lat="42.73522" lon="1.93201">
        <ele>1578.5999755859</ele>
        <time>2014-01-18T11:27:14.000Z</time>
      </trkpt>
      <trkpt lat="42.7352" lon="1.93202">
        <ele>1579.4000244141</ele>
        <time>2014-01-18T11:27:18.000Z</time>
      </trkpt>
      <trkpt lat="42.7352" lon="1.93203">
        <ele>1580</ele>
        <time>2014-01-18T11:27:25.000Z</time>
      </trkpt>
      <trkpt lat="42.73521" lon="1.93208">
        <ele>1581.8000488281</ele>
        <time>2014-01-18T11:27:35.000Z</time>
      </trkpt>
      <trkpt lat="42.7352" lon="1.93211">
        <ele>1583.1999511719</ele>
        <time>2014-01-18T11:27:50.000Z</time>
      </trkpt>
      <trkpt lat="42.7352" lon="1.93212">
        <ele>1583.5999755859</ele>
        <time>2014-01-18T11:27:56.000Z</time>
      </trkpt>
      <trkpt lat="42.73522" lon="1.93213">
        <ele>1583.5999755859</ele>
        <time>2014-01-18T11:28:07.000Z</time>
      </trkpt>
      <trkpt lat="42.7352" lon="1.93212">
        <ele>1584</ele>
        <time>2014-01-18T11:28:34.000Z</time>
      </trkpt>
      <trkpt lat="42.73519" lon="1.93212">
        <ele>1584.1999511719</ele>
        <time>2014-01-18T11:28:41.000Z</time>
      </trkpt>
      <trkpt lat="42.73518" lon="1.93211">
        <ele>1584</ele>
        <time>2014-01-18T11:29:05.000Z</time>
      </trkpt>
      <trkpt lat="42.73518" lon="1.93211">
        <ele>1583.5999755859</ele>
        <time>2014-01-18T11:29:14.000Z</time>
      </trkpt>
      <trkpt lat="42.73514" lon="1.93205">
        <ele>1582.4000244141</ele>
        <time>2014-01-18T11:29:20.000Z</time>
      </trkpt>
      <trkpt lat="42.73523" lon="1.93202">
        <ele>1578.1999511719</ele>
        <time>2014-01-18T11:29:55.000Z</time>
      </trkpt>
      <trkpt lat="42.73522" lon="1.932">
        <ele>1578</ele>
        <time>2014-01-18T11:30:06.000Z</time>
      </trkpt>
      <trkpt lat="42.73524" lon="1.932">
        <ele>1577.4000244141</ele>
        <time>2014-01-18T11:30:27.000Z</time>
      </trkpt>
      <trkpt lat="42.7353" lon="1.93199">
        <ele>1575.1999511719</ele>
        <time>2014-01-18T11:30:46.000Z</time>
      </trkpt>
      <trkpt lat="42.73531" lon="1.93199">
        <ele>1574.8000488281</ele>
        <time>2014-01-18T11:30:53.000Z</time>
      </trkpt>
      <trkpt lat="42.73533" lon="1.93198">
        <ele>1574</ele>
        <time>2014-01-18T11:31:09.000Z</time>
      </trkpt>
      <trkpt lat="42.73534" lon="1.932">
        <ele>1574.5999755859</ele>
        <time>2014-01-18T11:31:25.000Z</time>
      </trkpt>
      <trkpt lat="42.73536" lon="1.932">
        <ele>1574.1999511719</ele>
        <time>2014-01-18T11:31:31.000Z</time>
      </trkpt>
      <trkpt lat="42.73537" lon="1.932">
        <ele>1573.5999755859</ele>
        <time>2014-01-18T11:31:35.000Z</time>
      </trkpt>
      <trkpt lat="42.73538" lon="1.93199">
        <ele>1573</ele>
        <time>2014-01-18T11:31:39.000Z</time>
      </trkpt>
      <trkpt lat="42.73538" lon="1.93203">
        <ele>1574.5999755859</ele>
        <time>2014-01-18T11:31:46.000Z</time>
      </trkpt>
      <trkpt lat="42.73539" lon="1.93206">
        <ele>1575.8000488281</ele>
        <time>2014-01-18T11:31:50.000Z</time>
      </trkpt>
      <trkpt lat="42.7354" lon="1.93212">
        <ele>1578.4000244141</ele>
        <time>2014-01-18T11:31:56.000Z</time>
      </trkpt>
      <trkpt lat="42.7354" lon="1.93218">
        <ele>1580.8000488281</ele>
        <time>2014-01-18T11:32:02.000Z</time>
      </trkpt>
      <trkpt lat="42.73542" lon="1.93221">
        <ele>1581.8000488281</ele>
        <time>2014-01-18T11:32:11.000Z</time>
      </trkpt>
      <trkpt lat="42.73542" lon="1.93222">
        <ele>1582.4000244141</ele>
        <time>2014-01-18T11:32:18.000Z</time>
      </trkpt>
      <trkpt lat="42.73545" lon="1.93224">
        <ele>1582.8000488281</ele>
        <time>2014-01-18T11:32:23.000Z</time>
      </trkpt>
      <trkpt lat="42.73544" lon="1.93226">
        <ele>1583.5999755859</ele>
        <time>2014-01-18T11:32:28.000Z</time>
      </trkpt>
      <trkpt lat="42.73544" lon="1.93229">
        <ele>1585</ele>
        <time>2014-01-18T11:32:36.000Z</time>
      </trkpt>
      <trkpt lat="42.73542" lon="1.93228">
        <ele>1585</ele>
        <time>2014-01-18T11:32:54.000Z</time>
      </trkpt>
      <trkpt lat="42.73543" lon="1.93231">
        <ele>1586.4000244141</ele>
        <time>2014-01-18T11:33:01.000Z</time>
      </trkpt>
      <trkpt lat="42.73544" lon="1.93232">
        <ele>1586.1999511719</ele>
        <time>2014-01-18T11:33:13.000Z</time>
      </trkpt>
      <trkpt lat="42.73543" lon="1.93228">
        <ele>1584.8000488281</ele>
        <time>2014-01-18T11:33:45.000Z</time>
      </trkpt>
      <trkpt lat="42.73541" lon="1.93228">
        <ele>1585.1999511719</ele>
        <time>2014-01-18T11:33:50.000Z</time>
      </trkpt>
      <trkpt lat="42.73539" lon="1.9323">
        <ele>1586.4000244141</ele>
        <time>2014-01-18T11:33:58.000Z</time>
      </trkpt>
      <trkpt lat="42.7354" lon="1.93227">
        <ele>1585</ele>
        <time>2014-01-18T11:34:19.000Z</time>
      </trkpt>
      <trkpt lat="42.73543" lon="1.93237">
        <ele>1589</ele>
        <time>2014-01-18T11:34:56.000Z</time>
      </trkpt>
      <trkpt lat="42.73541" lon="1.93236">
        <ele>1588.5999755859</ele>
        <time>2014-01-18T11:35:29.000Z</time>
      </trkpt>
      <trkpt lat="42.73541" lon="1.93231">
        <ele>1586.8000488281</ele>
        <time>2014-01-18T11:36:04.000Z</time>
      </trkpt>
      <trkpt lat="42.73538" lon="1.93232">
        <ele>1587.5999755859</ele>
        <time>2014-01-18T11:36:06.000Z</time>
      </trkpt>
      <trkpt lat="42.73537" lon="1.93231">
        <ele>1587.4000244141</ele>
        <time>2014-01-18T11:36:13.000Z</time>
      </trkpt>
      <trkpt lat="42.73536" lon="1.93228">
        <ele>1586.8000488281</ele>
        <time>2014-01-18T11:36:23.000Z</time>
      </trkpt>
      <trkpt lat="42.73534" lon="1.93228">
        <ele>1586.8000488281</ele>
        <time>2014-01-18T11:36:28.000Z</time>
      </trkpt>
      <trkpt lat="42.73535" lon="1.93224">
        <ele>1585</ele>
        <time>2014-01-18T11:36:32.000Z</time>
      </trkpt>
      <trkpt lat="42.73534" lon="1.93222">
        <ele>1584.4000244141</ele>
        <time>2014-01-18T11:36:35.000Z</time>
      </trkpt>
      <trkpt lat="42.73534" lon="1.93221">
        <ele>1584.1999511719</ele>
        <time>2014-01-18T11:36:37.000Z</time>
      </trkpt>
      <trkpt lat="42.73533" lon="1.93218">
        <ele>1582.8000488281</ele>
        <time>2014-01-18T11:36:45.000Z</time>
      </trkpt>
      <trkpt lat="42.73532" lon="1.93218">
        <ele>1583</ele>
        <time>2014-01-18T11:36:50.000Z</time>
      </trkpt>
      <trkpt lat="42.73531" lon="1.93215">
        <ele>1582.1999511719</ele>
        <time>2014-01-18T11:36:55.000Z</time>
      </trkpt>
      <trkpt lat="42.73529" lon="1.93214">
        <ele>1582</ele>
        <time>2014-01-18T11:37:00.000Z</time>
      </trkpt>
      <trkpt lat="42.73526" lon="1.93213">
        <ele>1582.5999755859</ele>
        <time>2014-01-18T11:37:06.000Z</time>
      </trkpt>
      <trkpt lat="42.73526" lon="1.9321">
        <ele>1581.1999511719</ele>
        <time>2014-01-18T11:37:15.000Z</time>
      </trkpt>
      <trkpt lat="42.73527" lon="1.9321">
        <ele>1580.8000488281</ele>
        <time>2014-01-18T11:37:29.000Z</time>
      </trkpt>
      <trkpt lat="42.73528" lon="1.93209">
        <ele>1580.1999511719</ele>
        <time>2014-01-18T11:37:39.000Z</time>
      </trkpt>
      <trkpt lat="42.73528" lon="1.93209">
        <ele>1580</ele>
        <time>2014-01-18T11:37:57.000Z</time>
      </trkpt>
      <trkpt lat="42.73529" lon="1.9321">
        <ele>1580.4000244141</ele>
        <time>2014-01-18T11:38:45.000Z</time>
      </trkpt>
      <trkpt lat="42.73556" lon="1.93198">
        <ele>1567.4000244141</ele>
        <time>2014-01-18T12:11:58.000Z</time>
      </trkpt>
      <trkpt lat="42.7356" lon="1.93203">
        <ele>1568.5999755859</ele>
        <time>2014-01-18T12:12:05.000Z</time>
      </trkpt>
      <trkpt lat="42.73564" lon="1.93208">
        <ele>1570.1999511719</ele>
        <time>2014-01-18T12:12:10.000Z</time>
      </trkpt>
      <trkpt lat="42.73564" lon="1.93209">
        <ele>1570.4000244141</ele>
        <time>2014-01-18T12:12:11.000Z</time>
      </trkpt>
      <trkpt lat="42.73567" lon="1.93212">
        <ele>1571</ele>
        <time>2014-01-18T12:12:15.000Z</time>
      </trkpt>
      <trkpt lat="42.7357" lon="1.93216">
        <ele>1572.1999511719</ele>
        <time>2014-01-18T12:12:21.000Z</time>
      </trkpt>
      <trkpt lat="42.73572" lon="1.9322">
        <ele>1573.5999755859</ele>
        <time>2014-01-18T12:12:26.000Z</time>
      </trkpt>
      <trkpt lat="42.73576" lon="1.93225">
        <ele>1575</ele>
        <time>2014-01-18T12:12:31.000Z</time>
      </trkpt>
      <trkpt lat="42.73579" lon="1.9323">
        <ele>1576.4000244141</ele>
        <time>2014-01-18T12:12:36.000Z</time>
      </trkpt>
      <trkpt lat="42.73582" lon="1.93235">
        <ele>1578.1999511719</ele>
        <time>2014-01-18T12:12:43.000Z</time>
      </trkpt>
      <trkpt lat="42.73585" lon="1.93238">
        <ele>1578.4000244141</ele>
        <time>2014-01-18T12:12:47.000Z</time>
      </trkpt>
      <trkpt lat="42.73588" lon="1.93242">
        <ele>1579.1999511719</ele>
        <time>2014-01-18T12:12:52.000Z</time>
      </trkpt>
      <trkpt lat="42.73592" lon="1.93246">
        <ele>1579.8000488281</ele>
        <time>2014-01-18T12:12:58.000Z</time>
      </trkpt>
      <trkpt lat="42.73595" lon="1.9325">
        <ele>1580.1999511719</ele>
        <time>2014-01-18T12:13:05.000Z</time>
      </trkpt>
      <trkpt lat="42.73599" lon="1.93254">
        <ele>1580.8000488281</ele>
        <time>2014-01-18T12:13:10.000Z</time>
      </trkpt>
      <trkpt lat="42.73601" lon="1.93257">
        <ele>1581</ele>
        <time>2014-01-18T12:13:15.000Z</time>
      </trkpt>
      <trkpt lat="42.73604" lon="1.9326">
        <ele>1581.4000244141</ele>
        <time>2014-01-18T12:13:19.000Z</time>
      </trkpt>
      <trkpt lat="42.73609" lon="1.93265">
        <ele>1581.4000244141</ele>
        <time>2014-01-18T12:13:25.000Z</time>
      </trkpt>
      <trkpt lat="42.73609" lon="1.93265">
        <ele>1581.5999755859</ele>
        <time>2014-01-18T12:13:26.000Z</time>
      </trkpt>
      <trkpt lat="42.73613" lon="1.93269">
        <ele>1581.8000488281</ele>
        <time>2014-01-18T12:13:32.000Z</time>
      </trkpt>
      <trkpt lat="42.73616" lon="1.93273">
        <ele>1581.8000488281</ele>
        <time>2014-01-18T12:13:37.000Z</time>
      </trkpt>
      <trkpt lat="42.73622" lon="1.93277">
        <ele>1581.1999511719</ele>
        <time>2014-01-18T12:13:45.000Z</time>
      </trkpt>
      <trkpt lat="42.73627" lon="1.93283">
        <ele>1581.8000488281</ele>
        <time>2014-01-18T12:13:53.000Z</time>
      </trkpt>
      <trkpt lat="42.73629" lon="1.93286">
        <ele>1582.1999511719</ele>
        <time>2014-01-18T12:13:59.000Z</time>
      </trkpt>
      <trkpt lat="42.73633" lon="1.9329">
        <ele>1582.4000244141</ele>
        <time>2014-01-18T12:14:05.000Z</time>
      </trkpt>
      <trkpt lat="42.73636" lon="1.93294">
        <ele>1582.8000488281</ele>
        <time>2014-01-18T12:14:10.000Z</time>
      </trkpt>
      <trkpt lat="42.7364" lon="1.93298">
        <ele>1582.8000488281</ele>
        <time>2014-01-18T12:14:16.000Z</time>
      </trkpt>
      <trkpt lat="42.73644" lon="1.93303">
        <ele>1582.8000488281</ele>
        <time>2014-01-18T12:14:23.000Z</time>
      </trkpt>
      <trkpt lat="42.73648" lon="1.93307">
        <ele>1583</ele>
        <time>2014-01-18T12:14:28.000Z</time>
      </trkpt>
      <trkpt lat="42.73652" lon="1.93312">
        <ele>1583.1999511719</ele>
        <time>2014-01-18T12:14:34.000Z</time>
      </trkpt>
      <trkpt lat="42.73652" lon="1.93313">
        <ele>1583.1999511719</ele>
        <time>2014-01-18T12:14:35.000Z</time>
      </trkpt>
      <trkpt lat="42.73658" lon="1.93317">
        <ele>1582.8000488281</ele>
        <time>2014-01-18T12:14:43.000Z</time>
      </trkpt>
      <trkpt lat="42.73658" lon="1.93318">
        <ele>1582.5999755859</ele>
        <time>2014-01-18T12:14:45.000Z</time>
      </trkpt>
      <trkpt lat="42.73662" lon="1.93323">
        <ele>1582.8000488281</ele>
        <time>2014-01-18T12:14:51.000Z</time>
      </trkpt>
      <trkpt lat="42.73665" lon="1.93325">
        <ele>1582.1999511719</ele>
        <time>2014-01-18T12:14:56.000Z</time>
      </trkpt>
      <trkpt lat="42.73669" lon="1.93329">
        <ele>1582.4000244141</ele>
        <time>2014-01-18T12:15:02.000Z</time>
      </trkpt>
      <trkpt lat="42.73672" lon="1.93333">
        <ele>1583</ele>
        <time>2014-01-18T12:15:08.000Z</time>
      </trkpt>
      <trkpt lat="42.73676" lon="1.93339">
        <ele>1584</ele>
        <time>2014-01-18T12:15:15.000Z</time>
      </trkpt>
      <trkpt lat="42.73679" lon="1.93344">
        <ele>1584.8000488281</ele>
        <time>2014-01-18T12:15:21.000Z</time>
      </trkpt>
      <trkpt lat="42.73681" lon="1.93348">
        <ele>1585.4000244141</ele>
        <time>2014-01-18T12:15:26.000Z</time>
      </trkpt>
      <trkpt lat="42.73683" lon="1.9335">
        <ele>1585.5999755859</ele>
        <time>2014-01-18T12:15:28.000Z</time>
      </trkpt>
      <trkpt lat="42.73686" lon="1.93355">
        <ele>1586.4000244141</ele>
        <time>2014-01-18T12:15:34.000Z</time>
      </trkpt>
      <trkpt lat="42.73686" lon="1.93356">
        <ele>1586.5999755859</ele>
        <time>2014-01-18T12:15:35.000Z</time>
      </trkpt>
      <trkpt lat="42.73688" lon="1.93361">
        <ele>1587.5999755859</ele>
        <time>2014-01-18T12:15:40.000Z</time>
      </trkpt>
      <trkpt lat="42.7369" lon="1.93366">
        <ele>1589.1999511719</ele>
        <time>2014-01-18T12:15:45.000Z</time>
      </trkpt>
      <trkpt lat="42.7369" lon="1.93367">
        <ele>1589.4000244141</ele>
        <time>2014-01-18T12:15:46.000Z</time>
      </trkpt>
      <trkpt lat="42.73692" lon="1.93371">
        <ele>1590</ele>
        <time>2014-01-18T12:15:50.000Z</time>
      </trkpt>
      <trkpt lat="42.73695" lon="1.93375">
        <ele>1590.4000244141</ele>
        <time>2014-01-18T12:15:56.000Z</time>
      </trkpt>
      <trkpt lat="42.73697" lon="1.9338">
        <ele>1591.5999755859</ele>
        <time>2014-01-18T12:16:02.000Z</time>
      </trkpt>
      <trkpt lat="42.73698" lon="1.93384">
        <ele>1592.4000244141</ele>
        <time>2014-01-18T12:16:07.000Z</time>
      </trkpt>
      <trkpt lat="42.73699" lon="1.93388">
        <ele>1593.5999755859</ele>
        <time>2014-01-18T12:16:11.000Z</time>
      </trkpt>
      <trkpt lat="42.737" lon="1.93393">
        <ele>1595.1999511719</ele>
        <time>2014-01-18T12:16:17.000Z</time>
      </trkpt>
      <trkpt lat="42.73701" lon="1.93397">
        <ele>1596.1999511719</ele>
        <time>2014-01-18T12:16:22.000Z</time>
      </trkpt>
      <trkpt lat="42.73703" lon="1.93402">
        <ele>1597.4000244141</ele>
        <time>2014-01-18T12:16:29.000Z</time>
      </trkpt>
      <trkpt lat="42.73703" lon="1.93404">
        <ele>1598.1999511719</ele>
        <time>2014-01-18T12:16:32.000Z</time>
      </trkpt>
      <trkpt lat="42.73706" lon="1.93409">
        <ele>1598.5999755859</ele>
        <time>2014-01-18T12:16:38.000Z</time>
      </trkpt>
      <trkpt lat="42.73708" lon="1.93414">
        <ele>1599.8000488281</ele>
        <time>2014-01-18T12:16:45.000Z</time>
      </trkpt>
      <trkpt lat="42.73709" lon="1.93418">
        <ele>1600.4000244141</ele>
        <time>2014-01-18T12:16:48.000Z</time>
      </trkpt>
      <trkpt lat="42.73711" lon="1.93423">
        <ele>1601</ele>
        <time>2014-01-18T12:16:54.000Z</time>
      </trkpt>
      <trkpt lat="42.73714" lon="1.93428">
        <ele>1601</ele>
        <time>2014-01-18T12:17:00.000Z</time>
      </trkpt>
      <trkpt lat="42.73718" lon="1.93433">
        <ele>1601</ele>
        <time>2014-01-18T12:17:07.000Z</time>
      </trkpt>
      <trkpt lat="42.7372" lon="1.93437">
        <ele>1601</ele>
        <time>2014-01-18T12:17:11.000Z</time>
      </trkpt>
      <trkpt lat="42.73723" lon="1.93444">
        <ele>1602</ele>
        <time>2014-01-18T12:17:18.000Z</time>
      </trkpt>
      <trkpt lat="42.73724" lon="1.93445">
        <ele>1601.5999755859</ele>
        <time>2014-01-18T12:17:20.000Z</time>
      </trkpt>
      <trkpt lat="42.73726" lon="1.9345">
        <ele>1601.8000488281</ele>
        <time>2014-01-18T12:17:25.000Z</time>
      </trkpt>
      <trkpt lat="42.7373" lon="1.93456">
        <ele>1602</ele>
        <time>2014-01-18T12:17:31.000Z</time>
      </trkpt>
      <trkpt lat="42.73733" lon="1.93462">
        <ele>1602</ele>
        <time>2014-01-18T12:17:37.000Z</time>
      </trkpt>
      <trkpt lat="42.73737" lon="1.93468">
        <ele>1602</ele>
        <time>2014-01-18T12:17:45.000Z</time>
      </trkpt>
      <trkpt lat="42.73738" lon="1.93471">
        <ele>1602</ele>
        <time>2014-01-18T12:17:47.000Z</time>
      </trkpt>
      <trkpt lat="42.7374" lon="1.93476">
        <ele>1602.5999755859</ele>
        <time>2014-01-18T12:17:53.000Z</time>
      </trkpt>
      <trkpt lat="42.73741" lon="1.93478">
        <ele>1602.4000244141</ele>
        <time>2014-01-18T12:17:55.000Z</time>
      </trkpt>
      <trkpt lat="42.73744" lon="1.93483">
        <ele>1602.1999511719</ele>
        <time>2014-01-18T12:18:00.000Z</time>
      </trkpt>
      <trkpt lat="42.73746" lon="1.9349">
        <ele>1603.1999511719</ele>
        <time>2014-01-18T12:18:06.000Z</time>
      </trkpt>
      <trkpt lat="42.73747" lon="1.93492">
        <ele>1603.4000244141</ele>
        <time>2014-01-18T12:18:08.000Z</time>
      </trkpt>
      <trkpt lat="42.73748" lon="1.93496">
        <ele>1603.8000488281</ele>
        <time>2014-01-18T12:18:11.000Z</time>
      </trkpt>
      <trkpt lat="42.7375" lon="1.935">
        <ele>1604</ele>
        <time>2014-01-18T12:18:15.000Z</time>
      </trkpt>
      <trkpt lat="42.73752" lon="1.93503">
        <ele>1603.1999511719</ele>
        <time>2014-01-18T12:18:42.000Z</time>
      </trkpt>
      <trkpt lat="42.73753" lon="1.93504">
        <ele>1603.1999511719</ele>
        <time>2014-01-18T12:18:48.000Z</time>
      </trkpt>
      <trkpt lat="42.73754" lon="1.93509">
        <ele>1603.4000244141</ele>
        <time>2014-01-18T12:20:05.000Z</time>
      </trkpt>
      <trkpt lat="42.73754" lon="1.93514">
        <ele>1604.1999511719</ele>
        <time>2014-01-18T12:20:20.000Z</time>
      </trkpt>
      <trkpt lat="42.73757" lon="1.93519">
        <ele>1603.4000244141</ele>
        <time>2014-01-18T12:20:50.000Z</time>
      </trkpt>
      <trkpt lat="42.73757" lon="1.93524">
        <ele>1604</ele>
        <time>2014-01-18T12:20:53.000Z</time>
      </trkpt>
      <trkpt lat="42.73759" lon="1.93527">
        <ele>1603.8000488281</ele>
        <time>2014-01-18T12:20:56.000Z</time>
      </trkpt>
      <trkpt lat="42.7376" lon="1.93531">
        <ele>1604</ele>
        <time>2014-01-18T12:21:00.000Z</time>
      </trkpt>
      <trkpt lat="42.73762" lon="1.93539">
        <ele>1604.1999511719</ele>
        <time>2014-01-18T12:21:07.000Z</time>
      </trkpt>
      <trkpt lat="42.73763" lon="1.93545">
        <ele>1604.1999511719</ele>
        <time>2014-01-18T12:21:13.000Z</time>
      </trkpt>
      <trkpt lat="42.73765" lon="1.9355">
        <ele>1604.1999511719</ele>
        <time>2014-01-18T12:21:17.000Z</time>
      </trkpt>
      <trkpt lat="42.73766" lon="1.93555">
        <ele>1604.5999755859</ele>
        <time>2014-01-18T12:21:21.000Z</time>
      </trkpt>
      <trkpt lat="42.73766" lon="1.93558">
        <ele>1605</ele>
        <time>2014-01-18T12:21:23.000Z</time>
      </trkpt>
      <trkpt lat="42.73766" lon="1.93563">
        <ele>1605.8000488281</ele>
        <time>2014-01-18T12:21:28.000Z</time>
      </trkpt>
      <trkpt lat="42.73767" lon="1.93571">
        <ele>1606.8000488281</ele>
        <time>2014-01-18T12:21:36.000Z</time>
      </trkpt>
      <trkpt lat="42.73767" lon="1.93573">
        <ele>1606.8000488281</ele>
        <time>2014-01-18T12:21:39.000Z</time>
      </trkpt>
      <trkpt lat="42.73769" lon="1.93576">
        <ele>1606.1999511719</ele>
        <time>2014-01-18T12:21:45.000Z</time>
      </trkpt>
      <trkpt lat="42.7377" lon="1.93578">
        <ele>1605.8000488281</ele>
        <time>2014-01-18T12:21:53.000Z</time>
      </trkpt>
      <trkpt lat="42.73771" lon="1.93581">
        <ele>1605.5999755859</ele>
        <time>2014-01-18T12:21:57.000Z</time>
      </trkpt>
      <trkpt lat="42.73773" lon="1.93587">
        <ele>1605.4000244141</ele>
        <time>2014-01-18T12:22:03.000Z</time>
      </trkpt>
      <trkpt lat="42.73774" lon="1.93591">
        <ele>1606</ele>
        <time>2014-01-18T12:22:08.000Z</time>
      </trkpt>
      <trkpt lat="42.73773" lon="1.93594">
        <ele>1606.4000244141</ele>
        <time>2014-01-18T12:22:15.000Z</time>
      </trkpt>
      <trkpt lat="42.73775" lon="1.93595">
        <ele>1606</ele>
        <time>2014-01-18T12:22:21.000Z</time>
      </trkpt>
      <trkpt lat="42.73773" lon="1.93587">
        <ele>1605.8000488281</ele>
        <time>2014-01-18T12:22:55.000Z</time>
      </trkpt>
      <trkpt lat="42.73771" lon="1.9358">
        <ele>1605.4000244141</ele>
        <time>2014-01-18T12:23:01.000Z</time>
      </trkpt>
      <trkpt lat="42.73769" lon="1.93576">
        <ele>1605.8000488281</ele>
        <time>2014-01-18T12:23:06.000Z</time>
      </trkpt>
      <trkpt lat="42.73766" lon="1.93569">
        <ele>1606.4000244141</ele>
        <time>2014-01-18T12:23:12.000Z</time>
      </trkpt>
      <trkpt lat="42.73766" lon="1.93568">
        <ele>1606.4000244141</ele>
        <time>2014-01-18T12:23:13.000Z</time>
      </trkpt>
      <trkpt lat="42.73764" lon="1.9356">
        <ele>1606.1999511719</ele>
        <time>2014-01-18T12:23:21.000Z</time>
      </trkpt>
      <trkpt lat="42.73763" lon="1.93556">
        <ele>1606</ele>
        <time>2014-01-18T12:23:26.000Z</time>
      </trkpt>
      <trkpt lat="42.73762" lon="1.93551">
        <ele>1605.8000488281</ele>
        <time>2014-01-18T12:23:32.000Z</time>
      </trkpt>
      <trkpt lat="42.73761" lon="1.93545">
        <ele>1605.4000244141</ele>
        <time>2014-01-18T12:23:38.000Z</time>
      </trkpt>
      <trkpt lat="42.73759" lon="1.93538">
        <ele>1605.5999755859</ele>
        <time>2014-01-18T12:23:44.000Z</time>
      </trkpt>
      <trkpt lat="42.73756" lon="1.93529">
        <ele>1605.4000244141</ele>
        <time>2014-01-18T12:23:52.000Z</time>
      </trkpt>
      <trkpt lat="42.73755" lon="1.93523">
        <ele>1605.1999511719</ele>
        <time>2014-01-18T12:23:57.000Z</time>
      </trkpt>
      <trkpt lat="42.73753" lon="1.93516">
        <ele>1605</ele>
        <time>2014-01-18T12:24:04.000Z</time>
      </trkpt>
      <trkpt lat="42.73753" lon="1.93515">
        <ele>1604.8000488281</ele>
        <time>2014-01-18T12:24:05.000Z</time>
      </trkpt>
      <trkpt lat="42.73753" lon="1.93514">
        <ele>1604.8000488281</ele>
        <time>2014-01-18T12:24:06.000Z</time>
      </trkpt>
      <trkpt lat="42.73752" lon="1.9351">
        <ele>1604.4000244141</ele>
        <time>2014-01-18T12:24:09.000Z</time>
      </trkpt>
      <trkpt lat="42.73752" lon="1.93509">
        <ele>1604.4000244141</ele>
        <time>2014-01-18T12:24:11.000Z</time>
      </trkpt>
      <trkpt lat="42.7375" lon="1.93501">
        <ele>1604</ele>
        <time>2014-01-18T12:24:19.000Z</time>
      </trkpt>
      <trkpt lat="42.73748" lon="1.93498">
        <ele>1604.1999511719</ele>
        <time>2014-01-18T12:24:26.000Z</time>
      </trkpt>
      <trkpt lat="42.73746" lon="1.93491">
        <ele>1603.8000488281</ele>
        <time>2014-01-18T12:24:32.000Z</time>
      </trkpt>
      <trkpt lat="42.73744" lon="1.93484">
        <ele>1602.8000488281</ele>
        <time>2014-01-18T12:24:37.000Z</time>
      </trkpt>
      <trkpt lat="42.73739" lon="1.93477">
        <ele>1603.4000244141</ele>
        <time>2014-01-18T12:24:44.000Z</time>
      </trkpt>
      <trkpt lat="42.73737" lon="1.93475">
        <ele>1603.8000488281</ele>
        <time>2014-01-18T12:24:47.000Z</time>
      </trkpt>
      <trkpt lat="42.73731" lon="1.93467">
        <ele>1604.1999511719</ele>
        <time>2014-01-18T12:24:55.000Z</time>
      </trkpt>
      <trkpt lat="42.73731" lon="1.93466">
        <ele>1604.4000244141</ele>
        <time>2014-01-18T12:24:56.000Z</time>
      </trkpt>
      <trkpt lat="42.73727" lon="1.93459">
        <ele>1604.1999511719</ele>
        <time>2014-01-18T12:25:02.000Z</time>
      </trkpt>
      <trkpt lat="42.73725" lon="1.93456">
        <ele>1604.1999511719</ele>
        <time>2014-01-18T12:25:07.000Z</time>
      </trkpt>
      <trkpt lat="42.73721" lon="1.93449">
        <ele>1604</ele>
        <time>2014-01-18T12:25:14.000Z</time>
      </trkpt>
      <trkpt lat="42.7372" lon="1.93446">
        <ele>1603.8000488281</ele>
        <time>2014-01-18T12:25:17.000Z</time>
      </trkpt>
      <trkpt lat="42.73714" lon="1.93436">
        <ele>1603.5999755859</ele>
        <time>2014-01-18T12:25:26.000Z</time>
      </trkpt>
      <trkpt lat="42.73713" lon="1.93434">
        <ele>1603.8000488281</ele>
        <time>2014-01-18T12:25:28.000Z</time>
      </trkpt>
      <trkpt lat="42.73709" lon="1.93427">
        <ele>1603.4000244141</ele>
        <time>2014-01-18T12:25:35.000Z</time>
      </trkpt>
      <trkpt lat="42.73707" lon="1.93425">
        <ele>1603.5999755859</ele>
        <time>2014-01-18T12:25:37.000Z</time>
      </trkpt>
      <trkpt lat="42.73703" lon="1.93416">
        <ele>1602.4000244141</ele>
        <time>2014-01-18T12:25:45.000Z</time>
      </trkpt>
      <trkpt lat="42.73702" lon="1.93411">
        <ele>1601.1999511719</ele>
        <time>2014-01-18T12:25:52.000Z</time>
      </trkpt>
      <trkpt lat="42.73699" lon="1.93407">
        <ele>1601</ele>
        <time>2014-01-18T12:25:59.000Z</time>
      </trkpt>
      <trkpt lat="42.73697" lon="1.934">
        <ele>1599.5999755859</ele>
        <time>2014-01-18T12:26:04.000Z</time>
      </trkpt>
      <trkpt lat="42.73694" lon="1.93396">
        <ele>1599</ele>
        <time>2014-01-18T12:26:07.000Z</time>
      </trkpt>
      <trkpt lat="42.73691" lon="1.93386">
        <ele>1596.5999755859</ele>
        <time>2014-01-18T12:26:16.000Z</time>
      </trkpt>
      <trkpt lat="42.7369" lon="1.93384">
        <ele>1596</ele>
        <time>2014-01-18T12:26:17.000Z</time>
      </trkpt>
      <trkpt lat="42.73689" lon="1.93381">
        <ele>1595.4000244141</ele>
        <time>2014-01-18T12:26:25.000Z</time>
      </trkpt>
      <trkpt lat="42.73689" lon="1.93377">
        <ele>1593.8000488281</ele>
        <time>2014-01-18T12:27:34.000Z</time>
      </trkpt>
      <trkpt lat="42.73686" lon="1.93366">
        <ele>1590.5999755859</ele>
        <time>2014-01-18T12:27:42.000Z</time>
      </trkpt>
      <trkpt lat="42.73682" lon="1.93357">
        <ele>1588.5999755859</ele>
        <time>2014-01-18T12:27:49.000Z</time>
      </trkpt>
      <trkpt lat="42.73681" lon="1.93356">
        <ele>1588.4000244141</ele>
        <time>2014-01-18T12:27:50.000Z</time>
      </trkpt>
      <trkpt lat="42.73676" lon="1.93347">
        <ele>1587.1999511719</ele>
        <time>2014-01-18T12:27:57.000Z</time>
      </trkpt>
      <trkpt lat="42.73669" lon="1.93338">
        <ele>1585.8000488281</ele>
        <time>2014-01-18T12:28:07.000Z</time>
      </trkpt>
      <trkpt lat="42.73668" lon="1.93337">
        <ele>1586</ele>
        <time>2014-01-18T12:28:08.000Z</time>
      </trkpt>
      <trkpt lat="42.73663" lon="1.9333">
        <ele>1585.1999511719</ele>
        <time>2014-01-18T12:28:15.000Z</time>
      </trkpt>
      <trkpt lat="42.73657" lon="1.93325">
        <ele>1586</ele>
        <time>2014-01-18T12:28:22.000Z</time>
      </trkpt>
      <trkpt lat="42.73652" lon="1.9332">
        <ele>1586.4000244141</ele>
        <time>2014-01-18T12:28:28.000Z</time>
      </trkpt>
      <trkpt lat="42.73648" lon="1.93314">
        <ele>1585.8000488281</ele>
        <time>2014-01-18T12:28:34.000Z</time>
      </trkpt>
      <trkpt lat="42.73645" lon="1.9331">
        <ele>1585.5999755859</ele>
        <time>2014-01-18T12:28:38.000Z</time>
      </trkpt>
      <trkpt lat="42.73638" lon="1.93304">
        <ele>1585.8000488281</ele>
        <time>2014-01-18T12:28:45.000Z</time>
      </trkpt>
      <trkpt lat="42.73631" lon="1.93296">
        <ele>1585.5999755859</ele>
        <time>2014-01-18T12:28:54.000Z</time>
      </trkpt>
      <trkpt lat="42.73625" lon="1.93288">
        <ele>1584.8000488281</ele>
        <time>2014-01-18T12:29:02.000Z</time>
      </trkpt>
      <trkpt lat="42.73621" lon="1.93282">
        <ele>1583.8000488281</ele>
        <time>2014-01-18T12:29:08.000Z</time>
      </trkpt>
      <trkpt lat="42.73617" lon="1.93277">
        <ele>1583.5999755859</ele>
        <time>2014-01-18T12:29:14.000Z</time>
      </trkpt>
      <trkpt lat="42.73612" lon="1.93274">
        <ele>1584</ele>
        <time>2014-01-18T12:29:20.000Z</time>
      </trkpt>
      <trkpt lat="42.73607" lon="1.93268">
        <ele>1584</ele>
        <time>2014-01-18T12:29:26.000Z</time>
      </trkpt>
      <trkpt lat="42.73601" lon="1.93263">
        <ele>1583.8000488281</ele>
        <time>2014-01-18T12:29:32.000Z</time>
      </trkpt>
      <trkpt lat="42.736" lon="1.93262">
        <ele>1583.8000488281</ele>
        <time>2014-01-18T12:29:33.000Z</time>
      </trkpt>
      <trkpt lat="42.73596" lon="1.93258">
        <ele>1583.4000244141</ele>
        <time>2014-01-18T12:29:39.000Z</time>
      </trkpt>
      <trkpt lat="42.73592" lon="1.93252">
        <ele>1582.5999755859</ele>
        <time>2014-01-18T12:29:46.000Z</time>
      </trkpt>
      <trkpt lat="42.73587" lon="1.93247">
        <ele>1582.4000244141</ele>
        <time>2014-01-18T12:29:52.000Z</time>
      </trkpt>
      <trkpt lat="42.73586" lon="1.93247">
        <ele>1582.4000244141</ele>
        <time>2014-01-18T12:29:54.000Z</time>
      </trkpt>
      <trkpt lat="42.73582" lon="1.93243">
        <ele>1581.8000488281</ele>
        <time>2014-01-18T12:29:59.000Z</time>
      </trkpt>
      <trkpt lat="42.73578" lon="1.93236">
        <ele>1579.8000488281</ele>
        <time>2014-01-18T12:30:06.000Z</time>
      </trkpt>
      <trkpt lat="42.73577" lon="1.93235">
        <ele>1579.5999755859</ele>
        <time>2014-01-18T12:30:07.000Z</time>
      </trkpt>
      <trkpt lat="42.73571" lon="1.93229">
        <ele>1578.1999511719</ele>
        <time>2014-01-18T12:30:15.000Z</time>
      </trkpt>
      <trkpt lat="42.73569" lon="1.93226">
        <ele>1577.1999511719</ele>
        <time>2014-01-18T12:30:18.000Z</time>
      </trkpt>
      <trkpt lat="42.73562" lon="1.93218">
        <ele>1575</ele>
        <time>2014-01-18T12:30:27.000Z</time>
      </trkpt>
      <trkpt lat="42.73558" lon="1.93213">
        <ele>1573.8000488281</ele>
        <time>2014-01-18T12:30:32.000Z</time>
      </trkpt>
      <trkpt lat="42.73553" lon="1.93207">
        <ele>1572.8000488281</ele>
        <time>2014-01-18T12:30:41.000Z</time>
      </trkpt>
      <trkpt lat="42.73552" lon="1.93206">
        <ele>1572.4000244141</ele>
        <time>2014-01-18T12:30:42.000Z</time>
      </trkpt>
      <trkpt lat="42.7355" lon="1.93203">
        <ele>1571.8000488281</ele>
        <time>2014-01-18T12:30:46.000Z</time>
      </trkpt>
      <trkpt lat="42.73545" lon="1.93199">
        <ele>1571.1999511719</ele>
        <time>2014-01-18T12:30:53.000Z</time>
      </trkpt>
      <trkpt lat="42.73542" lon="1.93194">
        <ele>1569.8000488281</ele>
        <time>2014-01-18T12:30:57.000Z</time>
      </trkpt>
      <trkpt lat="42.73541" lon="1.93193">
        <ele>1569.4000244141</ele>
        <time>2014-01-18T12:31:00.000Z</time>
      </trkpt>
      <trkpt lat="42.73538" lon="1.93191">
        <ele>1569.4000244141</ele>
        <time>2014-01-18T12:31:06.000Z</time>
      </trkpt>
      <trkpt lat="42.73533" lon="1.9319">
        <ele>1570.1999511719</ele>
        <time>2014-01-18T12:31:14.000Z</time>
      </trkpt>
      <trkpt lat="42.73531" lon="1.93187">
        <ele>1569.5999755859</ele>
        <time>2014-01-18T12:31:19.000Z</time>
      </trkpt>
      <trkpt lat="42.73527" lon="1.93185">
        <ele>1570.1999511719</ele>
        <time>2014-01-18T12:31:24.000Z</time>
      </trkpt>
      <trkpt lat="42.73526" lon="1.93185">
        <ele>1570.1999511719</ele>
        <time>2014-01-18T12:31:29.000Z</time>
      </trkpt>
      <trkpt lat="42.73523" lon="1.9318">
        <ele>1569</ele>
        <time>2014-01-18T12:31:44.000Z</time>
      </trkpt>
      <trkpt lat="42.73521" lon="1.93178">
        <ele>1568.8000488281</ele>
        <time>2014-01-18T12:31:47.000Z</time>
      </trkpt>
      <trkpt lat="42.73516" lon="1.93178">
        <ele>1570.1999511719</ele>
        <time>2014-01-18T12:31:52.000Z</time>
      </trkpt>
      <trkpt lat="42.73511" lon="1.93176">
        <ele>1570.8000488281</ele>
        <time>2014-01-18T12:31:59.000Z</time>
      </trkpt>
      <trkpt lat="42.73509" lon="1.93174">
        <ele>1570.5999755859</ele>
        <time>2014-01-18T12:32:06.000Z</time>
      </trkpt>
      <trkpt lat="42.73506" lon="1.93172">
        <ele>1570.5999755859</ele>
        <time>2014-01-18T12:32:15.000Z</time>
      </trkpt>
      <trkpt lat="42.73501" lon="1.93171">
        <ele>1571.4000244141</ele>
        <time>2014-01-18T12:32:20.000Z</time>
      </trkpt>
      <trkpt lat="42.73498" lon="1.93171">
        <ele>1572</ele>
        <time>2014-01-18T12:32:24.000Z</time>
      </trkpt>
      <trkpt lat="42.73494" lon="1.93169">
        <ele>1571.1999511719</ele>
        <time>2014-01-18T12:32:28.000Z</time>
      </trkpt>
      <trkpt lat="42.73493" lon="1.93169">
        <ele>1571</ele>
        <time>2014-01-18T12:32:30.000Z</time>
      </trkpt>
      <trkpt lat="42.73487" lon="1.9317">
        <ele>1571.8000488281</ele>
        <time>2014-01-18T12:32:35.000Z</time>
      </trkpt>
      <trkpt lat="42.73484" lon="1.93172">
        <ele>1572.4000244141</ele>
        <time>2014-01-18T12:32:39.000Z</time>
      </trkpt>
      <trkpt lat="42.7348" lon="1.93171">
        <ele>1572.4000244141</ele>
        <time>2014-01-18T12:32:42.000Z</time>
      </trkpt>
      <trkpt lat="42.73476" lon="1.93171">
        <ele>1572.4000244141</ele>
        <time>2014-01-18T12:32:48.000Z</time>
      </trkpt>
      <trkpt lat="42.73474" lon="1.93169">
        <ele>1571.4000244141</ele>
        <time>2014-01-18T12:32:53.000Z</time>
      </trkpt>
      <trkpt lat="42.73468" lon="1.93165">
        <ele>1570.1999511719</ele>
        <time>2014-01-18T12:32:59.000Z</time>
      </trkpt>
      <trkpt lat="42.73467" lon="1.93164">
        <ele>1569.5999755859</ele>
        <time>2014-01-18T12:33:01.000Z</time>
      </trkpt>
      <trkpt lat="42.73462" lon="1.93163">
        <ele>1569.1999511719</ele>
        <time>2014-01-18T12:33:06.000Z</time>
      </trkpt>
      <trkpt lat="42.73459" lon="1.93161">
        <ele>1568.5999755859</ele>
        <time>2014-01-18T12:33:10.000Z</time>
      </trkpt>
      <trkpt lat="42.7345" lon="1.93158">
        <ele>1567.5999755859</ele>
        <time>2014-01-18T12:33:19.000Z</time>
      </trkpt>
      <trkpt lat="42.73445" lon="1.93155">
        <ele>1566.1999511719</ele>
        <time>2014-01-18T12:33:26.000Z</time>
      </trkpt>
      <trkpt lat="42.73442" lon="1.93153">
        <ele>1565.4000244141</ele>
        <time>2014-01-18T12:33:29.000Z</time>
      </trkpt>
      <trkpt lat="42.73434" lon="1.93148">
        <ele>1563.4000244141</ele>
        <time>2014-01-18T12:33:38.000Z</time>
      </trkpt>
      <trkpt lat="42.7343" lon="1.93144">
        <ele>1561.8000488281</ele>
        <time>2014-01-18T12:33:45.000Z</time>
      </trkpt>
      <trkpt lat="42.73427" lon="1.93141">
        <ele>1560.1999511719</ele>
        <time>2014-01-18T12:33:54.000Z</time>
      </trkpt>
      <trkpt lat="42.73424" lon="1.93141">
        <ele>1560.5999755859</ele>
        <time>2014-01-18T12:33:59.000Z</time>
      </trkpt>
      <trkpt lat="42.7342" lon="1.93143">
        <ele>1561.4000244141</ele>
        <time>2014-01-18T12:34:04.000Z</time>
      </trkpt>
      <trkpt lat="42.73415" lon="1.93144">
        <ele>1562.4000244141</ele>
        <time>2014-01-18T12:34:10.000Z</time>
      </trkpt>
      <trkpt lat="42.73411" lon="1.93144">
        <ele>1563.5999755859</ele>
        <time>2014-01-18T12:34:16.000Z</time>
      </trkpt>
      <trkpt lat="42.73407" lon="1.93145">
        <ele>1564.8000488281</ele>
        <time>2014-01-18T12:34:21.000Z</time>
      </trkpt>
      <trkpt lat="42.734" lon="1.93145">
        <ele>1566.4000244141</ele>
        <time>2014-01-18T12:34:28.000Z</time>
      </trkpt>
      <trkpt lat="42.73393" lon="1.93146">
        <ele>1568.4000244141</ele>
        <time>2014-01-18T12:34:35.000Z</time>
      </trkpt>
      <trkpt lat="42.73386" lon="1.93146">
        <ele>1570</ele>
        <time>2014-01-18T12:34:42.000Z</time>
      </trkpt>
      <trkpt lat="42.73385" lon="1.93146">
        <ele>1570.1999511719</ele>
        <time>2014-01-18T12:34:44.000Z</time>
      </trkpt>
      <trkpt lat="42.73381" lon="1.93145">
        <ele>1571</ele>
        <time>2014-01-18T12:34:50.000Z</time>
      </trkpt>
      <trkpt lat="42.73378" lon="1.93146">
        <ele>1572</ele>
        <time>2014-01-18T12:34:55.000Z</time>
      </trkpt>
      <trkpt lat="42.7337" lon="1.93144">
        <ele>1573.4000244141</ele>
        <time>2014-01-18T12:35:04.000Z</time>
      </trkpt>
      <trkpt lat="42.73369" lon="1.93144">
        <ele>1573.5999755859</ele>
        <time>2014-01-18T12:35:05.000Z</time>
      </trkpt>
      <trkpt lat="42.73365" lon="1.93144">
        <ele>1574.4000244141</ele>
        <time>2014-01-18T12:35:10.000Z</time>
      </trkpt>
      <trkpt lat="42.73358" lon="1.93138">
        <ele>1574.4000244141</ele>
        <time>2014-01-18T12:35:24.000Z</time>
      </trkpt>
      <trkpt lat="42.73354" lon="1.93132">
        <ele>1573.5999755859</ele>
        <time>2014-01-18T12:35:31.000Z</time>
      </trkpt>
      <trkpt lat="42.73354" lon="1.9313">
        <ele>1573.1999511719</ele>
        <time>2014-01-18T12:35:32.000Z</time>
      </trkpt>
      <trkpt lat="42.73351" lon="1.93123">
        <ele>1571.8000488281</ele>
        <time>2014-01-18T12:35:38.000Z</time>
      </trkpt>
      <trkpt lat="42.7335" lon="1.93115">
        <ele>1569.8000488281</ele>
        <time>2014-01-18T12:35:44.000Z</time>
      </trkpt>
      <trkpt lat="42.73351" lon="1.93108">
        <ele>1567.4000244141</ele>
        <time>2014-01-18T12:35:49.000Z</time>
      </trkpt>
      <trkpt lat="42.73351" lon="1.93103">
        <ele>1565.8000488281</ele>
        <time>2014-01-18T12:35:53.000Z</time>
      </trkpt>
      <trkpt lat="42.73349" lon="1.93093">
        <ele>1563.5999755859</ele>
        <time>2014-01-18T12:36:00.000Z</time>
      </trkpt>
      <trkpt lat="42.73348" lon="1.93087">
        <ele>1562.1999511719</ele>
        <time>2014-01-18T12:36:07.000Z</time>
      </trkpt>
      <trkpt lat="42.73348" lon="1.93086">
        <ele>1562</ele>
        <time>2014-01-18T12:36:08.000Z</time>
      </trkpt>
      <trkpt lat="42.73346" lon="1.93074">
        <ele>1559.4000244141</ele>
        <time>2014-01-18T12:36:17.000Z</time>
      </trkpt>
      <trkpt lat="42.73346" lon="1.93072">
        <ele>1559.1999511719</ele>
        <time>2014-01-18T12:36:18.000Z</time>
      </trkpt>
      <trkpt lat="42.73344" lon="1.93062">
        <ele>1557</ele>
        <time>2014-01-18T12:36:26.000Z</time>
      </trkpt>
      <trkpt lat="42.73342" lon="1.93053">
        <ele>1555.1999511719</ele>
        <time>2014-01-18T12:36:32.000Z</time>
      </trkpt>
      <trkpt lat="42.73341" lon="1.93043">
        <ele>1552.8000488281</ele>
        <time>2014-01-18T12:36:40.000Z</time>
      </trkpt>
      <trkpt lat="42.73339" lon="1.93032">
        <ele>1550.8000488281</ele>
        <time>2014-01-18T12:36:48.000Z</time>
      </trkpt>
      <trkpt lat="42.73339" lon="1.9303">
        <ele>1550.4000244141</ele>
        <time>2014-01-18T12:36:49.000Z</time>
      </trkpt>
      <trkpt lat="42.73336" lon="1.93023">
        <ele>1549.5999755859</ele>
        <time>2014-01-18T12:36:55.000Z</time>
      </trkpt>
      <trkpt lat="42.73336" lon="1.9302">
        <ele>1549.1999511719</ele>
        <time>2014-01-18T12:36:57.000Z</time>
      </trkpt>
      <trkpt lat="42.73334" lon="1.93018">
        <ele>1549.4000244141</ele>
        <time>2014-01-18T12:36:59.000Z</time>
      </trkpt>
      <trkpt lat="42.7333" lon="1.93007">
        <ele>1548.4000244141</ele>
        <time>2014-01-18T12:37:07.000Z</time>
      </trkpt>
      <trkpt lat="42.73325" lon="1.92997">
        <ele>1548.4000244141</ele>
        <time>2014-01-18T12:37:15.000Z</time>
      </trkpt>
      <trkpt lat="42.73321" lon="1.92992">
        <ele>1548.8000488281</ele>
        <time>2014-01-18T12:37:20.000Z</time>
      </trkpt>
      <trkpt lat="42.73318" lon="1.92987">
        <ele>1548.1999511719</ele>
        <time>2014-01-18T12:37:24.000Z</time>
      </trkpt>
      <trkpt lat="42.73313" lon="1.92978">
        <ele>1548.4000244141</ele>
        <time>2014-01-18T12:37:32.000Z</time>
      </trkpt>
      <trkpt lat="42.73309" lon="1.92973">
        <ele>1548.4000244141</ele>
        <time>2014-01-18T12:37:40.000Z</time>
      </trkpt>
      <trkpt lat="42.73305" lon="1.92968">
        <ele>1548.8000488281</ele>
        <time>2014-01-18T12:37:45.000Z</time>
      </trkpt>
      <trkpt lat="42.733" lon="1.92962">
        <ele>1549</ele>
        <time>2014-01-18T12:37:51.000Z</time>
      </trkpt>
      <trkpt lat="42.73296" lon="1.92957">
        <ele>1549</ele>
        <time>2014-01-18T12:37:56.000Z</time>
      </trkpt>
      <trkpt lat="42.73294" lon="1.92955">
        <ele>1549.4000244141</ele>
        <time>2014-01-18T12:37:58.000Z</time>
      </trkpt>
      <trkpt lat="42.73288" lon="1.92949">
        <ele>1550.4000244141</ele>
        <time>2014-01-18T12:38:05.000Z</time>
      </trkpt>
      <trkpt lat="42.73285" lon="1.92943">
        <ele>1550</ele>
        <time>2014-01-18T12:38:11.000Z</time>
      </trkpt>
      <trkpt lat="42.73277" lon="1.92935">
        <ele>1550.8000488281</ele>
        <time>2014-01-18T12:38:20.000Z</time>
      </trkpt>
      <trkpt lat="42.73273" lon="1.92929">
        <ele>1550.5999755859</ele>
        <time>2014-01-18T12:38:26.000Z</time>
      </trkpt>
      <trkpt lat="42.73269" lon="1.92922">
        <ele>1550</ele>
        <time>2014-01-18T12:38:32.000Z</time>
      </trkpt>
      <trkpt lat="42.73265" lon="1.92913">
        <ele>1548.4000244141</ele>
        <time>2014-01-18T12:38:40.000Z</time>
      </trkpt>
      <trkpt lat="42.73262" lon="1.92904">
        <ele>1546.1999511719</ele>
        <time>2014-01-18T12:38:47.000Z</time>
      </trkpt>
      <trkpt lat="42.7326" lon="1.92897">
        <ele>1544.4000244141</ele>
        <time>2014-01-18T12:38:54.000Z</time>
      </trkpt>
      <trkpt lat="42.73259" lon="1.92897">
        <ele>1545.1999511719</ele>
        <time>2014-01-18T12:39:00.000Z</time>
      </trkpt>
      <trkpt lat="42.73258" lon="1.92893">
        <ele>1543.8000488281</ele>
        <time>2014-01-18T12:39:29.000Z</time>
      </trkpt>
      <trkpt lat="42.73257" lon="1.92888">
        <ele>1542.4000244141</ele>
        <time>2014-01-18T12:39:36.000Z</time>
      </trkpt>
      <trkpt lat="42.73254" lon="1.92885">
        <ele>1542.4000244141</ele>
        <time>2014-01-18T12:39:50.000Z</time>
      </trkpt>
      <trkpt lat="42.73251" lon="1.92882">
        <ele>1542.5999755859</ele>
        <time>2014-01-18T12:39:55.000Z</time>
      </trkpt>
      <trkpt lat="42.73247" lon="1.92881">
        <ele>1543.8000488281</ele>
        <time>2014-01-18T12:39:59.000Z</time>
      </trkpt>
      <trkpt lat="42.73244" lon="1.92878">
        <ele>1544</ele>
        <time>2014-01-18T12:40:05.000Z</time>
      </trkpt>
      <trkpt lat="42.73243" lon="1.92877">
        <ele>1544.1999511719</ele>
        <time>2014-01-18T12:40:06.000Z</time>
      </trkpt>
      <trkpt lat="42.73241" lon="1.92875">
        <ele>1543.5999755859</ele>
        <time>2014-01-18T12:40:14.000Z</time>
      </trkpt>
      <trkpt lat="42.73241" lon="1.92871">
        <ele>1542.1999511719</ele>
        <time>2014-01-18T12:41:05.000Z</time>
      </trkpt>
      <trkpt lat="42.73238" lon="1.92866">
        <ele>1541.5999755859</ele>
        <time>2014-01-18T12:41:42.000Z</time>
      </trkpt>
      <trkpt lat="42.73236" lon="1.92862">
        <ele>1541</ele>
        <time>2014-01-18T12:41:46.000Z</time>
      </trkpt>
      <trkpt lat="42.73234" lon="1.92858">
        <ele>1540</ele>
        <time>2014-01-18T12:41:50.000Z</time>
      </trkpt>
      <trkpt lat="42.73232" lon="1.92853">
        <ele>1538.5999755859</ele>
        <time>2014-01-18T12:41:56.000Z</time>
      </trkpt>
      <trkpt lat="42.73229" lon="1.92847">
        <ele>1537.5999755859</ele>
        <time>2014-01-18T12:42:02.000Z</time>
      </trkpt>
      <trkpt lat="42.73228" lon="1.92848">
        <ele>1538.1999511719</ele>
        <time>2014-01-18T12:42:12.000Z</time>
      </trkpt>
      <trkpt lat="42.73225" lon="1.92849">
        <ele>1539.5999755859</ele>
        <time>2014-01-18T12:43:00.000Z</time>
      </trkpt>
      <trkpt lat="42.73221" lon="1.92845">
        <ele>1539.4000244141</ele>
        <time>2014-01-18T12:43:20.000Z</time>
      </trkpt>
      <trkpt lat="42.73218" lon="1.92839">
        <ele>1538.5999755859</ele>
        <time>2014-01-18T12:43:26.000Z</time>
      </trkpt>
      <trkpt lat="42.73216" lon="1.92835">
        <ele>1537.8000488281</ele>
        <time>2014-01-18T12:43:30.000Z</time>
      </trkpt>
      <trkpt lat="42.73211" lon="1.92822">
        <ele>1534.1999511719</ele>
        <time>2014-01-18T12:43:40.000Z</time>
      </trkpt>
      <trkpt lat="42.73207" lon="1.92815">
        <ele>1532.8000488281</ele>
        <time>2014-01-18T12:43:47.000Z</time>
      </trkpt>
      <trkpt lat="42.73206" lon="1.92814">
        <ele>1532.4000244141</ele>
        <time>2014-01-18T12:43:48.000Z</time>
      </trkpt>
      <trkpt lat="42.73204" lon="1.92809">
        <ele>1531.5999755859</ele>
        <time>2014-01-18T12:43:52.000Z</time>
      </trkpt>
      <trkpt lat="42.73198" lon="1.928">
        <ele>1529.8000488281</ele>
        <time>2014-01-18T12:44:01.000Z</time>
      </trkpt>
      <trkpt lat="42.73197" lon="1.92797">
        <ele>1529</ele>
        <time>2014-01-18T12:44:07.000Z</time>
      </trkpt>
      <trkpt lat="42.73195" lon="1.92794">
        <ele>1528.5999755859</ele>
        <time>2014-01-18T12:44:15.000Z</time>
      </trkpt>
      <trkpt lat="42.73189" lon="1.92788">
        <ele>1528</ele>
        <time>2014-01-18T12:44:22.000Z</time>
      </trkpt>
      <trkpt lat="42.73184" lon="1.9278">
        <ele>1526.8000488281</ele>
        <time>2014-01-18T12:44:29.000Z</time>
      </trkpt>
      <trkpt lat="42.73182" lon="1.92776">
        <ele>1526.1999511719</ele>
        <time>2014-01-18T12:44:32.000Z</time>
      </trkpt>
      <trkpt lat="42.73175" lon="1.92767">
        <ele>1524.8000488281</ele>
        <time>2014-01-18T12:44:41.000Z</time>
      </trkpt>
      <trkpt lat="42.7317" lon="1.9276">
        <ele>1523.8000488281</ele>
        <time>2014-01-18T12:44:48.000Z</time>
      </trkpt>
      <trkpt lat="42.73167" lon="1.92757">
        <ele>1523.8000488281</ele>
        <time>2014-01-18T12:44:52.000Z</time>
      </trkpt>
      <trkpt lat="42.73163" lon="1.92754">
        <ele>1523.1999511719</ele>
        <time>2014-01-18T12:44:57.000Z</time>
      </trkpt>
      <trkpt lat="42.73159" lon="1.92751">
        <ele>1522</ele>
        <time>2014-01-18T12:45:02.000Z</time>
      </trkpt>
      <trkpt lat="42.73159" lon="1.92752">
        <ele>1522.4000244141</ele>
        <time>2014-01-18T12:45:12.000Z</time>
      </trkpt>
      <trkpt lat="42.73162" lon="1.92753">
        <ele>1522.8000488281</ele>
        <time>2014-01-18T12:45:31.000Z</time>
      </trkpt>
      <trkpt lat="42.73154" lon="1.92755">
        <ele>1524.1999511719</ele>
        <time>2014-01-18T12:46:01.000Z</time>
      </trkpt>
      <trkpt lat="42.73149" lon="1.9275">
        <ele>1522.5999755859</ele>
        <time>2014-01-18T12:46:10.000Z</time>
      </trkpt>
      <trkpt lat="42.73144" lon="1.92748">
        <ele>1521.8000488281</ele>
        <time>2014-01-18T12:46:18.000Z</time>
      </trkpt>
      <trkpt lat="42.73139" lon="1.92746">
        <ele>1521.5999755859</ele>
        <time>2014-01-18T12:46:25.000Z</time>
      </trkpt>
      <trkpt lat="42.73135" lon="1.92746">
        <ele>1522</ele>
        <time>2014-01-18T12:46:30.000Z</time>
      </trkpt>
      <trkpt lat="42.7313" lon="1.92748">
        <ele>1523.4000244141</ele>
        <time>2014-01-18T12:46:37.000Z</time>
      </trkpt>
      <trkpt lat="42.73126" lon="1.9275">
        <ele>1524.5999755859</ele>
        <time>2014-01-18T12:46:44.000Z</time>
      </trkpt>
      <trkpt lat="42.73122" lon="1.92753">
        <ele>1526</ele>
        <time>2014-01-18T12:46:51.000Z</time>
      </trkpt>
      <trkpt lat="42.73117" lon="1.92754">
        <ele>1526.8000488281</ele>
        <time>2014-01-18T12:46:58.000Z</time>
      </trkpt>
      <trkpt lat="42.73114" lon="1.92756">
        <ele>1527.8000488281</ele>
        <time>2014-01-18T12:47:02.000Z</time>
      </trkpt>
      <trkpt lat="42.7311" lon="1.92758">
        <ele>1529.1999511719</ele>
        <time>2014-01-18T12:47:10.000Z</time>
      </trkpt>
      <trkpt lat="42.73106" lon="1.92761">
        <ele>1531</ele>
        <time>2014-01-18T12:47:16.000Z</time>
      </trkpt>
      <trkpt lat="42.73097" lon="1.92765">
        <ele>1533.4000244141</ele>
        <time>2014-01-18T12:47:25.000Z</time>
      </trkpt>
      <trkpt lat="42.7309" lon="1.92762">
        <ele>1532.5999755859</ele>
        <time>2014-01-18T12:47:31.000Z</time>
      </trkpt>
      <trkpt lat="42.73086" lon="1.92755">
        <ele>1530.1999511719</ele>
        <time>2014-01-18T12:47:38.000Z</time>
      </trkpt>
      <trkpt lat="42.73084" lon="1.92754">
        <ele>1529.5999755859</ele>
        <time>2014-01-18T12:47:40.000Z</time>
      </trkpt>
      <trkpt lat="42.73081" lon="1.92748">
        <ele>1528.1999511719</ele>
        <time>2014-01-18T12:47:48.000Z</time>
      </trkpt>
      <trkpt lat="42.73079" lon="1.92741">
        <ele>1526.5999755859</ele>
        <time>2014-01-18T12:47:54.000Z</time>
      </trkpt>
      <trkpt lat="42.73075" lon="1.92737">
        <ele>1526.1999511719</ele>
        <time>2014-01-18T12:47:59.000Z</time>
      </trkpt>
      <trkpt lat="42.73074" lon="1.92733">
        <ele>1525.5999755859</ele>
        <time>2014-01-18T12:48:02.000Z</time>
      </trkpt>
      <trkpt lat="42.73068" lon="1.92726">
        <ele>1525</ele>
        <time>2014-01-18T12:48:11.000Z</time>
      </trkpt>
      <trkpt lat="42.73064" lon="1.9272">
        <ele>1524.4000244141</ele>
        <time>2014-01-18T12:48:18.000Z</time>
      </trkpt>
      <trkpt lat="42.73064" lon="1.92719">
        <ele>1524.4000244141</ele>
        <time>2014-01-18T12:48:19.000Z</time>
      </trkpt>
      <trkpt lat="42.73059" lon="1.92713">
        <ele>1524.1999511719</ele>
        <time>2014-01-18T12:48:26.000Z</time>
      </trkpt>
      <trkpt lat="42.73054" lon="1.92709">
        <ele>1524.4000244141</ele>
        <time>2014-01-18T12:48:32.000Z</time>
      </trkpt>
      <trkpt lat="42.73049" lon="1.92702">
        <ele>1523.8000488281</ele>
        <time>2014-01-18T12:48:40.000Z</time>
      </trkpt>
      <trkpt lat="42.73042" lon="1.92694">
        <ele>1523.5999755859</ele>
        <time>2014-01-18T12:48:48.000Z</time>
      </trkpt>
      <trkpt lat="42.73038" lon="1.92688">
        <ele>1522.8000488281</ele>
        <time>2014-01-18T12:48:55.000Z</time>
      </trkpt>
      <trkpt lat="42.73035" lon="1.92684">
        <ele>1522.4000244141</ele>
        <time>2014-01-18T12:49:01.000Z</time>
      </trkpt>
      <trkpt lat="42.73033" lon="1.9268">
        <ele>1521.5999755859</ele>
        <time>2014-01-18T12:49:05.000Z</time>
      </trkpt>
      <trkpt lat="42.7303" lon="1.92675">
        <ele>1521.1999511719</ele>
        <time>2014-01-18T12:49:10.000Z</time>
      </trkpt>
      <trkpt lat="42.73027" lon="1.9267">
        <ele>1520.5999755859</ele>
        <time>2014-01-18T12:49:15.000Z</time>
      </trkpt>
      <trkpt lat="42.7302" lon="1.92663">
        <ele>1520.4000244141</ele>
        <time>2014-01-18T12:49:24.000Z</time>
      </trkpt>
      <trkpt lat="42.73014" lon="1.92655">
        <ele>1519.8000488281</ele>
        <time>2014-01-18T12:49:33.000Z</time>
      </trkpt>
      <trkpt lat="42.73012" lon="1.92653">
        <ele>1520</ele>
        <time>2014-01-18T12:49:37.000Z</time>
      </trkpt>
      <trkpt lat="42.73004" lon="1.92647">
        <ele>1520.8000488281</ele>
        <time>2014-01-18T12:49:47.000Z</time>
      </trkpt>
      <trkpt lat="42.72997" lon="1.92639">
        <ele>1520.5999755859</ele>
        <time>2014-01-18T12:49:56.000Z</time>
      </trkpt>
      <trkpt lat="42.72994" lon="1.92632">
        <ele>1519</ele>
        <time>2014-01-18T12:50:03.000Z</time>
      </trkpt>
      <trkpt lat="42.72993" lon="1.9263">
        <ele>1518.8000488281</ele>
        <time>2014-01-18T12:50:05.000Z</time>
      </trkpt>
      <trkpt lat="42.72992" lon="1.92623">
        <ele>1516.4000244141</ele>
        <time>2014-01-18T12:50:11.000Z</time>
      </trkpt>
      <trkpt lat="42.7299" lon="1.92615">
        <ele>1514</ele>
        <time>2014-01-18T12:50:17.000Z</time>
      </trkpt>
      <trkpt lat="42.72989" lon="1.92614">
        <ele>1513.8000488281</ele>
        <time>2014-01-18T12:50:19.000Z</time>
      </trkpt>
      <trkpt lat="42.72985" lon="1.92602">
        <ele>1511</ele>
        <time>2014-01-18T12:50:29.000Z</time>
      </trkpt>
      <trkpt lat="42.72984" lon="1.92598">
        <ele>1509.8000488281</ele>
        <time>2014-01-18T12:50:32.000Z</time>
      </trkpt>
      <trkpt lat="42.72979" lon="1.9259">
        <ele>1508.4000244141</ele>
        <time>2014-01-18T12:50:41.000Z</time>
      </trkpt>
      <trkpt lat="42.72977" lon="1.92585">
        <ele>1507.1999511719</ele>
        <time>2014-01-18T12:50:45.000Z</time>
      </trkpt>
      <trkpt lat="42.72973" lon="1.92579">
        <ele>1506.5999755859</ele>
        <time>2014-01-18T12:50:51.000Z</time>
      </trkpt>
      <trkpt lat="42.72968" lon="1.92569">
        <ele>1504.5999755859</ele>
        <time>2014-01-18T12:51:00.000Z</time>
      </trkpt>
      <trkpt lat="42.72966" lon="1.92565">
        <ele>1503.8000488281</ele>
        <time>2014-01-18T12:51:03.000Z</time>
      </trkpt>
      <trkpt lat="42.72959" lon="1.92558">
        <ele>1503.4000244141</ele>
        <time>2014-01-18T12:51:11.000Z</time>
      </trkpt>
      <trkpt lat="42.72954" lon="1.9255">
        <ele>1502.1999511719</ele>
        <time>2014-01-18T12:51:19.000Z</time>
      </trkpt>
      <trkpt lat="42.72949" lon="1.92546">
        <ele>1502</ele>
        <time>2014-01-18T12:51:25.000Z</time>
      </trkpt>
      <trkpt lat="42.72949" lon="1.92544">
        <ele>1501.8000488281</ele>
        <time>2014-01-18T12:51:26.000Z</time>
      </trkpt>
      <trkpt lat="42.72941" lon="1.92539">
        <ele>1502</ele>
        <time>2014-01-18T12:51:35.000Z</time>
      </trkpt>
      <trkpt lat="42.72937" lon="1.92536">
        <ele>1502</ele>
        <time>2014-01-18T12:51:41.000Z</time>
      </trkpt>
      <trkpt lat="42.72932" lon="1.92534">
        <ele>1502.8000488281</ele>
        <time>2014-01-18T12:51:48.000Z</time>
      </trkpt>
      <trkpt lat="42.72925" lon="1.92531">
        <ele>1503.4000244141</ele>
        <time>2014-01-18T12:51:55.000Z</time>
      </trkpt>
      <trkpt lat="42.72918" lon="1.92529">
        <ele>1504.8000488281</ele>
        <time>2014-01-18T12:52:02.000Z</time>
      </trkpt>
      <trkpt lat="42.7291" lon="1.92527">
        <ele>1506.8000488281</ele>
        <time>2014-01-18T12:52:11.000Z</time>
      </trkpt>
      <trkpt lat="42.72906" lon="1.92525">
        <ele>1507.4000244141</ele>
        <time>2014-01-18T12:52:15.000Z</time>
      </trkpt>
      <trkpt lat="42.729" lon="1.92519">
        <ele>1507.1999511719</ele>
        <time>2014-01-18T12:52:23.000Z</time>
      </trkpt>
      <trkpt lat="42.72895" lon="1.92513">
        <ele>1506.8000488281</ele>
        <time>2014-01-18T12:52:30.000Z</time>
      </trkpt>
      <trkpt lat="42.72894" lon="1.92513">
        <ele>1506.5999755859</ele>
        <time>2014-01-18T12:52:31.000Z</time>
      </trkpt>
      <trkpt lat="42.7289" lon="1.92506">
        <ele>1505.4000244141</ele>
        <time>2014-01-18T12:52:38.000Z</time>
      </trkpt>
      <trkpt lat="42.72883" lon="1.92501">
        <ele>1505.5999755859</ele>
        <time>2014-01-18T12:52:45.000Z</time>
      </trkpt>
      <trkpt lat="42.72883" lon="1.925">
        <ele>1505.4000244141</ele>
        <time>2014-01-18T12:52:46.000Z</time>
      </trkpt>
      <trkpt lat="42.7288" lon="1.92496">
        <ele>1504.5999755859</ele>
        <time>2014-01-18T12:52:50.000Z</time>
      </trkpt>
      <trkpt lat="42.72875" lon="1.92487">
        <ele>1502.5999755859</ele>
        <time>2014-01-18T12:52:59.000Z</time>
      </trkpt>
      <trkpt lat="42.72871" lon="1.92482">
        <ele>1502</ele>
        <time>2014-01-18T12:53:05.000Z</time>
      </trkpt>
      <trkpt lat="42.72866" lon="1.92474">
        <ele>1500.4000244141</ele>
        <time>2014-01-18T12:53:14.000Z</time>
      </trkpt>
      <trkpt lat="42.72864" lon="1.9247">
        <ele>1499.1999511719</ele>
        <time>2014-01-18T12:53:20.000Z</time>
      </trkpt>
      <trkpt lat="42.7286" lon="1.92466">
        <ele>1498.8000488281</ele>
        <time>2014-01-18T12:53:25.000Z</time>
      </trkpt>
      <trkpt lat="42.72854" lon="1.92459">
        <ele>1498.1999511719</ele>
        <time>2014-01-18T12:53:33.000Z</time>
      </trkpt>
      <trkpt lat="42.72848" lon="1.92453">
        <ele>1497.8000488281</ele>
        <time>2014-01-18T12:53:40.000Z</time>
      </trkpt>
      <trkpt lat="42.72843" lon="1.92448">
        <ele>1497.4000244141</ele>
        <time>2014-01-18T12:53:45.000Z</time>
      </trkpt>
      <trkpt lat="42.72842" lon="1.92447">
        <ele>1497.4000244141</ele>
        <time>2014-01-18T12:53:47.000Z</time>
      </trkpt>
      <trkpt lat="42.72837" lon="1.9244">
        <ele>1496.1999511719</ele>
        <time>2014-01-18T12:53:56.000Z</time>
      </trkpt>
      <trkpt lat="42.72835" lon="1.92433">
        <ele>1494.4000244141</ele>
        <time>2014-01-18T12:54:16.000Z</time>
      </trkpt>
      <trkpt lat="42.72831" lon="1.92428">
        <ele>1493.4000244141</ele>
        <time>2014-01-18T12:54:22.000Z</time>
      </trkpt>
      <trkpt lat="42.72827" lon="1.92424">
        <ele>1492.4000244141</ele>
        <time>2014-01-18T12:54:29.000Z</time>
      </trkpt>
      <trkpt lat="42.7282" lon="1.9242">
        <ele>1492</ele>
        <time>2014-01-18T12:54:36.000Z</time>
      </trkpt>
      <trkpt lat="42.7282" lon="1.92419">
        <ele>1492</ele>
        <time>2014-01-18T12:54:37.000Z</time>
      </trkpt>
      <trkpt lat="42.72818" lon="1.92417">
        <ele>1491.5999755859</ele>
        <time>2014-01-18T12:54:39.000Z</time>
      </trkpt>
      <trkpt lat="42.72811" lon="1.92412">
        <ele>1491.1999511719</ele>
        <time>2014-01-18T12:54:48.000Z</time>
      </trkpt>
      <trkpt lat="42.7281" lon="1.92412">
        <ele>1491</ele>
        <time>2014-01-18T12:54:49.000Z</time>
      </trkpt>
      <trkpt lat="42.72806" lon="1.92409">
        <ele>1491</ele>
        <time>2014-01-18T12:54:56.000Z</time>
      </trkpt>
      <trkpt lat="42.72798" lon="1.92407">
        <ele>1491.4000244141</ele>
        <time>2014-01-18T12:55:04.000Z</time>
      </trkpt>
      <trkpt lat="42.72795" lon="1.92405">
        <ele>1491.4000244141</ele>
        <time>2014-01-18T12:55:08.000Z</time>
      </trkpt>
      <trkpt lat="42.72791" lon="1.92401">
        <ele>1490.5999755859</ele>
        <time>2014-01-18T12:55:13.000Z</time>
      </trkpt>
      <trkpt lat="42.72784" lon="1.92396">
        <ele>1490.4000244141</ele>
        <time>2014-01-18T12:55:21.000Z</time>
      </trkpt>
      <trkpt lat="42.72776" lon="1.92389">
        <ele>1489.1999511719</ele>
        <time>2014-01-18T12:55:29.000Z</time>
      </trkpt>
      <trkpt lat="42.72769" lon="1.92383">
        <ele>1488.4000244141</ele>
        <time>2014-01-18T12:55:37.000Z</time>
      </trkpt>
      <trkpt lat="42.72762" lon="1.92378">
        <ele>1488</ele>
        <time>2014-01-18T12:55:45.000Z</time>
      </trkpt>
      <trkpt lat="42.72756" lon="1.92374">
        <ele>1487.5999755859</ele>
        <time>2014-01-18T12:55:52.000Z</time>
      </trkpt>
      <trkpt lat="42.72749" lon="1.92369">
        <ele>1487</ele>
        <time>2014-01-18T12:56:00.000Z</time>
      </trkpt>
      <trkpt lat="42.72743" lon="1.92364">
        <ele>1485.8000488281</ele>
        <time>2014-01-18T12:56:07.000Z</time>
      </trkpt>
      <trkpt lat="42.72733" lon="1.92357">
        <ele>1483.5999755859</ele>
        <time>2014-01-18T12:56:19.000Z</time>
      </trkpt>
      <trkpt lat="42.72727" lon="1.9235">
        <ele>1481.5999755859</ele>
        <time>2014-01-18T12:56:27.000Z</time>
      </trkpt>
      <trkpt lat="42.72722" lon="1.92344">
        <ele>1479.5999755859</ele>
        <time>2014-01-18T12:56:34.000Z</time>
      </trkpt>
      <trkpt lat="42.72717" lon="1.92338">
        <ele>1477.4000244141</ele>
        <time>2014-01-18T12:56:42.000Z</time>
      </trkpt>
      <trkpt lat="42.72712" lon="1.92331">
        <ele>1475.1999511719</ele>
        <time>2014-01-18T12:56:50.000Z</time>
      </trkpt>
      <trkpt lat="42.72708" lon="1.92324">
        <ele>1473</ele>
        <time>2014-01-18T12:56:56.000Z</time>
      </trkpt>
      <trkpt lat="42.72707" lon="1.92324">
        <ele>1472.8000488281</ele>
        <time>2014-01-18T12:56:57.000Z</time>
      </trkpt>
      <trkpt lat="42.72706" lon="1.92321">
        <ele>1472</ele>
        <time>2014-01-18T12:57:00.000Z</time>
      </trkpt>
      <trkpt lat="42.72702" lon="1.92316">
        <ele>1470.1999511719</ele>
        <time>2014-01-18T12:57:07.000Z</time>
      </trkpt>
      <trkpt lat="42.72695" lon="1.92311">
        <ele>1469.1999511719</ele>
        <time>2014-01-18T12:57:15.000Z</time>
      </trkpt>
      <trkpt lat="42.72689" lon="1.92306">
        <ele>1467.8000488281</ele>
        <time>2014-01-18T12:57:23.000Z</time>
      </trkpt>
      <trkpt lat="42.72677" lon="1.923">
        <ele>1466.8000488281</ele>
        <time>2014-01-18T12:57:37.000Z</time>
      </trkpt>
      <trkpt lat="42.72672" lon="1.92299">
        <ele>1467</ele>
        <time>2014-01-18T12:57:43.000Z</time>
      </trkpt>
      <trkpt lat="42.72668" lon="1.923">
        <ele>1467.8000488281</ele>
        <time>2014-01-18T12:57:48.000Z</time>
      </trkpt>
      <trkpt lat="42.72661" lon="1.923">
        <ele>1467.8000488281</ele>
        <time>2014-01-18T12:57:57.000Z</time>
      </trkpt>
      <trkpt lat="42.72654" lon="1.92301">
        <ele>1468</ele>
        <time>2014-01-18T12:58:06.000Z</time>
      </trkpt>
      <trkpt lat="42.72648" lon="1.92301">
        <ele>1468</ele>
        <time>2014-01-18T12:58:14.000Z</time>
      </trkpt>
      <trkpt lat="42.72642" lon="1.92302">
        <ele>1468</ele>
        <time>2014-01-18T12:58:21.000Z</time>
      </trkpt>
      <trkpt lat="42.72634" lon="1.92301">
        <ele>1467.4000244141</ele>
        <time>2014-01-18T12:58:45.000Z</time>
      </trkpt>
      <trkpt lat="42.72629" lon="1.92303">
        <ele>1468</ele>
        <time>2014-01-18T12:58:53.000Z</time>
      </trkpt>
      <trkpt lat="42.72626" lon="1.92302">
        <ele>1467.5999755859</ele>
        <time>2014-01-18T12:58:59.000Z</time>
      </trkpt>
      <trkpt lat="42.72621" lon="1.92302">
        <ele>1467.4000244141</ele>
        <time>2014-01-18T12:59:07.000Z</time>
      </trkpt>
      <trkpt lat="42.72615" lon="1.92302">
        <ele>1467.4000244141</ele>
        <time>2014-01-18T12:59:15.000Z</time>
      </trkpt>
      <trkpt lat="42.72609" lon="1.92302">
        <ele>1467.1999511719</ele>
        <time>2014-01-18T12:59:23.000Z</time>
      </trkpt>
      <trkpt lat="42.72601" lon="1.92301">
        <ele>1466.5999755859</ele>
        <time>2014-01-18T12:59:33.000Z</time>
      </trkpt>
      <trkpt lat="42.72601" lon="1.92301">
        <ele>1466.5999755859</ele>
        <time>2014-01-18T12:59:34.000Z</time>
      </trkpt>
      <trkpt lat="42.72596" lon="1.92301">
        <ele>1466.4000244141</ele>
        <time>2014-01-18T12:59:41.000Z</time>
      </trkpt>
      <trkpt lat="42.72589" lon="1.923">
        <ele>1465.8000488281</ele>
        <time>2014-01-18T12:59:50.000Z</time>
      </trkpt>
      <trkpt lat="42.72583" lon="1.92299">
        <ele>1465.4000244141</ele>
        <time>2014-01-18T12:59:59.000Z</time>
      </trkpt>
      <trkpt lat="42.72576" lon="1.923">
        <ele>1466.8000488281</ele>
        <time>2014-01-18T13:00:08.000Z</time>
      </trkpt>
      <trkpt lat="42.7257" lon="1.923">
        <ele>1467.8000488281</ele>
        <time>2014-01-18T13:00:16.000Z</time>
      </trkpt>
      <trkpt lat="42.72563" lon="1.92303">
        <ele>1469.5999755859</ele>
        <time>2014-01-18T13:00:26.000Z</time>
      </trkpt>
      <trkpt lat="42.72561" lon="1.923">
        <ele>1469.1999511719</ele>
        <time>2014-01-18T13:00:33.000Z</time>
      </trkpt>
      <trkpt lat="42.72561" lon="1.923">
        <ele>1469</ele>
        <time>2014-01-18T13:00:42.000Z</time>
      </trkpt>
      <trkpt lat="42.72561" lon="1.92294">
        <ele>1467.4000244141</ele>
        <time>2014-01-18T13:00:50.000Z</time>
      </trkpt>
      <trkpt lat="42.72562" lon="1.92291">
        <ele>1466.1999511719</ele>
        <time>2014-01-18T13:00:55.000Z</time>
      </trkpt>
      <trkpt lat="42.72563" lon="1.92289">
        <ele>1465.4000244141</ele>
        <time>2014-01-18T13:01:04.000Z</time>
      </trkpt>
      <trkpt lat="42.72567" lon="1.92286">
        <ele>1463.8000488281</ele>
        <time>2014-01-18T13:01:11.000Z</time>
      </trkpt>
      <trkpt lat="42.72572" lon="1.92284">
        <ele>1462.5999755859</ele>
        <time>2014-01-18T13:01:17.000Z</time>
      </trkpt>
      <trkpt lat="42.72575" lon="1.92284">
        <ele>1461.8000488281</ele>
        <time>2014-01-18T13:01:21.000Z</time>
      </trkpt>
      <trkpt lat="42.72581" lon="1.92281">
        <ele>1459.8000488281</ele>
        <time>2014-01-18T13:01:29.000Z</time>
      </trkpt>
      <trkpt lat="42.72583" lon="1.92279">
        <ele>1458.8000488281</ele>
        <time>2014-01-18T13:01:32.000Z</time>
      </trkpt>
      <trkpt lat="42.7259" lon="1.92278">
        <ele>1458.4000244141</ele>
        <time>2014-01-18T13:01:40.000Z</time>
      </trkpt>
      <trkpt lat="42.72591" lon="1.92278">
        <ele>1458.4000244141</ele>
        <time>2014-01-18T13:01:41.000Z</time>
      </trkpt>
      <trkpt lat="42.72595" lon="1.92274">
        <ele>1457.4000244141</ele>
        <time>2014-01-18T13:01:47.000Z</time>
      </trkpt>
      <trkpt lat="42.72599" lon="1.92274">
        <ele>1457.4000244141</ele>
        <time>2014-01-18T13:01:54.000Z</time>
      </trkpt>
      <trkpt lat="42.72605" lon="1.92272">
        <ele>1456.8000488281</ele>
        <time>2014-01-18T13:02:01.000Z</time>
      </trkpt>
      <trkpt lat="42.72607" lon="1.92271">
        <ele>1456.5999755859</ele>
        <time>2014-01-18T13:02:03.000Z</time>
      </trkpt>
      <trkpt lat="42.72609" lon="1.92271">
        <ele>1456.5999755859</ele>
        <time>2014-01-18T13:02:06.000Z</time>
      </trkpt>
      <trkpt lat="42.72616" lon="1.92269">
        <ele>1456</ele>
        <time>2014-01-18T13:02:15.000Z</time>
      </trkpt>
      <trkpt lat="42.72622" lon="1.92263">
        <ele>1454</ele>
        <time>2014-01-18T13:02:25.000Z</time>
      </trkpt>
      <trkpt lat="42.72627" lon="1.92261">
        <ele>1453.4000244141</ele>
        <time>2014-01-18T13:02:32.000Z</time>
      </trkpt>
      <trkpt lat="42.72631" lon="1.9226">
        <ele>1453.1999511719</ele>
        <time>2014-01-18T13:02:38.000Z</time>
      </trkpt>
      <trkpt lat="42.72636" lon="1.92259">
        <ele>1453</ele>
        <time>2014-01-18T13:02:44.000Z</time>
      </trkpt>
      <trkpt lat="42.72643" lon="1.92259">
        <ele>1452.8000488281</ele>
        <time>2014-01-18T13:02:51.000Z</time>
      </trkpt>
      <trkpt lat="42.7265" lon="1.92256">
        <ele>1452</ele>
        <time>2014-01-18T13:02:58.000Z</time>
      </trkpt>
      <trkpt lat="42.72656" lon="1.92256">
        <ele>1452</ele>
        <time>2014-01-18T13:03:05.000Z</time>
      </trkpt>
      <trkpt lat="42.72663" lon="1.92254">
        <ele>1451.1999511719</ele>
        <time>2014-01-18T13:03:12.000Z</time>
      </trkpt>
      <trkpt lat="42.72664" lon="1.92253">
        <ele>1451</ele>
        <time>2014-01-18T13:03:13.000Z</time>
      </trkpt>
      <trkpt lat="42.72671" lon="1.92252">
        <ele>1450.1999511719</ele>
        <time>2014-01-18T13:03:20.000Z</time>
      </trkpt>
      <trkpt lat="42.72675" lon="1.9225">
        <ele>1449</ele>
        <time>2014-01-18T13:03:24.000Z</time>
      </trkpt>
      <trkpt lat="42.72676" lon="1.9225">
        <ele>1448.5999755859</ele>
        <time>2014-01-18T13:03:26.000Z</time>
      </trkpt>
      <trkpt lat="42.7268" lon="1.92248">
        <ele>1447.1999511719</ele>
        <time>2014-01-18T13:03:30.000Z</time>
      </trkpt>
      <trkpt lat="42.72688" lon="1.92246">
        <ele>1445.1999511719</ele>
        <time>2014-01-18T13:03:39.000Z</time>
      </trkpt>
      <trkpt lat="42.72693" lon="1.92245">
        <ele>1444</ele>
        <time>2014-01-18T13:03:45.000Z</time>
      </trkpt>
      <trkpt lat="42.727" lon="1.92246">
        <ele>1443.5999755859</ele>
        <time>2014-01-18T13:03:53.000Z</time>
      </trkpt>
      <trkpt lat="42.72707" lon="1.92248">
        <ele>1443.5999755859</ele>
        <time>2014-01-18T13:04:00.000Z</time>
      </trkpt>
      <trkpt lat="42.72713" lon="1.92252">
        <ele>1444.1999511719</ele>
        <time>2014-01-18T13:04:08.000Z</time>
      </trkpt>
      <trkpt lat="42.72717" lon="1.92254">
        <ele>1444.4000244141</ele>
        <time>2014-01-18T13:04:12.000Z</time>
      </trkpt>
      <trkpt lat="42.72718" lon="1.92255">
        <ele>1444.5999755859</ele>
        <time>2014-01-18T13:04:14.000Z</time>
      </trkpt>
      <trkpt lat="42.72723" lon="1.92258">
        <ele>1445.1999511719</ele>
        <time>2014-01-18T13:04:20.000Z</time>
      </trkpt>
      <trkpt lat="42.72726" lon="1.9226">
        <ele>1445.5999755859</ele>
        <time>2014-01-18T13:04:23.000Z</time>
      </trkpt>
      <trkpt lat="42.72734" lon="1.92266">
        <ele>1447</ele>
        <time>2014-01-18T13:04:32.000Z</time>
      </trkpt>
      <trkpt lat="42.72742" lon="1.92271">
        <ele>1447.5999755859</ele>
        <time>2014-01-18T13:04:40.000Z</time>
      </trkpt>
      <trkpt lat="42.7275" lon="1.92273">
        <ele>1447.5999755859</ele>
        <time>2014-01-18T13:04:49.000Z</time>
      </trkpt>
      <trkpt lat="42.72752" lon="1.92274">
        <ele>1447.1999511719</ele>
        <time>2014-01-18T13:04:52.000Z</time>
      </trkpt>
      <trkpt lat="42.72759" lon="1.92278">
        <ele>1447.1999511719</ele>
        <time>2014-01-18T13:05:00.000Z</time>
      </trkpt>
      <trkpt lat="42.72768" lon="1.92281">
        <ele>1446.1999511719</ele>
        <time>2014-01-18T13:05:08.000Z</time>
      </trkpt>
      <trkpt lat="42.72777" lon="1.92285">
        <ele>1445.1999511719</ele>
        <time>2014-01-18T13:05:16.000Z</time>
      </trkpt>
      <trkpt lat="42.72785" lon="1.92289">
        <ele>1445</ele>
        <time>2014-01-18T13:05:24.000Z</time>
      </trkpt>
      <trkpt lat="42.72793" lon="1.92292">
        <ele>1444.4000244141</ele>
        <time>2014-01-18T13:05:34.000Z</time>
      </trkpt>
      <trkpt lat="42.72795" lon="1.92293">
        <ele>1444.1999511719</ele>
        <time>2014-01-18T13:05:36.000Z</time>
      </trkpt>
      <trkpt lat="42.72801" lon="1.92295">
        <ele>1443.4000244141</ele>
        <time>2014-01-18T13:05:42.000Z</time>
      </trkpt>
      <trkpt lat="42.72804" lon="1.92295">
        <ele>1442.5999755859</ele>
        <time>2014-01-18T13:05:44.000Z</time>
      </trkpt>
      <trkpt lat="42.72806" lon="1.92295">
        <ele>1442</ele>
        <time>2014-01-18T13:05:47.000Z</time>
      </trkpt>
      <trkpt lat="42.72817" lon="1.92298">
        <ele>1440.8000488281</ele>
        <time>2014-01-18T13:05:58.000Z</time>
      </trkpt>
      <trkpt lat="42.72817" lon="1.92298">
        <ele>1440.4000244141</ele>
        <time>2014-01-18T13:05:59.000Z</time>
      </trkpt>
      <trkpt lat="42.72823" lon="1.923">
        <ele>1440</ele>
        <time>2014-01-18T13:06:06.000Z</time>
      </trkpt>
      <trkpt lat="42.72826" lon="1.92301">
        <ele>1439.8000488281</ele>
        <time>2014-01-18T13:06:09.000Z</time>
      </trkpt>
      <trkpt lat="42.72832" lon="1.92304">
        <ele>1439.4000244141</ele>
        <time>2014-01-18T13:06:15.000Z</time>
      </trkpt>
      <trkpt lat="42.72837" lon="1.92306">
        <ele>1438.5999755859</ele>
        <time>2014-01-18T13:06:24.000Z</time>
      </trkpt>
      <trkpt lat="42.72843" lon="1.92307">
        <ele>1437.4000244141</ele>
        <time>2014-01-18T13:06:31.000Z</time>
      </trkpt>
      <trkpt lat="42.72849" lon="1.9231">
        <ele>1436.4000244141</ele>
        <time>2014-01-18T13:06:39.000Z</time>
      </trkpt>
      <trkpt lat="42.72851" lon="1.92311">
        <ele>1436.5999755859</ele>
        <time>2014-01-18T13:06:41.000Z</time>
      </trkpt>
      <trkpt lat="42.72855" lon="1.92313">
        <ele>1435.8000488281</ele>
        <time>2014-01-18T13:06:46.000Z</time>
      </trkpt>
      <trkpt lat="42.7286" lon="1.92316">
        <ele>1435.8000488281</ele>
        <time>2014-01-18T13:06:52.000Z</time>
      </trkpt>
      <trkpt lat="42.72865" lon="1.9232">
        <ele>1435.5999755859</ele>
        <time>2014-01-18T13:06:58.000Z</time>
      </trkpt>
      <trkpt lat="42.72869" lon="1.92324">
        <ele>1435.8000488281</ele>
        <time>2014-01-18T13:07:04.000Z</time>
      </trkpt>
      <trkpt lat="42.72874" lon="1.92328">
        <ele>1435.5999755859</ele>
        <time>2014-01-18T13:07:11.000Z</time>
      </trkpt>
      <trkpt lat="42.72877" lon="1.92332">
        <ele>1435.8000488281</ele>
        <time>2014-01-18T13:07:16.000Z</time>
      </trkpt>
      <trkpt lat="42.72881" lon="1.92336">
        <ele>1436.4000244141</ele>
        <time>2014-01-18T13:07:22.000Z</time>
      </trkpt>
      <trkpt lat="42.72887" lon="1.9234">
        <ele>1436.1999511719</ele>
        <time>2014-01-18T13:07:28.000Z</time>
      </trkpt>
      <trkpt lat="42.72892" lon="1.92346">
        <ele>1436.5999755859</ele>
        <time>2014-01-18T13:07:34.000Z</time>
      </trkpt>
      <trkpt lat="42.72895" lon="1.9235">
        <ele>1436.8000488281</ele>
        <time>2014-01-18T13:07:40.000Z</time>
      </trkpt>
      <trkpt lat="42.729" lon="1.92353">
        <ele>1436.5999755859</ele>
        <time>2014-01-18T13:07:46.000Z</time>
      </trkpt>
      <trkpt lat="42.72903" lon="1.92355">
        <ele>1436.4000244141</ele>
        <time>2014-01-18T13:07:54.000Z</time>
      </trkpt>
      <trkpt lat="42.72906" lon="1.92359">
        <ele>1437</ele>
        <time>2014-01-18T13:08:11.000Z</time>
      </trkpt>
      <trkpt lat="42.7291" lon="1.92363">
        <ele>1436.5999755859</ele>
        <time>2014-01-18T13:08:18.000Z</time>
      </trkpt>
      <trkpt lat="42.72918" lon="1.92366">
        <ele>1435.5999755859</ele>
        <time>2014-01-18T13:08:27.000Z</time>
      </trkpt>
      <trkpt lat="42.72924" lon="1.92367">
        <ele>1434.5999755859</ele>
        <time>2014-01-18T13:08:34.000Z</time>
      </trkpt>
      <trkpt lat="42.72931" lon="1.92365">
        <ele>1432.4000244141</ele>
        <time>2014-01-18T13:08:41.000Z</time>
      </trkpt>
      <trkpt lat="42.72939" lon="1.92363">
        <ele>1429.8000488281</ele>
        <time>2014-01-18T13:08:49.000Z</time>
      </trkpt>
      <trkpt lat="42.72945" lon="1.92361">
        <ele>1428.1999511719</ele>
        <time>2014-01-18T13:08:56.000Z</time>
      </trkpt>
      <trkpt lat="42.72948" lon="1.9236">
        <ele>1427</ele>
        <time>2014-01-18T13:09:02.000Z</time>
      </trkpt>
      <trkpt lat="42.72952" lon="1.92359">
        <ele>1425.8000488281</ele>
        <time>2014-01-18T13:09:06.000Z</time>
      </trkpt>
      <trkpt lat="42.72951" lon="1.92358">
        <ele>1425.5999755859</ele>
        <time>2014-01-18T13:09:15.000Z</time>
      </trkpt>
      <trkpt lat="42.72953" lon="1.92355">
        <ele>1424</ele>
        <time>2014-01-18T13:09:26.000Z</time>
      </trkpt>
      <trkpt lat="42.72958" lon="1.92353">
        <ele>1422.4000244141</ele>
        <time>2014-01-18T13:09:33.000Z</time>
      </trkpt>
      <trkpt lat="42.7296" lon="1.92353">
        <ele>1421.8000488281</ele>
        <time>2014-01-18T13:09:35.000Z</time>
      </trkpt>
      <trkpt lat="42.72966" lon="1.92353">
        <ele>1420.8000488281</ele>
        <time>2014-01-18T13:09:42.000Z</time>
      </trkpt>
      <trkpt lat="42.72973" lon="1.92355">
        <ele>1420</ele>
        <time>2014-01-18T13:09:52.000Z</time>
      </trkpt>
      <trkpt lat="42.72979" lon="1.92355">
        <ele>1418.8000488281</ele>
        <time>2014-01-18T13:10:00.000Z</time>
      </trkpt>
      <trkpt lat="42.72987" lon="1.92356">
        <ele>1417.8000488281</ele>
        <time>2014-01-18T13:10:09.000Z</time>
      </trkpt>
      <trkpt lat="42.72994" lon="1.92359">
        <ele>1417.4000244141</ele>
        <time>2014-01-18T13:10:16.000Z</time>
      </trkpt>
      <trkpt lat="42.73001" lon="1.92363">
        <ele>1417</ele>
        <time>2014-01-18T13:10:24.000Z</time>
      </trkpt>
      <trkpt lat="42.73008" lon="1.92368">
        <ele>1416.4000244141</ele>
        <time>2014-01-18T13:10:33.000Z</time>
      </trkpt>
      <trkpt lat="42.73013" lon="1.92373">
        <ele>1416.1999511719</ele>
        <time>2014-01-18T13:10:40.000Z</time>
      </trkpt>
      <trkpt lat="42.73018" lon="1.92377">
        <ele>1415.5999755859</ele>
        <time>2014-01-18T13:10:45.000Z</time>
      </trkpt>
      <trkpt lat="42.73023" lon="1.92382">
        <ele>1415.5999755859</ele>
        <time>2014-01-18T13:10:52.000Z</time>
      </trkpt>
      <trkpt lat="42.73031" lon="1.92388">
        <ele>1414.5999755859</ele>
        <time>2014-01-18T13:11:02.000Z</time>
      </trkpt>
      <trkpt lat="42.73033" lon="1.92391">
        <ele>1414.5999755859</ele>
        <time>2014-01-18T13:11:04.000Z</time>
      </trkpt>
      <trkpt lat="42.73034" lon="1.92392">
        <ele>1414.4000244141</ele>
        <time>2014-01-18T13:11:06.000Z</time>
      </trkpt>
      <trkpt lat="42.73038" lon="1.92394">
        <ele>1413.8000488281</ele>
        <time>2014-01-18T13:11:10.000Z</time>
      </trkpt>
      <trkpt lat="42.73045" lon="1.924">
        <ele>1413</ele>
        <time>2014-01-18T13:11:18.000Z</time>
      </trkpt>
      <trkpt lat="42.73053" lon="1.92407">
        <ele>1412.1999511719</ele>
        <time>2014-01-18T13:11:27.000Z</time>
      </trkpt>
      <trkpt lat="42.7306" lon="1.92413">
        <ele>1411.1999511719</ele>
        <time>2014-01-18T13:11:34.000Z</time>
      </trkpt>
      <trkpt lat="42.73062" lon="1.92415">
        <ele>1411.1999511719</ele>
        <time>2014-01-18T13:11:37.000Z</time>
      </trkpt>
      <trkpt lat="42.73065" lon="1.92417">
        <ele>1410.5999755859</ele>
        <time>2014-01-18T13:11:45.000Z</time>
      </trkpt>
      <trkpt lat="42.73066" lon="1.92419">
        <ele>1410.8000488281</ele>
        <time>2014-01-18T13:11:47.000Z</time>
      </trkpt>
      <trkpt lat="42.73073" lon="1.92424">
        <ele>1409.4000244141</ele>
        <time>2014-01-18T13:11:54.000Z</time>
      </trkpt>
      <trkpt lat="42.7308" lon="1.92429">
        <ele>1408.5999755859</ele>
        <time>2014-01-18T13:12:01.000Z</time>
      </trkpt>
      <trkpt lat="42.73082" lon="1.92432">
        <ele>1408.8000488281</ele>
        <time>2014-01-18T13:12:03.000Z</time>
      </trkpt>
      <trkpt lat="42.73084" lon="1.92435">
        <ele>1408.8000488281</ele>
        <time>2014-01-18T13:12:07.000Z</time>
      </trkpt>
      <trkpt lat="42.73087" lon="1.92442">
        <ele>1410.1999511719</ele>
        <time>2014-01-18T13:12:14.000Z</time>
      </trkpt>
      <trkpt lat="42.7309" lon="1.92452">
        <ele>1412</ele>
        <time>2014-01-18T13:12:22.000Z</time>
      </trkpt>
      <trkpt lat="42.73092" lon="1.92455">
        <ele>1412.8000488281</ele>
        <time>2014-01-18T13:12:25.000Z</time>
      </trkpt>
      <trkpt lat="42.73094" lon="1.9246">
        <ele>1413.5999755859</ele>
        <time>2014-01-18T13:12:30.000Z</time>
      </trkpt>
      <trkpt lat="42.73095" lon="1.92464">
        <ele>1414.5999755859</ele>
        <time>2014-01-18T13:12:44.000Z</time>
      </trkpt>
      <trkpt lat="42.73097" lon="1.92468">
        <ele>1415</ele>
        <time>2014-01-18T13:12:51.000Z</time>
      </trkpt>
      <trkpt lat="42.73099" lon="1.92473">
        <ele>1416.1999511719</ele>
        <time>2014-01-18T13:12:57.000Z</time>
      </trkpt>
      <trkpt lat="42.73102" lon="1.92475">
        <ele>1415.8000488281</ele>
        <time>2014-01-18T13:13:04.000Z</time>
      </trkpt>
      <trkpt lat="42.73107" lon="1.92478">
        <ele>1414.8000488281</ele>
        <time>2014-01-18T13:13:13.000Z</time>
      </trkpt>
      <trkpt lat="42.73112" lon="1.9248">
        <ele>1414</ele>
        <time>2014-01-18T13:13:18.000Z</time>
      </trkpt>
      <trkpt lat="42.73113" lon="1.92482">
        <ele>1414</ele>
        <time>2014-01-18T13:13:25.000Z</time>
      </trkpt>
      <trkpt lat="42.73112" lon="1.92484">
        <ele>1415.1999511719</ele>
        <time>2014-01-18T13:14:06.000Z</time>
      </trkpt>
      <trkpt lat="42.73112" lon="1.92484">
        <ele>1415</ele>
        <time>2014-01-18T13:14:16.000Z</time>
      </trkpt>
      <trkpt lat="42.73112" lon="1.92483">
        <ele>1414.8000488281</ele>
        <time>2014-01-18T13:14:28.000Z</time>
      </trkpt>
      <trkpt lat="42.73111" lon="1.92483">
        <ele>1415.4000244141</ele>
        <time>2014-01-18T13:14:38.000Z</time>
      </trkpt>
      <trkpt lat="42.73111" lon="1.92483">
        <ele>1415.4000244141</ele>
        <time>2014-01-18T13:14:50.000Z</time>
      </trkpt>
      <trkpt lat="42.73111" lon="1.92484">
        <ele>1415.8000488281</ele>
        <time>2014-01-18T13:15:18.000Z</time>
      </trkpt>
      <trkpt lat="42.7311" lon="1.92484">
        <ele>1416</ele>
        <time>2014-01-18T13:15:30.000Z</time>
      </trkpt>
      <trkpt lat="42.73112" lon="1.92488">
        <ele>1416.8000488281</ele>
        <time>2014-01-18T13:16:00.000Z</time>
      </trkpt>
      <trkpt lat="42.73114" lon="1.92492">
        <ele>1417.1999511719</ele>
        <time>2014-01-18T13:16:06.000Z</time>
      </trkpt>
      <trkpt lat="42.73121" lon="1.92494">
        <ele>1415.5999755859</ele>
        <time>2014-01-18T13:16:13.000Z</time>
      </trkpt>
      <trkpt lat="42.73122" lon="1.92495">
        <ele>1415.8000488281</ele>
        <time>2014-01-18T13:16:14.000Z</time>
      </trkpt>
      <trkpt lat="42.73126" lon="1.92497">
        <ele>1415</ele>
        <time>2014-01-18T13:16:20.000Z</time>
      </trkpt>
      <trkpt lat="42.73127" lon="1.92498">
        <ele>1414.8000488281</ele>
        <time>2014-01-18T13:16:22.000Z</time>
      </trkpt>
      <trkpt lat="42.73137" lon="1.92503">
        <ele>1413.8000488281</ele>
        <time>2014-01-18T13:16:31.000Z</time>
      </trkpt>
      <trkpt lat="42.73144" lon="1.92506">
        <ele>1412.4000244141</ele>
        <time>2014-01-18T13:16:38.000Z</time>
      </trkpt>
      <trkpt lat="42.73145" lon="1.92506">
        <ele>1412.4000244141</ele>
        <time>2014-01-18T13:16:39.000Z</time>
      </trkpt>
      <trkpt lat="42.73152" lon="1.92508">
        <ele>1411</ele>
        <time>2014-01-18T13:16:45.000Z</time>
      </trkpt>
      <trkpt lat="42.73155" lon="1.92508">
        <ele>1409.8000488281</ele>
        <time>2014-01-18T13:16:49.000Z</time>
      </trkpt>
      <trkpt lat="42.73161" lon="1.92507">
        <ele>1407.1999511719</ele>
        <time>2014-01-18T13:16:55.000Z</time>
      </trkpt>
      <trkpt lat="42.73163" lon="1.92506">
        <ele>1406.1999511719</ele>
        <time>2014-01-18T13:16:57.000Z</time>
      </trkpt>
      <trkpt lat="42.73167" lon="1.92505">
        <ele>1404.5999755859</ele>
        <time>2014-01-18T13:17:01.000Z</time>
      </trkpt>
      <trkpt lat="42.73171" lon="1.92503">
        <ele>1402.4000244141</ele>
        <time>2014-01-18T13:17:06.000Z</time>
      </trkpt>
      <trkpt lat="42.73179" lon="1.925">
        <ele>1399.1999511719</ele>
        <time>2014-01-18T13:17:16.000Z</time>
      </trkpt>
      <trkpt lat="42.73184" lon="1.92502">
        <ele>1398.5999755859</ele>
        <time>2014-01-18T13:17:22.000Z</time>
      </trkpt>
      <trkpt lat="42.73185" lon="1.92502">
        <ele>1398.4000244141</ele>
        <time>2014-01-18T13:17:23.000Z</time>
      </trkpt>
      <trkpt lat="42.73186" lon="1.92501">
        <ele>1397.8000488281</ele>
        <time>2014-01-18T13:17:25.000Z</time>
      </trkpt>
      <trkpt lat="42.73188" lon="1.92502">
        <ele>1398</ele>
        <time>2014-01-18T13:17:27.000Z</time>
      </trkpt>
      <trkpt lat="42.73196" lon="1.92507">
        <ele>1398.4000244141</ele>
        <time>2014-01-18T13:17:35.000Z</time>
      </trkpt>
      <trkpt lat="42.73198" lon="1.92509">
        <ele>1398.5999755859</ele>
        <time>2014-01-18T13:17:38.000Z</time>
      </trkpt>
      <trkpt lat="42.73205" lon="1.92513">
        <ele>1398.4000244141</ele>
        <time>2014-01-18T13:17:46.000Z</time>
      </trkpt>
      <trkpt lat="42.7321" lon="1.92515">
        <ele>1398.1999511719</ele>
        <time>2014-01-18T13:17:51.000Z</time>
      </trkpt>
      <trkpt lat="42.73213" lon="1.92517">
        <ele>1398.1999511719</ele>
        <time>2014-01-18T13:17:55.000Z</time>
      </trkpt>
      <trkpt lat="42.73215" lon="1.92518">
        <ele>1398.1999511719</ele>
        <time>2014-01-18T13:17:57.000Z</time>
      </trkpt>
      <trkpt lat="42.73221" lon="1.92521">
        <ele>1397.8000488281</ele>
        <time>2014-01-18T13:18:03.000Z</time>
      </trkpt>
      <trkpt lat="42.73229" lon="1.92525">
        <ele>1397.8000488281</ele>
        <time>2014-01-18T13:18:12.000Z</time>
      </trkpt>
      <trkpt lat="42.7323" lon="1.92526">
        <ele>1397.5999755859</ele>
        <time>2014-01-18T13:18:13.000Z</time>
      </trkpt>
      <trkpt lat="42.73234" lon="1.92527">
        <ele>1397.1999511719</ele>
        <time>2014-01-18T13:18:17.000Z</time>
      </trkpt>
      <trkpt lat="42.73243" lon="1.9253">
        <ele>1396</ele>
        <time>2014-01-18T13:18:26.000Z</time>
      </trkpt>
      <trkpt lat="42.7325" lon="1.92533">
        <ele>1395.1999511719</ele>
        <time>2014-01-18T13:18:33.000Z</time>
      </trkpt>
      <trkpt lat="42.73259" lon="1.92537">
        <ele>1393</ele>
        <time>2014-01-18T13:18:41.000Z</time>
      </trkpt>
      <trkpt lat="42.73266" lon="1.9254">
        <ele>1391.5999755859</ele>
        <time>2014-01-18T13:18:48.000Z</time>
      </trkpt>
      <trkpt lat="42.73275" lon="1.92545">
        <ele>1389.8000488281</ele>
        <time>2014-01-18T13:18:57.000Z</time>
      </trkpt>
      <trkpt lat="42.73279" lon="1.92546">
        <ele>1388.8000488281</ele>
        <time>2014-01-18T13:19:02.000Z</time>
      </trkpt>
      <trkpt lat="42.73286" lon="1.92552">
        <ele>1387.8000488281</ele>
        <time>2014-01-18T13:19:11.000Z</time>
      </trkpt>
      <trkpt lat="42.73292" lon="1.92558">
        <ele>1387.5999755859</ele>
        <time>2014-01-18T13:19:18.000Z</time>
      </trkpt>
      <trkpt lat="42.73297" lon="1.92562">
        <ele>1386.8000488281</ele>
        <time>2014-01-18T13:19:23.000Z</time>
      </trkpt>
      <trkpt lat="42.73299" lon="1.92563">
        <ele>1386.5999755859</ele>
        <time>2014-01-18T13:19:25.000Z</time>
      </trkpt>
      <trkpt lat="42.73305" lon="1.9257">
        <ele>1386.1999511719</ele>
        <time>2014-01-18T13:19:33.000Z</time>
      </trkpt>
      <trkpt lat="42.73311" lon="1.92576">
        <ele>1385.8000488281</ele>
        <time>2014-01-18T13:19:40.000Z</time>
      </trkpt>
      <trkpt lat="42.73314" lon="1.92579">
        <ele>1385.4000244141</ele>
        <time>2014-01-18T13:19:44.000Z</time>
      </trkpt>
      <trkpt lat="42.73321" lon="1.92585">
        <ele>1384.1999511719</ele>
        <time>2014-01-18T13:19:53.000Z</time>
      </trkpt>
      <trkpt lat="42.73322" lon="1.92586">
        <ele>1384</ele>
        <time>2014-01-18T13:19:54.000Z</time>
      </trkpt>
      <trkpt lat="42.73325" lon="1.92588">
        <ele>1383.1999511719</ele>
        <time>2014-01-18T13:20:02.000Z</time>
      </trkpt>
      <trkpt lat="42.73329" lon="1.92593">
        <ele>1383.4000244141</ele>
        <time>2014-01-18T13:20:08.000Z</time>
      </trkpt>
      <trkpt lat="42.73336" lon="1.926">
        <ele>1383.4000244141</ele>
        <time>2014-01-18T13:20:16.000Z</time>
      </trkpt>
      <trkpt lat="42.73341" lon="1.92607">
        <ele>1384.5999755859</ele>
        <time>2014-01-18T13:20:23.000Z</time>
      </trkpt>
      <trkpt lat="42.73346" lon="1.92617">
        <ele>1386.8000488281</ele>
        <time>2014-01-18T13:20:31.000Z</time>
      </trkpt>
      <trkpt lat="42.73349" lon="1.92626">
        <ele>1389</ele>
        <time>2014-01-18T13:20:39.000Z</time>
      </trkpt>
      <trkpt lat="42.73354" lon="1.92634">
        <ele>1390.1999511719</ele>
        <time>2014-01-18T13:20:46.000Z</time>
      </trkpt>
      <trkpt lat="42.73361" lon="1.92637">
        <ele>1389.5999755859</ele>
        <time>2014-01-18T13:20:53.000Z</time>
      </trkpt>
      <trkpt lat="42.73362" lon="1.92638">
        <ele>1389.4000244141</ele>
        <time>2014-01-18T13:20:54.000Z</time>
      </trkpt>
      <trkpt lat="42.73368" lon="1.92639">
        <ele>1388.1999511719</ele>
        <time>2014-01-18T13:21:00.000Z</time>
      </trkpt>
      <trkpt lat="42.7337" lon="1.92641">
        <ele>1388.1999511719</ele>
        <time>2014-01-18T13:21:03.000Z</time>
      </trkpt>
      <trkpt lat="42.73374" lon="1.92641">
        <ele>1387.4000244141</ele>
        <time>2014-01-18T13:21:08.000Z</time>
      </trkpt>
      <trkpt lat="42.7338" lon="1.92646">
        <ele>1387</ele>
        <time>2014-01-18T13:21:15.000Z</time>
      </trkpt>
      <trkpt lat="42.73387" lon="1.92652">
        <ele>1386.8000488281</ele>
        <time>2014-01-18T13:21:22.000Z</time>
      </trkpt>
      <trkpt lat="42.73394" lon="1.92659">
        <ele>1386.5999755859</ele>
        <time>2014-01-18T13:21:31.000Z</time>
      </trkpt>
      <trkpt lat="42.73401" lon="1.92663">
        <ele>1386</ele>
        <time>2014-01-18T13:21:38.000Z</time>
      </trkpt>
      <trkpt lat="42.73407" lon="1.92665">
        <ele>1384.5999755859</ele>
        <time>2014-01-18T13:21:44.000Z</time>
      </trkpt>
      <trkpt lat="42.73409" lon="1.92665">
        <ele>1384.1999511719</ele>
        <time>2014-01-18T13:21:46.000Z</time>
      </trkpt>
      <trkpt lat="42.73412" lon="1.92665">
        <ele>1383</ele>
        <time>2014-01-18T13:21:54.000Z</time>
      </trkpt>
      <trkpt lat="42.73417" lon="1.92665">
        <ele>1381.5999755859</ele>
        <time>2014-01-18T13:22:00.000Z</time>
      </trkpt>
      <trkpt lat="42.73418" lon="1.92666">
        <ele>1381.8000488281</ele>
        <time>2014-01-18T13:22:02.000Z</time>
      </trkpt>
      <trkpt lat="42.73429" lon="1.92664">
        <ele>1380.5999755859</ele>
        <time>2014-01-18T13:22:13.000Z</time>
      </trkpt>
      <trkpt lat="42.73435" lon="1.92662">
        <ele>1379.8000488281</ele>
        <time>2014-01-18T13:22:22.000Z</time>
      </trkpt>
      <trkpt lat="42.7344" lon="1.92663">
        <ele>1379.5999755859</ele>
        <time>2014-01-18T13:22:31.000Z</time>
      </trkpt>
      <trkpt lat="42.73447" lon="1.92661">
        <ele>1378.8000488281</ele>
        <time>2014-01-18T13:22:38.000Z</time>
      </trkpt>
      <trkpt lat="42.73453" lon="1.92659">
        <ele>1378.1999511719</ele>
        <time>2014-01-18T13:22:44.000Z</time>
      </trkpt>
      <trkpt lat="42.73458" lon="1.92657">
        <ele>1377.8000488281</ele>
        <time>2014-01-18T13:22:50.000Z</time>
      </trkpt>
      <trkpt lat="42.7346" lon="1.92657">
        <ele>1377.5999755859</ele>
        <time>2014-01-18T13:22:52.000Z</time>
      </trkpt>
      <trkpt lat="42.73463" lon="1.92655">
        <ele>1377.4000244141</ele>
        <time>2014-01-18T13:22:56.000Z</time>
      </trkpt>
      <trkpt lat="42.73465" lon="1.92653">
        <ele>1377</ele>
        <time>2014-01-18T13:22:58.000Z</time>
      </trkpt>
      <trkpt lat="42.73472" lon="1.92649">
        <ele>1376.5999755859</ele>
        <time>2014-01-18T13:23:07.000Z</time>
      </trkpt>
      <trkpt lat="42.73473" lon="1.92649">
        <ele>1376.5999755859</ele>
        <time>2014-01-18T13:23:16.000Z</time>
      </trkpt>
      <trkpt lat="42.73473" lon="1.92649">
        <ele>1376.5999755859</ele>
        <time>2014-01-18T13:23:23.000Z</time>
      </trkpt>
      <trkpt lat="42.73477" lon="1.92645">
        <ele>1376.1999511719</ele>
        <time>2014-01-18T13:23:30.000Z</time>
      </trkpt>
      <trkpt lat="42.73483" lon="1.92642">
        <ele>1376</ele>
        <time>2014-01-18T13:23:38.000Z</time>
      </trkpt>
      <trkpt lat="42.73488" lon="1.92641">
        <ele>1376</ele>
        <time>2014-01-18T13:23:43.000Z</time>
      </trkpt>
      <trkpt lat="42.73494" lon="1.92639">
        <ele>1376.1999511719</ele>
        <time>2014-01-18T13:23:50.000Z</time>
      </trkpt>
      <trkpt lat="42.73497" lon="1.9264">
        <ele>1376.1999511719</ele>
        <time>2014-01-18T13:23:55.000Z</time>
      </trkpt>
      <trkpt lat="42.73504" lon="1.92643">
        <ele>1377.1999511719</ele>
        <time>2014-01-18T13:24:04.000Z</time>
      </trkpt>
      <trkpt lat="42.73507" lon="1.92644">
        <ele>1378</ele>
        <time>2014-01-18T13:24:08.000Z</time>
      </trkpt>
      <trkpt lat="42.73511" lon="1.92644">
        <ele>1379</ele>
        <time>2014-01-18T13:24:12.000Z</time>
      </trkpt>
      <trkpt lat="42.73515" lon="1.9264">
        <ele>1380.1999511719</ele>
        <time>2014-01-18T13:24:20.000Z</time>
      </trkpt>
      <trkpt lat="42.73518" lon="1.92634">
        <ele>1381.4000244141</ele>
        <time>2014-01-18T13:24:25.000Z</time>
      </trkpt>
      <trkpt lat="42.73518" lon="1.92632">
        <ele>1381.4000244141</ele>
        <time>2014-01-18T13:24:27.000Z</time>
      </trkpt>
      <trkpt lat="42.73516" lon="1.92628">
        <ele>1381</ele>
        <time>2014-01-18T13:24:31.000Z</time>
      </trkpt>
      <trkpt lat="42.73515" lon="1.92627">
        <ele>1380.8000488281</ele>
        <time>2014-01-18T13:24:33.000Z</time>
      </trkpt>
      <trkpt lat="42.73512" lon="1.92623">
        <ele>1380</ele>
        <time>2014-01-18T13:24:39.000Z</time>
      </trkpt>
      <trkpt lat="42.73509" lon="1.92622">
        <ele>1379.4000244141</ele>
        <time>2014-01-18T13:24:43.000Z</time>
      </trkpt>
      <trkpt lat="42.73507" lon="1.92621">
        <ele>1378.5999755859</ele>
        <time>2014-01-18T13:24:47.000Z</time>
      </trkpt>
      <trkpt lat="42.73505" lon="1.92619">
        <ele>1378</ele>
        <time>2014-01-18T13:24:52.000Z</time>
      </trkpt>
      <trkpt lat="42.735" lon="1.92617">
        <ele>1376.5999755859</ele>
        <time>2014-01-18T13:24:59.000Z</time>
      </trkpt>
      <trkpt lat="42.73495" lon="1.92617">
        <ele>1376.1999511719</ele>
        <time>2014-01-18T13:25:04.000Z</time>
      </trkpt>
      <trkpt lat="42.73493" lon="1.92616">
        <ele>1375.8000488281</ele>
        <time>2014-01-18T13:25:06.000Z</time>
      </trkpt>
      <trkpt lat="42.73492" lon="1.92615">
        <ele>1375.8000488281</ele>
        <time>2014-01-18T13:25:08.000Z</time>
      </trkpt>
      <trkpt lat="42.73488" lon="1.92613">
        <ele>1375.1999511719</ele>
        <time>2014-01-18T13:25:13.000Z</time>
      </trkpt>
      <trkpt lat="42.73484" lon="1.9261">
        <ele>1374.8000488281</ele>
        <time>2014-01-18T13:25:17.000Z</time>
      </trkpt>
      <trkpt lat="42.73477" lon="1.92605">
        <ele>1373.4000244141</ele>
        <time>2014-01-18T13:25:25.000Z</time>
      </trkpt>
      <trkpt lat="42.73471" lon="1.92602">
        <ele>1372.4000244141</ele>
        <time>2014-01-18T13:25:32.000Z</time>
      </trkpt>
      <trkpt lat="42.73464" lon="1.92602">
        <ele>1371.1999511719</ele>
        <time>2014-01-18T13:25:39.000Z</time>
      </trkpt>
      <trkpt lat="42.7346" lon="1.92603">
        <ele>1370.8000488281</ele>
        <time>2014-01-18T13:25:46.000Z</time>
      </trkpt>
      <trkpt lat="42.73453" lon="1.92604">
        <ele>1370</ele>
        <time>2014-01-18T13:25:55.000Z</time>
      </trkpt>
      <trkpt lat="42.73446" lon="1.92608">
        <ele>1369.8000488281</ele>
        <time>2014-01-18T13:26:03.000Z</time>
      </trkpt>
      <trkpt lat="42.73441" lon="1.92611">
        <ele>1369.5999755859</ele>
        <time>2014-01-18T13:26:09.000Z</time>
      </trkpt>
      <trkpt lat="42.73435" lon="1.92613">
        <ele>1369.4000244141</ele>
        <time>2014-01-18T13:26:15.000Z</time>
      </trkpt>
      <trkpt lat="42.73431" lon="1.92615">
        <ele>1369.1999511719</ele>
        <time>2014-01-18T13:26:19.000Z</time>
      </trkpt>
      <trkpt lat="42.73429" lon="1.92616">
        <ele>1369.1999511719</ele>
        <time>2014-01-18T13:26:21.000Z</time>
      </trkpt>
      <trkpt lat="42.73422" lon="1.92614">
        <ele>1368</ele>
        <time>2014-01-18T13:26:28.000Z</time>
      </trkpt>
      <trkpt lat="42.73413" lon="1.92613">
        <ele>1368.1999511719</ele>
        <time>2014-01-18T13:26:37.000Z</time>
      </trkpt>
      <trkpt lat="42.73411" lon="1.92613">
        <ele>1368.5999755859</ele>
        <time>2014-01-18T13:26:39.000Z</time>
      </trkpt>
      <trkpt lat="42.73409" lon="1.92609">
        <ele>1368.1999511719</ele>
        <time>2014-01-18T13:26:44.000Z</time>
      </trkpt>
      <trkpt lat="42.73406" lon="1.92605">
        <ele>1367.5999755859</ele>
        <time>2014-01-18T13:26:50.000Z</time>
      </trkpt>
      <trkpt lat="42.73404" lon="1.92604">
        <ele>1367.8000488281</ele>
        <time>2014-01-18T13:26:57.000Z</time>
      </trkpt>
      <trkpt lat="42.73402" lon="1.92599">
        <ele>1366.8000488281</ele>
        <time>2014-01-18T13:27:03.000Z</time>
      </trkpt>
      <trkpt lat="42.73399" lon="1.92594">
        <ele>1366</ele>
        <time>2014-01-18T13:27:10.000Z</time>
      </trkpt>
      <trkpt lat="42.73398" lon="1.9259">
        <ele>1365.4000244141</ele>
        <time>2014-01-18T13:27:15.000Z</time>
      </trkpt>
      <trkpt lat="42.73395" lon="1.92585">
        <ele>1364.5999755859</ele>
        <time>2014-01-18T13:27:21.000Z</time>
      </trkpt>
      <trkpt lat="42.73394" lon="1.92581">
        <ele>1363.8000488281</ele>
        <time>2014-01-18T13:27:28.000Z</time>
      </trkpt>
      <trkpt lat="42.73391" lon="1.92577">
        <ele>1363.5999755859</ele>
        <time>2014-01-18T13:27:34.000Z</time>
      </trkpt>
      <trkpt lat="42.7339" lon="1.92573">
        <ele>1363.4000244141</ele>
        <time>2014-01-18T13:27:38.000Z</time>
      </trkpt>
      <trkpt lat="42.73387" lon="1.92566">
        <ele>1362.8000488281</ele>
        <time>2014-01-18T13:27:45.000Z</time>
      </trkpt>
      <trkpt lat="42.73386" lon="1.9256">
        <ele>1361.8000488281</ele>
        <time>2014-01-18T13:27:51.000Z</time>
      </trkpt>
      <trkpt lat="42.73384" lon="1.92554">
        <ele>1361</ele>
        <time>2014-01-18T13:27:57.000Z</time>
      </trkpt>
      <trkpt lat="42.73384" lon="1.92548">
        <ele>1359.8000488281</ele>
        <time>2014-01-18T13:28:03.000Z</time>
      </trkpt>
      <trkpt lat="42.73382" lon="1.92542">
        <ele>1359</ele>
        <time>2014-01-18T13:28:09.000Z</time>
      </trkpt>
      <trkpt lat="42.73379" lon="1.92536">
        <ele>1358.1999511719</ele>
        <time>2014-01-18T13:28:15.000Z</time>
      </trkpt>
      <trkpt lat="42.73378" lon="1.92534">
        <ele>1358.1999511719</ele>
        <time>2014-01-18T13:28:22.000Z</time>
      </trkpt>
      <trkpt lat="42.73379" lon="1.92525">
        <ele>1356.1999511719</ele>
        <time>2014-01-18T13:29:36.000Z</time>
      </trkpt>
      <trkpt lat="42.73377" lon="1.92514">
        <ele>1354.1999511719</ele>
        <time>2014-01-18T13:29:43.000Z</time>
      </trkpt>
      <trkpt lat="42.73374" lon="1.92506">
        <ele>1352.5999755859</ele>
        <time>2014-01-18T13:29:50.000Z</time>
      </trkpt>
      <trkpt lat="42.73371" lon="1.92497">
        <ele>1351.4000244141</ele>
        <time>2014-01-18T13:29:56.000Z</time>
      </trkpt>
      <trkpt lat="42.73371" lon="1.92495">
        <ele>1351</ele>
        <time>2014-01-18T13:29:57.000Z</time>
      </trkpt>
      <trkpt lat="42.73369" lon="1.9249">
        <ele>1350.5999755859</ele>
        <time>2014-01-18T13:30:01.000Z</time>
      </trkpt>
      <trkpt lat="42.73366" lon="1.92477">
        <ele>1348.8000488281</ele>
        <time>2014-01-18T13:30:10.000Z</time>
      </trkpt>
      <trkpt lat="42.73365" lon="1.92475">
        <ele>1348.4000244141</ele>
        <time>2014-01-18T13:30:12.000Z</time>
      </trkpt>
      <trkpt lat="42.73362" lon="1.92463">
        <ele>1346.5999755859</ele>
        <time>2014-01-18T13:30:21.000Z</time>
      </trkpt>
      <trkpt lat="42.73358" lon="1.9245">
        <ele>1344.4000244141</ele>
        <time>2014-01-18T13:30:29.000Z</time>
      </trkpt>
      <trkpt lat="42.73356" lon="1.92439">
        <ele>1342.1999511719</ele>
        <time>2014-01-18T13:30:37.000Z</time>
      </trkpt>
      <trkpt lat="42.73356" lon="1.92433">
        <ele>1341.1999511719</ele>
        <time>2014-01-18T13:30:41.000Z</time>
      </trkpt>
      <trkpt lat="42.73355" lon="1.92429">
        <ele>1340.4000244141</ele>
        <time>2014-01-18T13:30:45.000Z</time>
      </trkpt>
      <trkpt lat="42.73353" lon="1.92424">
        <ele>1339.1999511719</ele>
        <time>2014-01-18T13:30:49.000Z</time>
      </trkpt>
      <trkpt lat="42.73352" lon="1.92422">
        <ele>1338.5999755859</ele>
        <time>2014-01-18T13:30:51.000Z</time>
      </trkpt>
      <trkpt lat="42.73348" lon="1.92415">
        <ele>1337</ele>
        <time>2014-01-18T13:30:57.000Z</time>
      </trkpt>
      <trkpt lat="42.73342" lon="1.92403">
        <ele>1338.1999511719</ele>
        <time>2014-01-18T13:31:06.000Z</time>
      </trkpt>
      <trkpt lat="42.73338" lon="1.92394">
        <ele>1338.8000488281</ele>
        <time>2014-01-18T13:31:13.000Z</time>
      </trkpt>
      <trkpt lat="42.73332" lon="1.92388">
        <ele>1338.8000488281</ele>
        <time>2014-01-18T13:31:20.000Z</time>
      </trkpt>
      <trkpt lat="42.73325" lon="1.9238">
        <ele>1340</ele>
        <time>2014-01-18T13:31:29.000Z</time>
      </trkpt>
      <trkpt lat="42.73323" lon="1.92379">
        <ele>1340.1999511719</ele>
        <time>2014-01-18T13:31:32.000Z</time>
      </trkpt>
      <trkpt lat="42.73318" lon="1.92371">
        <ele>1340.8000488281</ele>
        <time>2014-01-18T13:31:39.000Z</time>
      </trkpt>
      <trkpt lat="42.73314" lon="1.92366">
        <ele>1341</ele>
        <time>2014-01-18T13:31:45.000Z</time>
      </trkpt>
      <trkpt lat="42.73311" lon="1.92363">
        <ele>1340.8000488281</ele>
        <time>2014-01-18T13:31:49.000Z</time>
      </trkpt>
      <trkpt lat="42.73305" lon="1.92358">
        <ele>1340.4000244141</ele>
        <time>2014-01-18T13:31:56.000Z</time>
      </trkpt>
      <trkpt lat="42.73301" lon="1.92355">
        <ele>1339.8000488281</ele>
        <time>2014-01-18T13:32:00.000Z</time>
      </trkpt>
      <trkpt lat="42.73299" lon="1.92354">
        <ele>1339.5999755859</ele>
        <time>2014-01-18T13:32:02.000Z</time>
      </trkpt>
      <trkpt lat="42.73296" lon="1.92351">
        <ele>1339</ele>
        <time>2014-01-18T13:32:07.000Z</time>
      </trkpt>
      <trkpt lat="42.73291" lon="1.92346">
        <ele>1338</ele>
        <time>2014-01-18T13:32:13.000Z</time>
      </trkpt>
      <trkpt lat="42.7329" lon="1.92346">
        <ele>1337.8000488281</ele>
        <time>2014-01-18T13:32:15.000Z</time>
      </trkpt>
      <trkpt lat="42.73289" lon="1.92345">
        <ele>1337.4000244141</ele>
        <time>2014-01-18T13:32:17.000Z</time>
      </trkpt>
      <trkpt lat="42.73282" lon="1.92342">
        <ele>1336</ele>
        <time>2014-01-18T13:32:24.000Z</time>
      </trkpt>
      <trkpt lat="42.73279" lon="1.9234">
        <ele>1335</ele>
        <time>2014-01-18T13:32:28.000Z</time>
      </trkpt>
      <trkpt lat="42.73273" lon="1.92339">
        <ele>1333.8000488281</ele>
        <time>2014-01-18T13:32:33.000Z</time>
      </trkpt>
      <trkpt lat="42.73272" lon="1.92339">
        <ele>1333.4000244141</ele>
        <time>2014-01-18T13:32:34.000Z</time>
      </trkpt>
      <trkpt lat="42.73262" lon="1.92338">
        <ele>1331</ele>
        <time>2014-01-18T13:32:42.000Z</time>
      </trkpt>
      <trkpt lat="42.73256" lon="1.92331">
        <ele>1329</ele>
        <time>2014-01-18T13:32:48.000Z</time>
      </trkpt>
      <trkpt lat="42.7325" lon="1.92322">
        <ele>1328.5999755859</ele>
        <time>2014-01-18T13:32:56.000Z</time>
      </trkpt>
      <trkpt lat="42.73246" lon="1.92316">
        <ele>1329.5999755859</ele>
        <time>2014-01-18T13:33:01.000Z</time>
      </trkpt>
      <trkpt lat="42.7324" lon="1.9231">
        <ele>1330.5999755859</ele>
        <time>2014-01-18T13:33:08.000Z</time>
      </trkpt>
      <trkpt lat="42.73237" lon="1.92307">
        <ele>1331</ele>
        <time>2014-01-18T13:33:11.000Z</time>
      </trkpt>
      <trkpt lat="42.73236" lon="1.92306">
        <ele>1331.1999511719</ele>
        <time>2014-01-18T13:33:13.000Z</time>
      </trkpt>
      <trkpt lat="42.73234" lon="1.92301">
        <ele>1331.4000244141</ele>
        <time>2014-01-18T13:33:17.000Z</time>
      </trkpt>
      <trkpt lat="42.73231" lon="1.92293">
        <ele>1331.8000488281</ele>
        <time>2014-01-18T13:33:24.000Z</time>
      </trkpt>
      <trkpt lat="42.73227" lon="1.92285">
        <ele>1332</ele>
        <time>2014-01-18T13:33:30.000Z</time>
      </trkpt>
      <trkpt lat="42.73222" lon="1.92276">
        <ele>1331.5999755859</ele>
        <time>2014-01-18T13:33:36.000Z</time>
      </trkpt>
      <trkpt lat="42.73216" lon="1.92265">
        <ele>1330.8000488281</ele>
        <time>2014-01-18T13:33:43.000Z</time>
      </trkpt>
      <trkpt lat="42.73213" lon="1.92257">
        <ele>1329.8000488281</ele>
        <time>2014-01-18T13:33:50.000Z</time>
      </trkpt>
      <trkpt lat="42.73212" lon="1.92256">
        <ele>1329.5999755859</ele>
        <time>2014-01-18T13:33:51.000Z</time>
      </trkpt>
      <trkpt lat="42.73207" lon="1.92249">
        <ele>1328.4000244141</ele>
        <time>2014-01-18T13:33:57.000Z</time>
      </trkpt>
      <trkpt lat="42.73207" lon="1.92247">
        <ele>1328.4000244141</ele>
        <time>2014-01-18T13:33:58.000Z</time>
      </trkpt>
      <trkpt lat="42.73203" lon="1.92237">
        <ele>1328.1999511719</ele>
        <time>2014-01-18T13:34:05.000Z</time>
      </trkpt>
      <trkpt lat="42.73198" lon="1.92228">
        <ele>1327.5999755859</ele>
        <time>2014-01-18T13:34:13.000Z</time>
      </trkpt>
      <trkpt lat="42.73197" lon="1.92227">
        <ele>1327.4000244141</ele>
        <time>2014-01-18T13:34:14.000Z</time>
      </trkpt>
      <trkpt lat="42.73192" lon="1.9222">
        <ele>1326.1999511719</ele>
        <time>2014-01-18T13:34:21.000Z</time>
      </trkpt>
      <trkpt lat="42.7319" lon="1.92216">
        <ele>1325.5999755859</ele>
        <time>2014-01-18T13:34:27.000Z</time>
      </trkpt>
      <trkpt lat="42.73187" lon="1.92213">
        <ele>1324.8000488281</ele>
        <time>2014-01-18T13:34:32.000Z</time>
      </trkpt>
      <trkpt lat="42.73184" lon="1.92211">
        <ele>1323.8000488281</ele>
        <time>2014-01-18T13:34:37.000Z</time>
      </trkpt>
      <trkpt lat="42.73179" lon="1.92206">
        <ele>1322</ele>
        <time>2014-01-18T13:34:43.000Z</time>
      </trkpt>
      <trkpt lat="42.73174" lon="1.922">
        <ele>1320</ele>
        <time>2014-01-18T13:34:51.000Z</time>
      </trkpt>
      <trkpt lat="42.73172" lon="1.92189">
        <ele>1319</ele>
        <time>2014-01-18T13:35:21.000Z</time>
      </trkpt>
      <trkpt lat="42.7317" lon="1.92192">
        <ele>1318.4000244141</ele>
        <time>2014-01-18T13:35:41.000Z</time>
      </trkpt>
      <trkpt lat="42.7317" lon="1.92188">
        <ele>1318</ele>
        <time>2014-01-18T13:35:57.000Z</time>
      </trkpt>
      <trkpt lat="42.73165" lon="1.92179">
        <ele>1316.5999755859</ele>
        <time>2014-01-18T13:36:04.000Z</time>
      </trkpt>
      <trkpt lat="42.73161" lon="1.9217">
        <ele>1316.4000244141</ele>
        <time>2014-01-18T13:36:11.000Z</time>
      </trkpt>
      <trkpt lat="42.73154" lon="1.9216">
        <ele>1317</ele>
        <time>2014-01-18T13:36:20.000Z</time>
      </trkpt>
      <trkpt lat="42.73145" lon="1.92148">
        <ele>1317.4000244141</ele>
        <time>2014-01-18T13:36:31.000Z</time>
      </trkpt>
      <trkpt lat="42.73138" lon="1.92141">
        <ele>1317.1999511719</ele>
        <time>2014-01-18T13:36:38.000Z</time>
      </trkpt>
      <trkpt lat="42.73134" lon="1.92134">
        <ele>1316.8000488281</ele>
        <time>2014-01-18T13:36:46.000Z</time>
      </trkpt>
      <trkpt lat="42.73131" lon="1.92129">
        <ele>1316.4000244141</ele>
        <time>2014-01-18T13:36:52.000Z</time>
      </trkpt>
      <trkpt lat="42.73128" lon="1.92122">
        <ele>1316</ele>
        <time>2014-01-18T13:36:58.000Z</time>
      </trkpt>
      <trkpt lat="42.73123" lon="1.92112">
        <ele>1314.8000488281</ele>
        <time>2014-01-18T13:37:05.000Z</time>
      </trkpt>
      <trkpt lat="42.73121" lon="1.92108">
        <ele>1314.1999511719</ele>
        <time>2014-01-18T13:37:08.000Z</time>
      </trkpt>
      <trkpt lat="42.73118" lon="1.92104">
        <ele>1313.4000244141</ele>
        <time>2014-01-18T13:37:14.000Z</time>
      </trkpt>
      <trkpt lat="42.73111" lon="1.92092">
        <ele>1310.8000488281</ele>
        <time>2014-01-18T13:37:23.000Z</time>
      </trkpt>
      <trkpt lat="42.7311" lon="1.9209">
        <ele>1310.4000244141</ele>
        <time>2014-01-18T13:37:25.000Z</time>
      </trkpt>
      <trkpt lat="42.73108" lon="1.92079">
        <ele>1309.1999511719</ele>
        <time>2014-01-18T13:37:34.000Z</time>
      </trkpt>
      <trkpt lat="42.73106" lon="1.9207">
        <ele>1308.8000488281</ele>
        <time>2014-01-18T13:37:41.000Z</time>
      </trkpt>
      <trkpt lat="42.73105" lon="1.92062">
        <ele>1308.4000244141</ele>
        <time>2014-01-18T13:37:47.000Z</time>
      </trkpt>
      <trkpt lat="42.73104" lon="1.92061">
        <ele>1308.4000244141</ele>
        <time>2014-01-18T13:37:48.000Z</time>
      </trkpt>
      <trkpt lat="42.73102" lon="1.92051">
        <ele>1307.5999755859</ele>
        <time>2014-01-18T13:37:56.000Z</time>
      </trkpt>
      <trkpt lat="42.73101" lon="1.92041">
        <ele>1307.1999511719</ele>
        <time>2014-01-18T13:38:02.000Z</time>
      </trkpt>
      <trkpt lat="42.73097" lon="1.92029">
        <ele>1305.8000488281</ele>
        <time>2014-01-18T13:38:11.000Z</time>
      </trkpt>
      <trkpt lat="42.73096" lon="1.92026">
        <ele>1305.1999511719</ele>
        <time>2014-01-18T13:38:13.000Z</time>
      </trkpt>
      <trkpt lat="42.73091" lon="1.92015">
        <ele>1303</ele>
        <time>2014-01-18T13:38:22.000Z</time>
      </trkpt>
      <trkpt lat="42.73085" lon="1.92001">
        <ele>1299.8000488281</ele>
        <time>2014-01-18T13:38:31.000Z</time>
      </trkpt>
      <trkpt lat="42.73081" lon="1.9199">
        <ele>1300.5999755859</ele>
        <time>2014-01-18T13:38:38.000Z</time>
      </trkpt>
      <trkpt lat="42.73078" lon="1.91984">
        <ele>1301.5999755859</ele>
        <time>2014-01-18T13:38:44.000Z</time>
      </trkpt>
      <trkpt lat="42.73078" lon="1.91983">
        <ele>1301.8000488281</ele>
        <time>2014-01-18T13:38:45.000Z</time>
      </trkpt>
      <trkpt lat="42.73076" lon="1.91978">
        <ele>1302.4000244141</ele>
        <time>2014-01-18T13:38:49.000Z</time>
      </trkpt>
      <trkpt lat="42.73068" lon="1.91965">
        <ele>1303.8000488281</ele>
        <time>2014-01-18T13:38:59.000Z</time>
      </trkpt>
      <trkpt lat="42.73063" lon="1.91953">
        <ele>1304.4000244141</ele>
        <time>2014-01-18T13:39:07.000Z</time>
      </trkpt>
      <trkpt lat="42.73054" lon="1.91939">
        <ele>1304.4000244141</ele>
        <time>2014-01-18T13:39:18.000Z</time>
      </trkpt>
      <trkpt lat="42.73047" lon="1.9193">
        <ele>1303.5999755859</ele>
        <time>2014-01-18T13:39:27.000Z</time>
      </trkpt>
      <trkpt lat="42.73045" lon="1.91927">
        <ele>1303.1999511719</ele>
        <time>2014-01-18T13:39:37.000Z</time>
      </trkpt>
      <trkpt lat="42.73041" lon="1.91923">
        <ele>1302.5999755859</ele>
        <time>2014-01-18T13:39:43.000Z</time>
      </trkpt>
      <trkpt lat="42.7304" lon="1.91922">
        <ele>1302.4000244141</ele>
        <time>2014-01-18T13:39:44.000Z</time>
      </trkpt>
      <trkpt lat="42.73035" lon="1.91919">
        <ele>1301.4000244141</ele>
        <time>2014-01-18T13:39:50.000Z</time>
      </trkpt>
      <trkpt lat="42.73034" lon="1.91918">
        <ele>1301</ele>
        <time>2014-01-18T13:39:51.000Z</time>
      </trkpt>
      <trkpt lat="42.73034" lon="1.91918">
        <ele>1301</ele>
        <time>2014-01-18T13:39:52.000Z</time>
      </trkpt>
      <trkpt lat="42.73029" lon="1.91916">
        <ele>1299.8000488281</ele>
        <time>2014-01-18T13:39:58.000Z</time>
      </trkpt>
      <trkpt lat="42.73028" lon="1.91916">
        <ele>1299.5999755859</ele>
        <time>2014-01-18T13:39:59.000Z</time>
      </trkpt>
      <trkpt lat="42.73025" lon="1.91915">
        <ele>1299</ele>
        <time>2014-01-18T13:40:05.000Z</time>
      </trkpt>
      <trkpt lat="42.73024" lon="1.91914">
        <ele>1299</ele>
        <time>2014-01-18T13:40:06.000Z</time>
      </trkpt>
      <trkpt lat="42.73018" lon="1.91908">
        <ele>1297.8000488281</ele>
        <time>2014-01-18T13:40:13.000Z</time>
      </trkpt>
      <trkpt lat="42.73017" lon="1.91906">
        <ele>1297.5999755859</ele>
        <time>2014-01-18T13:40:14.000Z</time>
      </trkpt>
      <trkpt lat="42.73014" lon="1.919">
        <ele>1297</ele>
        <time>2014-01-18T13:40:19.000Z</time>
      </trkpt>
      <trkpt lat="42.73013" lon="1.91897">
        <ele>1296.8000488281</ele>
        <time>2014-01-18T13:40:21.000Z</time>
      </trkpt>
      <trkpt lat="42.73009" lon="1.91886">
        <ele>1295.8000488281</ele>
        <time>2014-01-18T13:40:29.000Z</time>
      </trkpt>
      <trkpt lat="42.73009" lon="1.91885">
        <ele>1295.5999755859</ele>
        <time>2014-01-18T13:40:30.000Z</time>
      </trkpt>
      <trkpt lat="42.73006" lon="1.91875">
        <ele>1294.8000488281</ele>
        <time>2014-01-18T13:40:38.000Z</time>
      </trkpt>
      <trkpt lat="42.73002" lon="1.91865">
        <ele>1293.5999755859</ele>
        <time>2014-01-18T13:40:45.000Z</time>
      </trkpt>
      <trkpt lat="42.73" lon="1.91855">
        <ele>1292.5999755859</ele>
        <time>2014-01-18T13:40:51.000Z</time>
      </trkpt>
      <trkpt lat="42.72994" lon="1.91843">
        <ele>1291.5999755859</ele>
        <time>2014-01-18T13:41:00.000Z</time>
      </trkpt>
      <trkpt lat="42.72988" lon="1.91834">
        <ele>1290.4000244141</ele>
        <time>2014-01-18T13:41:08.000Z</time>
      </trkpt>
      <trkpt lat="42.72985" lon="1.91833">
        <ele>1290.1999511719</ele>
        <time>2014-01-18T13:41:11.000Z</time>
      </trkpt>
      <trkpt lat="42.72979" lon="1.91828">
        <ele>1290</ele>
        <time>2014-01-18T13:41:18.000Z</time>
      </trkpt>
      <trkpt lat="42.72972" lon="1.91823">
        <ele>1289.8000488281</ele>
        <time>2014-01-18T13:41:26.000Z</time>
      </trkpt>
      <trkpt lat="42.72965" lon="1.91818">
        <ele>1289.1999511719</ele>
        <time>2014-01-18T13:41:33.000Z</time>
      </trkpt>
      <trkpt lat="42.72964" lon="1.91817">
        <ele>1289.1999511719</ele>
        <time>2014-01-18T13:41:34.000Z</time>
      </trkpt>
      <trkpt lat="42.7296" lon="1.91811">
        <ele>1289.1999511719</ele>
        <time>2014-01-18T13:41:40.000Z</time>
      </trkpt>
      <trkpt lat="42.72959" lon="1.9181">
        <ele>1289</ele>
        <time>2014-01-18T13:41:41.000Z</time>
      </trkpt>
      <trkpt lat="42.72953" lon="1.91803">
        <ele>1288.4000244141</ele>
        <time>2014-01-18T13:41:48.000Z</time>
      </trkpt>
      <trkpt lat="42.72947" lon="1.91794">
        <ele>1287.8000488281</ele>
        <time>2014-01-18T13:41:55.000Z</time>
      </trkpt>
      <trkpt lat="42.72944" lon="1.91788">
        <ele>1287.1999511719</ele>
        <time>2014-01-18T13:42:00.000Z</time>
      </trkpt>
      <trkpt lat="42.72942" lon="1.91784">
        <ele>1286.8000488281</ele>
        <time>2014-01-18T13:42:03.000Z</time>
      </trkpt>
      <trkpt lat="42.72938" lon="1.9178">
        <ele>1286.1999511719</ele>
        <time>2014-01-18T13:42:08.000Z</time>
      </trkpt>
      <trkpt lat="42.72936" lon="1.91775">
        <ele>1285.5999755859</ele>
        <time>2014-01-18T13:42:12.000Z</time>
      </trkpt>
      <trkpt lat="42.72926" lon="1.91761">
        <ele>1282.5999755859</ele>
        <time>2014-01-18T13:42:23.000Z</time>
      </trkpt>
      <trkpt lat="42.72919" lon="1.91751">
        <ele>1279.8000488281</ele>
        <time>2014-01-18T13:42:31.000Z</time>
      </trkpt>
      <trkpt lat="42.7291" lon="1.91736">
        <ele>1281.5999755859</ele>
        <time>2014-01-18T13:42:42.000Z</time>
      </trkpt>
      <trkpt lat="42.72903" lon="1.91724">
        <ele>1283.1999511719</ele>
        <time>2014-01-18T13:42:51.000Z</time>
      </trkpt>
      <trkpt lat="42.72898" lon="1.91718">
        <ele>1283.4000244141</ele>
        <time>2014-01-18T13:42:57.000Z</time>
      </trkpt>
      <trkpt lat="42.72895" lon="1.91718">
        <ele>1282.8000488281</ele>
        <time>2014-01-18T13:43:05.000Z</time>
      </trkpt>
      <trkpt lat="42.72895" lon="1.91721">
        <ele>1282.1999511719</ele>
        <time>2014-01-18T13:43:14.000Z</time>
      </trkpt>
      <trkpt lat="42.72894" lon="1.91721">
        <ele>1282.1999511719</ele>
        <time>2014-01-18T13:43:58.000Z</time>
      </trkpt>
      <trkpt lat="42.72894" lon="1.91718">
        <ele>1282.5999755859</ele>
        <time>2014-01-18T13:44:08.000Z</time>
      </trkpt>
      <trkpt lat="42.72893" lon="1.91717">
        <ele>1282.5999755859</ele>
        <time>2014-01-18T13:44:33.000Z</time>
      </trkpt>
      <trkpt lat="42.72894" lon="1.91715">
        <ele>1283.1999511719</ele>
        <time>2014-01-18T13:45:01.000Z</time>
      </trkpt>
    </trkseg>
  </trk>
</gpx>